<?xml version="1.0" encoding="UTF-8"?>
<gpx xmlns="http://www.topografix.com/GPX/1/1" creator="GPSies http://www.gpsies.com - Graf-Rhena-Weg" version="1.1" xmlns:xsi="http://www.w3.org/2001/XMLSchema-instance" xsi:schemaLocation="http://www.topografix.com/GPX/1/1 http://www.topografix.com/GPX/1/1/gpx.xsd">
  <metadata>
    <name>Graf-Rhena-Weg</name>
    <copyright author="GPSies.com" />
    <link href="http://www.gpsies.com/map.do?fileId=xsaupfocakurtgyf">
      <text>Graf-Rhena-Weg on GPSies.com</text>
    </link>
    <time>2008-10-11T22:24:41Z</time>
  </metadata>
  <trk>
    <name>Graf-Rhena-Weg on GPSies.com</name>
    <link href="http://www.gpsies.com/map.do?fileId=xsaupfocakurtgyf" />
    <trkseg>
      <trkpt lat="48.93614900" lon="8.417203000">
        <ele>146.25781</ele>
        <time>2008-10-11T22:24:41Z</time>
      </trkpt>
      <trkpt lat="48.93615500" lon="8.417212000">
        <ele>145.77710</ele>
        <time>2008-10-11T22:24:41Z</time>
      </trkpt>
      <trkpt lat="48.93616600" lon="8.417230000">
        <ele>144.81579</ele>
        <time>2008-10-11T22:24:42Z</time>
      </trkpt>
      <trkpt lat="48.93617800" lon="8.417251000">
        <ele>144.81579</ele>
        <time>2008-10-11T22:24:43Z</time>
      </trkpt>
      <trkpt lat="48.93617900" lon="8.417391000">
        <ele>146.25781</ele>
        <time>2008-10-11T22:24:47Z</time>
      </trkpt>
      <trkpt lat="48.93617200" lon="8.417411000">
        <ele>146.25781</ele>
        <time>2008-10-11T22:24:47Z</time>
      </trkpt>
      <trkpt lat="48.93611900" lon="8.417502000">
        <ele>146.25781</ele>
        <time>2008-10-11T22:24:50Z</time>
      </trkpt>
      <trkpt lat="48.93605400" lon="8.417587000">
        <ele>145.77710</ele>
        <time>2008-10-11T22:24:54Z</time>
      </trkpt>
      <trkpt lat="48.93598800" lon="8.417671000">
        <ele>144.81579</ele>
        <time>2008-10-11T22:24:57Z</time>
      </trkpt>
      <trkpt lat="48.93593100" lon="8.417751000">
        <ele>144.81579</ele>
        <time>2008-10-11T22:25:00Z</time>
      </trkpt>
      <trkpt lat="48.93585400" lon="8.417855000">
        <ele>145.77710</ele>
        <time>2008-10-11T22:25:04Z</time>
      </trkpt>
      <trkpt lat="48.93577500" lon="8.417956000">
        <ele>145.29638</ele>
        <time>2008-10-11T22:25:09Z</time>
      </trkpt>
      <trkpt lat="48.93568200" lon="8.418101000">
        <ele>144.33520</ele>
        <time>2008-10-11T22:25:14Z</time>
      </trkpt>
      <trkpt lat="48.93565100" lon="8.418182000">
        <ele>144.33520</ele>
        <time>2008-10-11T22:25:16Z</time>
      </trkpt>
      <trkpt lat="48.93557100" lon="8.418300000">
        <ele>145.77710</ele>
        <time>2008-10-11T22:25:21Z</time>
      </trkpt>
      <trkpt lat="48.93560000" lon="8.418376000">
        <ele>144.81579</ele>
        <time>2008-10-11T22:25:23Z</time>
      </trkpt>
      <trkpt lat="48.93564100" lon="8.418462000">
        <ele>145.77710</ele>
        <time>2008-10-11T22:25:26Z</time>
      </trkpt>
      <trkpt lat="48.93558500" lon="8.418567000">
        <ele>147.21899</ele>
        <time>2008-10-11T22:25:29Z</time>
      </trkpt>
      <trkpt lat="48.93554400" lon="8.418755000">
        <ele>150.58361</ele>
        <time>2008-10-11T22:25:35Z</time>
      </trkpt>
      <trkpt lat="48.93552300" lon="8.418833000">
        <ele>150.58361</ele>
        <time>2008-10-11T22:25:37Z</time>
      </trkpt>
      <trkpt lat="48.93545500" lon="8.418923000">
        <ele>155.39025</ele>
        <time>2008-10-11T22:25:40Z</time>
      </trkpt>
      <trkpt lat="48.93533600" lon="8.419104000">
        <ele>156.83215</ele>
        <time>2008-10-11T22:25:47Z</time>
      </trkpt>
      <trkpt lat="48.93523300" lon="8.419250000">
        <ele>156.35156</ele>
        <time>2008-10-11T22:25:53Z</time>
      </trkpt>
      <trkpt lat="48.93516000" lon="8.419359000">
        <ele>156.83215</ele>
        <time>2008-10-11T22:25:57Z</time>
      </trkpt>
      <trkpt lat="48.93509000" lon="8.419445000">
        <ele>158.27417</ele>
        <time>2008-10-11T22:26:01Z</time>
      </trkpt>
      <trkpt lat="48.93497900" lon="8.419613000">
        <ele>156.83215</ele>
        <time>2008-10-11T22:26:07Z</time>
      </trkpt>
      <trkpt lat="48.93495800" lon="8.419647000">
        <ele>157.79357</ele>
        <time>2008-10-11T22:26:08Z</time>
      </trkpt>
      <trkpt lat="48.93486000" lon="8.419768000">
        <ele>158.27417</ele>
        <time>2008-10-11T22:26:13Z</time>
      </trkpt>
      <trkpt lat="48.93477600" lon="8.419815000">
        <ele>157.31286</ele>
        <time>2008-10-11T22:26:17Z</time>
      </trkpt>
      <trkpt lat="48.93461300" lon="8.419924000">
        <ele>160.67749</ele>
        <time>2008-10-11T22:26:24Z</time>
      </trkpt>
      <trkpt lat="48.93457900" lon="8.419959000">
        <ele>160.19689</ele>
        <time>2008-10-11T22:26:25Z</time>
      </trkpt>
      <trkpt lat="48.93449800" lon="8.420126000">
        <ele>159.71618</ele>
        <time>2008-10-11T22:26:31Z</time>
      </trkpt>
      <trkpt lat="48.93448000" lon="8.420160000">
        <ele>159.71618</ele>
        <time>2008-10-11T22:26:32Z</time>
      </trkpt>
      <trkpt lat="48.93444300" lon="8.420312000">
        <ele>161.63891</ele>
        <time>2008-10-11T22:26:36Z</time>
      </trkpt>
      <trkpt lat="48.93441900" lon="8.420366000">
        <ele>161.63891</ele>
        <time>2008-10-11T22:26:38Z</time>
      </trkpt>
      <trkpt lat="48.93432100" lon="8.420589000">
        <ele>159.23547</ele>
        <time>2008-10-11T22:26:45Z</time>
      </trkpt>
      <trkpt lat="48.93426600" lon="8.420733000">
        <ele>158.27417</ele>
        <time>2008-10-11T22:26:49Z</time>
      </trkpt>
      <trkpt lat="48.93418600" lon="8.420900000">
        <ele>155.39025</ele>
        <time>2008-10-11T22:26:55Z</time>
      </trkpt>
      <trkpt lat="48.93408800" lon="8.421046000">
        <ele>152.98693</ele>
        <time>2008-10-11T22:27:00Z</time>
      </trkpt>
      <trkpt lat="48.93401100" lon="8.421227000">
        <ele>153.94836</ele>
        <time>2008-10-11T22:27:06Z</time>
      </trkpt>
      <trkpt lat="48.93397900" lon="8.421403000">
        <ele>151.54492</ele>
        <time>2008-10-11T22:27:11Z</time>
      </trkpt>
      <trkpt lat="48.93395500" lon="8.421636000">
        <ele>150.10302</ele>
        <time>2008-10-11T22:27:17Z</time>
      </trkpt>
      <trkpt lat="48.93393200" lon="8.421840000">
        <ele>152.50634</ele>
        <time>2008-10-11T22:27:23Z</time>
      </trkpt>
      <trkpt lat="48.93392400" lon="8.421989000">
        <ele>152.50634</ele>
        <time>2008-10-11T22:27:26Z</time>
      </trkpt>
      <trkpt lat="48.93390600" lon="8.422146000">
        <ele>152.02575</ele>
        <time>2008-10-11T22:27:31Z</time>
      </trkpt>
      <trkpt lat="48.93387300" lon="8.422276000">
        <ele>152.02575</ele>
        <time>2008-10-11T22:27:34Z</time>
      </trkpt>
      <trkpt lat="48.93388600" lon="8.422529000">
        <ele>153.94836</ele>
        <time>2008-10-11T22:27:41Z</time>
      </trkpt>
      <trkpt lat="48.93388900" lon="8.422564000">
        <ele>153.94836</ele>
        <time>2008-10-11T22:27:42Z</time>
      </trkpt>
      <trkpt lat="48.93393600" lon="8.422804000">
        <ele>152.98693</ele>
        <time>2008-10-11T22:27:48Z</time>
      </trkpt>
      <trkpt lat="48.93395800" lon="8.423008000">
        <ele>152.02575</ele>
        <time>2008-10-11T22:27:54Z</time>
      </trkpt>
      <trkpt lat="48.93399200" lon="8.423138000">
        <ele>150.10302</ele>
        <time>2008-10-11T22:27:58Z</time>
      </trkpt>
      <trkpt lat="48.93407500" lon="8.423157000">
        <ele>147.69970</ele>
        <time>2008-10-11T22:28:01Z</time>
      </trkpt>
      <trkpt lat="48.93415200" lon="8.423175000">
        <ele>148.66101</ele>
        <time>2008-10-11T22:28:04Z</time>
      </trkpt>
      <trkpt lat="48.93415000" lon="8.423207000">
        <ele>148.66101</ele>
        <time>2008-10-11T22:28:05Z</time>
      </trkpt>
      <trkpt lat="48.93414200" lon="8.423400000">
        <ele>151.06420</ele>
        <time>2008-10-11T22:28:10Z</time>
      </trkpt>
      <trkpt lat="48.93410300" lon="8.423595000">
        <ele>154.42895</ele>
        <time>2008-10-11T22:28:15Z</time>
      </trkpt>
      <trkpt lat="48.93409000" lon="8.423780000">
        <ele>155.39025</ele>
        <time>2008-10-11T22:28:20Z</time>
      </trkpt>
      <trkpt lat="48.93408900" lon="8.423939000">
        <ele>155.87097</ele>
        <time>2008-10-11T22:28:24Z</time>
      </trkpt>
      <trkpt lat="48.93408600" lon="8.424098000">
        <ele>156.35156</ele>
        <time>2008-10-11T22:28:29Z</time>
      </trkpt>
      <trkpt lat="48.93408900" lon="8.424217000">
        <ele>156.83215</ele>
        <time>2008-10-11T22:28:32Z</time>
      </trkpt>
      <trkpt lat="48.93411400" lon="8.424404000">
        <ele>158.27417</ele>
        <time>2008-10-11T22:28:37Z</time>
      </trkpt>
      <trkpt lat="48.93408400" lon="8.424657000">
        <ele>160.67749</ele>
        <time>2008-10-11T22:28:44Z</time>
      </trkpt>
      <trkpt lat="48.93408600" lon="8.424871000">
        <ele>160.19689</ele>
        <time>2008-10-11T22:28:49Z</time>
      </trkpt>
      <trkpt lat="48.93409200" lon="8.425161000">
        <ele>156.83215</ele>
        <time>2008-10-11T22:28:57Z</time>
      </trkpt>
      <trkpt lat="48.93412800" lon="8.425345000">
        <ele>154.90954</ele>
        <time>2008-10-11T22:29:02Z</time>
      </trkpt>
      <trkpt lat="48.93418200" lon="8.425627000">
        <ele>156.83215</ele>
        <time>2008-10-11T22:29:10Z</time>
      </trkpt>
      <trkpt lat="48.93421800" lon="8.425840000">
        <ele>155.87097</ele>
        <time>2008-10-11T22:29:15Z</time>
      </trkpt>
      <trkpt lat="48.93425200" lon="8.426033000">
        <ele>155.39025</ele>
        <time>2008-10-11T22:29:21Z</time>
      </trkpt>
      <trkpt lat="48.93428800" lon="8.426219000">
        <ele>153.94836</ele>
        <time>2008-10-11T22:29:26Z</time>
      </trkpt>
      <trkpt lat="48.93430600" lon="8.426425000">
        <ele>153.94836</ele>
        <time>2008-10-11T22:29:31Z</time>
      </trkpt>
      <trkpt lat="48.93435500" lon="8.426651000">
        <ele>153.46765</ele>
        <time>2008-10-11T22:29:37Z</time>
      </trkpt>
      <trkpt lat="48.93440700" lon="8.426889000">
        <ele>151.06420</ele>
        <time>2008-10-11T22:29:44Z</time>
      </trkpt>
      <trkpt lat="48.93443500" lon="8.427087000">
        <ele>150.58361</ele>
        <time>2008-10-11T22:29:49Z</time>
      </trkpt>
      <trkpt lat="48.93446200" lon="8.427306000">
        <ele>151.06420</ele>
        <time>2008-10-11T22:29:55Z</time>
      </trkpt>
      <trkpt lat="48.93447300" lon="8.427465000">
        <ele>153.46765</ele>
        <time>2008-10-11T22:29:59Z</time>
      </trkpt>
      <trkpt lat="48.93446000" lon="8.427704000">
        <ele>152.50634</ele>
        <time>2008-10-11T22:30:06Z</time>
      </trkpt>
      <trkpt lat="48.93445700" lon="8.427918000">
        <ele>152.50634</ele>
        <time>2008-10-11T22:30:11Z</time>
      </trkpt>
      <trkpt lat="48.93444400" lon="8.428107000">
        <ele>153.46765</ele>
        <time>2008-10-11T22:30:16Z</time>
      </trkpt>
      <trkpt lat="48.93446300" lon="8.428322000">
        <ele>154.42895</ele>
        <time>2008-10-11T22:30:22Z</time>
      </trkpt>
      <trkpt lat="48.93447100" lon="8.428363000">
        <ele>155.39025</ele>
        <time>2008-10-11T22:30:23Z</time>
      </trkpt>
      <trkpt lat="48.93448800" lon="8.428631000">
        <ele>153.94836</ele>
        <time>2008-10-11T22:30:30Z</time>
      </trkpt>
      <trkpt lat="48.93448800" lon="8.428833000">
        <ele>153.94836</ele>
        <time>2008-10-11T22:30:36Z</time>
      </trkpt>
      <trkpt lat="48.93447600" lon="8.428979000">
        <ele>152.50634</ele>
        <time>2008-10-11T22:30:39Z</time>
      </trkpt>
      <trkpt lat="48.93446500" lon="8.429018000">
        <ele>152.50634</ele>
        <time>2008-10-11T22:30:41Z</time>
      </trkpt>
      <trkpt lat="48.93447800" lon="8.429265000">
        <ele>154.90954</ele>
        <time>2008-10-11T22:30:47Z</time>
      </trkpt>
      <trkpt lat="48.93450000" lon="8.429447000">
        <ele>157.79357</ele>
        <time>2008-10-11T22:30:52Z</time>
      </trkpt>
      <trkpt lat="48.93447600" lon="8.429670000">
        <ele>158.75476</ele>
        <time>2008-10-11T22:30:58Z</time>
      </trkpt>
      <trkpt lat="48.93443600" lon="8.429913000">
        <ele>160.67749</ele>
        <time>2008-10-11T22:31:04Z</time>
      </trkpt>
      <trkpt lat="48.93438800" lon="8.430122000">
        <ele>158.27417</ele>
        <time>2008-10-11T22:31:10Z</time>
      </trkpt>
      <trkpt lat="48.93433200" lon="8.430368000">
        <ele>157.79357</ele>
        <time>2008-10-11T22:31:17Z</time>
      </trkpt>
      <trkpt lat="48.93429900" lon="8.430612000">
        <ele>154.90954</ele>
        <time>2008-10-11T22:31:24Z</time>
      </trkpt>
      <trkpt lat="48.93429300" lon="8.430861000">
        <ele>153.94836</ele>
        <time>2008-10-11T22:31:30Z</time>
      </trkpt>
      <trkpt lat="48.93427800" lon="8.431068000">
        <ele>152.02575</ele>
        <time>2008-10-11T22:31:36Z</time>
      </trkpt>
      <trkpt lat="48.93424000" lon="8.431353000">
        <ele>150.10302</ele>
        <time>2008-10-11T22:31:43Z</time>
      </trkpt>
      <trkpt lat="48.93420300" lon="8.431590000">
        <ele>148.66101</ele>
        <time>2008-10-11T22:31:50Z</time>
      </trkpt>
      <trkpt lat="48.93418600" lon="8.431813000">
        <ele>149.14160</ele>
        <time>2008-10-11T22:31:56Z</time>
      </trkpt>
      <trkpt lat="48.93417600" lon="8.431982000">
        <ele>151.06420</ele>
        <time>2008-10-11T22:32:00Z</time>
      </trkpt>
      <trkpt lat="48.93413800" lon="8.432172000">
        <ele>154.90954</ele>
        <time>2008-10-11T22:32:05Z</time>
      </trkpt>
      <trkpt lat="48.93412500" lon="8.432323000">
        <ele>156.83215</ele>
        <time>2008-10-11T22:32:09Z</time>
      </trkpt>
      <trkpt lat="48.93411600" lon="8.432458000">
        <ele>157.79357</ele>
        <time>2008-10-11T22:32:13Z</time>
      </trkpt>
      <trkpt lat="48.93410700" lon="8.432496000">
        <ele>158.27417</ele>
        <time>2008-10-11T22:32:14Z</time>
      </trkpt>
      <trkpt lat="48.93405100" lon="8.432768000">
        <ele>164.52270</ele>
        <time>2008-10-11T22:32:21Z</time>
      </trkpt>
      <trkpt lat="48.93403300" lon="8.432805000">
        <ele>165.48413</ele>
        <time>2008-10-11T22:32:23Z</time>
      </trkpt>
      <trkpt lat="48.93398000" lon="8.432984000">
        <ele>170.29064</ele>
        <time>2008-10-11T22:32:28Z</time>
      </trkpt>
      <trkpt lat="48.93391600" lon="8.433107000">
        <ele>169.32946</ele>
        <time>2008-10-11T22:32:32Z</time>
      </trkpt>
      <trkpt lat="48.93380800" lon="8.433325000">
        <ele>168.36804</ele>
        <time>2008-10-11T22:32:39Z</time>
      </trkpt>
      <trkpt lat="48.93375100" lon="8.433458000">
        <ele>167.88732</ele>
        <time>2008-10-11T22:32:43Z</time>
      </trkpt>
      <trkpt lat="48.93369600" lon="8.433652000">
        <ele>168.36804</ele>
        <time>2008-10-11T22:32:49Z</time>
      </trkpt>
      <trkpt lat="48.93364700" lon="8.433928000">
        <ele>166.92602</ele>
        <time>2008-10-11T22:32:56Z</time>
      </trkpt>
      <trkpt lat="48.93360400" lon="8.434152000">
        <ele>164.04211</ele>
        <time>2008-10-11T22:33:03Z</time>
      </trkpt>
      <trkpt lat="48.93360900" lon="8.434343000">
        <ele>161.15820</ele>
        <time>2008-10-11T22:33:08Z</time>
      </trkpt>
      <trkpt lat="48.93358600" lon="8.434497000">
        <ele>161.63891</ele>
        <time>2008-10-11T22:33:12Z</time>
      </trkpt>
      <trkpt lat="48.93355700" lon="8.434709000">
        <ele>163.56152</ele>
        <time>2008-10-11T22:33:17Z</time>
      </trkpt>
      <trkpt lat="48.93351500" lon="8.434899000">
        <ele>162.11950</ele>
        <time>2008-10-11T22:33:23Z</time>
      </trkpt>
      <trkpt lat="48.93353400" lon="8.435099000">
        <ele>164.04211</ele>
        <time>2008-10-11T22:33:28Z</time>
      </trkpt>
      <trkpt lat="48.93350800" lon="8.435264000">
        <ele>164.52270</ele>
        <time>2008-10-11T22:33:32Z</time>
      </trkpt>
      <trkpt lat="48.93351200" lon="8.435436000">
        <ele>164.52270</ele>
        <time>2008-10-11T22:33:37Z</time>
      </trkpt>
      <trkpt lat="48.93353000" lon="8.435516000">
        <ele>163.56152</ele>
        <time>2008-10-11T22:33:39Z</time>
      </trkpt>
      <trkpt lat="48.93352000" lon="8.435697000">
        <ele>165.00341</ele>
        <time>2008-10-11T22:33:44Z</time>
      </trkpt>
      <trkpt lat="48.93349500" lon="8.435980000">
        <ele>167.40673</ele>
        <time>2008-10-11T22:33:52Z</time>
      </trkpt>
      <trkpt lat="48.93346900" lon="8.436206000">
        <ele>167.88732</ele>
        <time>2008-10-11T22:33:58Z</time>
      </trkpt>
      <trkpt lat="48.93345800" lon="8.436392000">
        <ele>169.32946</ele>
        <time>2008-10-11T22:34:02Z</time>
      </trkpt>
      <trkpt lat="48.93344500" lon="8.436640000">
        <ele>169.81005</ele>
        <time>2008-10-11T22:34:09Z</time>
      </trkpt>
      <trkpt lat="48.93344200" lon="8.436837000">
        <ele>167.88732</ele>
        <time>2008-10-11T22:34:14Z</time>
      </trkpt>
      <trkpt lat="48.93343100" lon="8.437064000">
        <ele>168.84875</ele>
        <time>2008-10-11T22:34:20Z</time>
      </trkpt>
      <trkpt lat="48.93342500" lon="8.437283000">
        <ele>168.84875</ele>
        <time>2008-10-11T22:34:26Z</time>
      </trkpt>
      <trkpt lat="48.93342900" lon="8.437553000">
        <ele>169.81005</ele>
        <time>2008-10-11T22:34:33Z</time>
      </trkpt>
      <trkpt lat="48.93341700" lon="8.437709000">
        <ele>171.25207</ele>
        <time>2008-10-11T22:34:37Z</time>
      </trkpt>
      <trkpt lat="48.93340600" lon="8.437900000">
        <ele>171.73266</ele>
        <time>2008-10-11T22:34:42Z</time>
      </trkpt>
      <trkpt lat="48.93339000" lon="8.438183000">
        <ele>170.77136</ele>
        <time>2008-10-11T22:34:50Z</time>
      </trkpt>
      <trkpt lat="48.93339900" lon="8.438384000">
        <ele>170.29064</ele>
        <time>2008-10-11T22:34:55Z</time>
      </trkpt>
      <trkpt lat="48.93337700" lon="8.438581000">
        <ele>170.29064</ele>
        <time>2008-10-11T22:35:00Z</time>
      </trkpt>
      <trkpt lat="48.93335800" lon="8.438782000">
        <ele>169.32946</ele>
        <time>2008-10-11T22:35:06Z</time>
      </trkpt>
      <trkpt lat="48.93335100" lon="8.438862000">
        <ele>170.77136</ele>
        <time>2008-10-11T22:35:08Z</time>
      </trkpt>
      <trkpt lat="48.93332900" lon="8.439094000">
        <ele>170.29064</ele>
        <time>2008-10-11T22:35:14Z</time>
      </trkpt>
      <trkpt lat="48.93328500" lon="8.439278000">
        <ele>169.32946</ele>
        <time>2008-10-11T22:35:19Z</time>
      </trkpt>
      <trkpt lat="48.93325300" lon="8.439469000">
        <ele>169.32946</ele>
        <time>2008-10-11T22:35:24Z</time>
      </trkpt>
      <trkpt lat="48.93322400" lon="8.439716000">
        <ele>169.32946</ele>
        <time>2008-10-11T22:35:31Z</time>
      </trkpt>
      <trkpt lat="48.93318800" lon="8.439959000">
        <ele>168.84875</ele>
        <time>2008-10-11T22:35:37Z</time>
      </trkpt>
      <trkpt lat="48.93315500" lon="8.440140000">
        <ele>170.77136</ele>
        <time>2008-10-11T22:35:42Z</time>
      </trkpt>
      <trkpt lat="48.93311300" lon="8.440331000">
        <ele>171.73266</ele>
        <time>2008-10-11T22:35:48Z</time>
      </trkpt>
      <trkpt lat="48.93304100" lon="8.440553000">
        <ele>172.69397</ele>
        <time>2008-10-11T22:35:54Z</time>
      </trkpt>
      <trkpt lat="48.93298000" lon="8.440808000">
        <ele>173.17468</ele>
        <time>2008-10-11T22:36:01Z</time>
      </trkpt>
      <trkpt lat="48.93294000" lon="8.440980000">
        <ele>174.13586</ele>
        <time>2008-10-11T22:36:06Z</time>
      </trkpt>
      <trkpt lat="48.93291900" lon="8.441114000">
        <ele>174.13586</ele>
        <time>2008-10-11T22:36:10Z</time>
      </trkpt>
      <trkpt lat="48.93288700" lon="8.441270000">
        <ele>173.17468</ele>
        <time>2008-10-11T22:36:14Z</time>
      </trkpt>
      <trkpt lat="48.93283300" lon="8.441470000">
        <ele>174.61657</ele>
        <time>2008-10-11T22:36:20Z</time>
      </trkpt>
      <trkpt lat="48.93275100" lon="8.441703000">
        <ele>176.53930</ele>
        <time>2008-10-11T22:36:27Z</time>
      </trkpt>
      <trkpt lat="48.93269600" lon="8.441940000">
        <ele>176.53930</ele>
        <time>2008-10-11T22:36:33Z</time>
      </trkpt>
      <trkpt lat="48.93264300" lon="8.442133000">
        <ele>177.02002</ele>
        <time>2008-10-11T22:36:39Z</time>
      </trkpt>
      <trkpt lat="48.93263500" lon="8.442164000">
        <ele>177.02002</ele>
        <time>2008-10-11T22:36:40Z</time>
      </trkpt>
      <trkpt lat="48.93255700" lon="8.442347000">
        <ele>177.50061</ele>
        <time>2008-10-11T22:36:45Z</time>
      </trkpt>
      <trkpt lat="48.93238400" lon="8.442607000">
        <ele>176.53930</ele>
        <time>2008-10-11T22:36:55Z</time>
      </trkpt>
      <trkpt lat="48.93230400" lon="8.442701000">
        <ele>176.53930</ele>
        <time>2008-10-11T22:36:59Z</time>
      </trkpt>
      <trkpt lat="48.93220300" lon="8.442824000">
        <ele>176.53930</ele>
        <time>2008-10-11T22:37:04Z</time>
      </trkpt>
      <trkpt lat="48.93206900" lon="8.442969000">
        <ele>176.05859</ele>
        <time>2008-10-11T22:37:11Z</time>
      </trkpt>
      <trkpt lat="48.93196800" lon="8.443077000">
        <ele>174.13586</ele>
        <time>2008-10-11T22:37:16Z</time>
      </trkpt>
      <trkpt lat="48.93186600" lon="8.443248000">
        <ele>174.13586</ele>
        <time>2008-10-11T22:37:22Z</time>
      </trkpt>
      <trkpt lat="48.93176300" lon="8.443422000">
        <ele>176.53930</ele>
        <time>2008-10-11T22:37:28Z</time>
      </trkpt>
      <trkpt lat="48.93167700" lon="8.443563000">
        <ele>177.98120</ele>
        <time>2008-10-11T22:37:33Z</time>
      </trkpt>
      <trkpt lat="48.93153800" lon="8.443749000">
        <ele>179.90380</ele>
        <time>2008-10-11T22:37:40Z</time>
      </trkpt>
      <trkpt lat="48.93143400" lon="8.443908000">
        <ele>180.86523</ele>
        <time>2008-10-11T22:37:46Z</time>
      </trkpt>
      <trkpt lat="48.93131400" lon="8.444036000">
        <ele>178.46191</ele>
        <time>2008-10-11T22:37:52Z</time>
      </trkpt>
      <trkpt lat="48.93120500" lon="8.444110000">
        <ele>176.05859</ele>
        <time>2008-10-11T22:37:57Z</time>
      </trkpt>
      <trkpt lat="48.93110300" lon="8.444171000">
        <ele>172.69397</ele>
        <time>2008-10-11T22:38:01Z</time>
      </trkpt>
      <trkpt lat="48.93102700" lon="8.444207000">
        <ele>171.25207</ele>
        <time>2008-10-11T22:38:05Z</time>
      </trkpt>
      <trkpt lat="48.93084500" lon="8.444368000">
        <ele>172.21325</ele>
        <time>2008-10-11T22:38:13Z</time>
      </trkpt>
      <trkpt lat="48.93067700" lon="8.444500000">
        <ele>175.09729</ele>
        <time>2008-10-11T22:38:21Z</time>
      </trkpt>
      <trkpt lat="48.93051500" lon="8.444580000">
        <ele>180.86523</ele>
        <time>2008-10-11T22:38:27Z</time>
      </trkpt>
      <trkpt lat="48.93033200" lon="8.444634000">
        <ele>180.86523</ele>
        <time>2008-10-11T22:38:35Z</time>
      </trkpt>
      <trkpt lat="48.93021500" lon="8.444640000">
        <ele>178.46191</ele>
        <time>2008-10-11T22:38:40Z</time>
      </trkpt>
      <trkpt lat="48.93008200" lon="8.444660000">
        <ele>179.42321</ele>
        <time>2008-10-11T22:38:45Z</time>
      </trkpt>
      <trkpt lat="48.92996200" lon="8.444717000">
        <ele>181.34582</ele>
        <time>2008-10-11T22:38:50Z</time>
      </trkpt>
      <trkpt lat="48.92986800" lon="8.444817000">
        <ele>183.74902</ele>
        <time>2008-10-11T22:38:55Z</time>
      </trkpt>
      <trkpt lat="48.92980300" lon="8.444918000">
        <ele>186.63317</ele>
        <time>2008-10-11T22:38:58Z</time>
      </trkpt>
      <trkpt lat="48.92976200" lon="8.445008000">
        <ele>189.03637</ele>
        <time>2008-10-11T22:39:01Z</time>
      </trkpt>
      <trkpt lat="48.92964100" lon="8.445119000">
        <ele>190.47839</ele>
        <time>2008-10-11T22:39:07Z</time>
      </trkpt>
      <trkpt lat="48.92947000" lon="8.445291000">
        <ele>190.47839</ele>
        <time>2008-10-11T22:39:15Z</time>
      </trkpt>
      <trkpt lat="48.92936900" lon="8.445367000">
        <ele>190.95898</ele>
        <time>2008-10-11T22:39:19Z</time>
      </trkpt>
      <trkpt lat="48.92927200" lon="8.445441000">
        <ele>190.95898</ele>
        <time>2008-10-11T22:39:24Z</time>
      </trkpt>
      <trkpt lat="48.92910600" lon="8.445527000">
        <ele>191.92028</ele>
        <time>2008-10-11T22:39:31Z</time>
      </trkpt>
      <trkpt lat="48.92898000" lon="8.445578000">
        <ele>190.95898</ele>
        <time>2008-10-11T22:39:36Z</time>
      </trkpt>
      <trkpt lat="48.92888300" lon="8.445628000">
        <ele>191.92028</ele>
        <time>2008-10-11T22:39:40Z</time>
      </trkpt>
      <trkpt lat="48.92880300" lon="8.445685000">
        <ele>193.36230</ele>
        <time>2008-10-11T22:39:44Z</time>
      </trkpt>
      <trkpt lat="48.92866400" lon="8.445753000">
        <ele>193.36230</ele>
        <time>2008-10-11T22:39:50Z</time>
      </trkpt>
      <trkpt lat="48.92857600" lon="8.445768000">
        <ele>192.88171</ele>
        <time>2008-10-11T22:39:53Z</time>
      </trkpt>
      <trkpt lat="48.92838100" lon="8.445880000">
        <ele>194.80432</ele>
        <time>2008-10-11T22:40:01Z</time>
      </trkpt>
      <trkpt lat="48.92823900" lon="8.445984000">
        <ele>196.72692</ele>
        <time>2008-10-11T22:40:08Z</time>
      </trkpt>
      <trkpt lat="48.92814600" lon="8.445990000">
        <ele>196.72692</ele>
        <time>2008-10-11T22:40:11Z</time>
      </trkpt>
      <trkpt lat="48.92797500" lon="8.446044000">
        <ele>196.72692</ele>
        <time>2008-10-11T22:40:18Z</time>
      </trkpt>
      <trkpt lat="48.92786100" lon="8.446081000">
        <ele>196.24633</ele>
        <time>2008-10-11T22:40:23Z</time>
      </trkpt>
      <trkpt lat="48.92771400" lon="8.446124000">
        <ele>194.32373</ele>
        <time>2008-10-11T22:40:29Z</time>
      </trkpt>
      <trkpt lat="48.92757900" lon="8.446157000">
        <ele>192.88171</ele>
        <time>2008-10-11T22:40:35Z</time>
      </trkpt>
      <trkpt lat="48.92746200" lon="8.446243000">
        <ele>194.32373</ele>
        <time>2008-10-11T22:40:40Z</time>
      </trkpt>
      <trkpt lat="48.92730900" lon="8.446373000">
        <ele>196.24633</ele>
        <time>2008-10-11T22:40:47Z</time>
      </trkpt>
      <trkpt lat="48.92726100" lon="8.446420000">
        <ele>197.20752</ele>
        <time>2008-10-11T22:40:49Z</time>
      </trkpt>
      <trkpt lat="48.92717600" lon="8.446480000">
        <ele>196.72692</ele>
        <time>2008-10-11T22:40:53Z</time>
      </trkpt>
      <trkpt lat="48.92706000" lon="8.446592000">
        <ele>197.20752</ele>
        <time>2008-10-11T22:40:58Z</time>
      </trkpt>
      <trkpt lat="48.92688300" lon="8.446771000">
        <ele>196.72692</ele>
        <time>2008-10-11T22:41:07Z</time>
      </trkpt>
      <trkpt lat="48.92673100" lon="8.446909000">
        <ele>194.80432</ele>
        <time>2008-10-11T22:41:14Z</time>
      </trkpt>
      <trkpt lat="48.92664200" lon="8.447012000">
        <ele>195.76562</ele>
        <time>2008-10-11T22:41:18Z</time>
      </trkpt>
      <trkpt lat="48.92652800" lon="8.447128000">
        <ele>196.24633</ele>
        <time>2008-10-11T22:41:24Z</time>
      </trkpt>
      <trkpt lat="48.92633100" lon="8.447351000">
        <ele>199.13012</ele>
        <time>2008-10-11T22:41:34Z</time>
      </trkpt>
      <trkpt lat="48.92623900" lon="8.447449000">
        <ele>198.16894</ele>
        <time>2008-10-11T22:41:38Z</time>
      </trkpt>
      <trkpt lat="48.92612400" lon="8.447545000">
        <ele>198.64953</ele>
        <time>2008-10-11T22:41:43Z</time>
      </trkpt>
      <trkpt lat="48.92596800" lon="8.447670000">
        <ele>201.53356</ele>
        <time>2008-10-11T22:41:51Z</time>
      </trkpt>
      <trkpt lat="48.92586800" lon="8.447720000">
        <ele>200.57226</ele>
        <time>2008-10-11T22:41:55Z</time>
      </trkpt>
      <trkpt lat="48.92572100" lon="8.447799000">
        <ele>196.24633</ele>
        <time>2008-10-11T22:42:01Z</time>
      </trkpt>
      <trkpt lat="48.92555600" lon="8.447940000">
        <ele>196.24633</ele>
        <time>2008-10-11T22:42:09Z</time>
      </trkpt>
      <trkpt lat="48.92544200" lon="8.448026000">
        <ele>195.76562</ele>
        <time>2008-10-11T22:42:14Z</time>
      </trkpt>
      <trkpt lat="48.92530900" lon="8.448111000">
        <ele>193.84301</ele>
        <time>2008-10-11T22:42:19Z</time>
      </trkpt>
      <trkpt lat="48.92515900" lon="8.448224000">
        <ele>195.28491</ele>
        <time>2008-10-11T22:42:26Z</time>
      </trkpt>
      <trkpt lat="48.92501900" lon="8.448313000">
        <ele>193.84301</ele>
        <time>2008-10-11T22:42:32Z</time>
      </trkpt>
      <trkpt lat="48.92485200" lon="8.448469000">
        <ele>196.24633</ele>
        <time>2008-10-11T22:42:40Z</time>
      </trkpt>
      <trkpt lat="48.92480600" lon="8.448502000">
        <ele>196.72692</ele>
        <time>2008-10-11T22:42:42Z</time>
      </trkpt>
      <trkpt lat="48.92478000" lon="8.448522000">
        <ele>197.68823</ele>
        <time>2008-10-11T22:42:43Z</time>
      </trkpt>
      <trkpt lat="48.92467800" lon="8.448543000">
        <ele>193.84301</ele>
        <time>2008-10-11T22:42:47Z</time>
      </trkpt>
      <trkpt lat="48.92466300" lon="8.448553000">
        <ele>193.36230</ele>
        <time>2008-10-11T22:42:48Z</time>
      </trkpt>
      <trkpt lat="48.92448800" lon="8.448649000">
        <ele>188.07507</ele>
        <time>2008-10-11T22:42:55Z</time>
      </trkpt>
      <trkpt lat="48.92438700" lon="8.448672000">
        <ele>182.78784</ele>
        <time>2008-10-11T22:43:00Z</time>
      </trkpt>
      <trkpt lat="48.92429000" lon="8.448727000">
        <ele>182.30712</ele>
        <time>2008-10-11T22:43:04Z</time>
      </trkpt>
      <trkpt lat="48.92415600" lon="8.448817000">
        <ele>181.82641</ele>
        <time>2008-10-11T22:43:10Z</time>
      </trkpt>
      <trkpt lat="48.92398300" lon="8.448955000">
        <ele>184.22985</ele>
        <time>2008-10-11T22:43:17Z</time>
      </trkpt>
      <trkpt lat="48.92379300" lon="8.449122000">
        <ele>190.47839</ele>
        <time>2008-10-11T22:43:26Z</time>
      </trkpt>
      <trkpt lat="48.92374100" lon="8.449182000">
        <ele>192.88171</ele>
        <time>2008-10-11T22:43:29Z</time>
      </trkpt>
      <trkpt lat="48.92359200" lon="8.449315000">
        <ele>195.76562</ele>
        <time>2008-10-11T22:43:36Z</time>
      </trkpt>
      <trkpt lat="48.92340800" lon="8.449451000">
        <ele>197.20752</ele>
        <time>2008-10-11T22:43:44Z</time>
      </trkpt>
      <trkpt lat="48.92338600" lon="8.449459000">
        <ele>197.68823</ele>
        <time>2008-10-11T22:43:45Z</time>
      </trkpt>
      <trkpt lat="48.92327200" lon="8.449541000">
        <ele>202.49487</ele>
        <time>2008-10-11T22:43:50Z</time>
      </trkpt>
      <trkpt lat="48.92318400" lon="8.449562000">
        <ele>202.49487</ele>
        <time>2008-10-11T22:43:53Z</time>
      </trkpt>
      <trkpt lat="48.92303700" lon="8.449603000">
        <ele>198.16894</ele>
        <time>2008-10-11T22:43:59Z</time>
      </trkpt>
      <trkpt lat="48.92286000" lon="8.449738000">
        <ele>192.40112</ele>
        <time>2008-10-11T22:44:07Z</time>
      </trkpt>
      <trkpt lat="48.92272100" lon="8.449819000">
        <ele>191.92028</ele>
        <time>2008-10-11T22:44:13Z</time>
      </trkpt>
      <trkpt lat="48.92255700" lon="8.449887000">
        <ele>188.07507</ele>
        <time>2008-10-11T22:44:20Z</time>
      </trkpt>
      <trkpt lat="48.92243700" lon="8.449935000">
        <ele>187.11377</ele>
        <time>2008-10-11T22:44:25Z</time>
      </trkpt>
      <trkpt lat="48.92229300" lon="8.450009000">
        <ele>186.15246</ele>
        <time>2008-10-11T22:44:31Z</time>
      </trkpt>
      <trkpt lat="48.92216400" lon="8.450069000">
        <ele>187.59436</ele>
        <time>2008-10-11T22:44:37Z</time>
      </trkpt>
      <trkpt lat="48.92204800" lon="8.450123000">
        <ele>188.55578</ele>
        <time>2008-10-11T22:44:41Z</time>
      </trkpt>
      <trkpt lat="48.92192100" lon="8.450187000">
        <ele>189.51696</ele>
        <time>2008-10-11T22:44:47Z</time>
      </trkpt>
      <trkpt lat="48.92179800" lon="8.450253000">
        <ele>191.92028</ele>
        <time>2008-10-11T22:44:52Z</time>
      </trkpt>
      <trkpt lat="48.92169900" lon="8.450311000">
        <ele>192.40112</ele>
        <time>2008-10-11T22:44:56Z</time>
      </trkpt>
      <trkpt lat="48.92159600" lon="8.450400000">
        <ele>195.76562</ele>
        <time>2008-10-11T22:45:01Z</time>
      </trkpt>
      <trkpt lat="48.92147500" lon="8.450489000">
        <ele>197.20752</ele>
        <time>2008-10-11T22:45:06Z</time>
      </trkpt>
      <trkpt lat="48.92134900" lon="8.450534000">
        <ele>192.88171</ele>
        <time>2008-10-11T22:45:12Z</time>
      </trkpt>
      <trkpt lat="48.92118200" lon="8.450693000">
        <ele>192.88171</ele>
        <time>2008-10-11T22:45:19Z</time>
      </trkpt>
      <trkpt lat="48.92108800" lon="8.450772000">
        <ele>189.99768</ele>
        <time>2008-10-11T22:45:24Z</time>
      </trkpt>
      <trkpt lat="48.92095800" lon="8.450877000">
        <ele>190.95898</ele>
        <time>2008-10-11T22:45:30Z</time>
      </trkpt>
      <trkpt lat="48.92076700" lon="8.451025000">
        <ele>189.99768</ele>
        <time>2008-10-11T22:45:38Z</time>
      </trkpt>
      <trkpt lat="48.92064200" lon="8.451110000">
        <ele>189.51696</ele>
        <time>2008-10-11T22:45:44Z</time>
      </trkpt>
      <trkpt lat="48.92062100" lon="8.451123000">
        <ele>189.51696</ele>
        <time>2008-10-11T22:45:45Z</time>
      </trkpt>
      <trkpt lat="48.92048600" lon="8.451232000">
        <ele>187.59436</ele>
        <time>2008-10-11T22:45:51Z</time>
      </trkpt>
      <trkpt lat="48.92037600" lon="8.451332000">
        <ele>188.07507</ele>
        <time>2008-10-11T22:45:56Z</time>
      </trkpt>
      <trkpt lat="48.92026100" lon="8.451427000">
        <ele>189.03637</ele>
        <time>2008-10-11T22:46:01Z</time>
      </trkpt>
      <trkpt lat="48.92023300" lon="8.451461000">
        <ele>189.99768</ele>
        <time>2008-10-11T22:46:02Z</time>
      </trkpt>
      <trkpt lat="48.92015400" lon="8.451544000">
        <ele>193.36230</ele>
        <time>2008-10-11T22:46:06Z</time>
      </trkpt>
      <trkpt lat="48.92001200" lon="8.451642000">
        <ele>193.84301</ele>
        <time>2008-10-11T22:46:13Z</time>
      </trkpt>
      <trkpt lat="48.91997300" lon="8.451730000">
        <ele>192.88171</ele>
        <time>2008-10-11T22:46:15Z</time>
      </trkpt>
      <trkpt lat="48.91988700" lon="8.451908000">
        <ele>191.92028</ele>
        <time>2008-10-11T22:46:21Z</time>
      </trkpt>
      <trkpt lat="48.91973400" lon="8.452166000">
        <ele>191.92028</ele>
        <time>2008-10-11T22:46:30Z</time>
      </trkpt>
      <trkpt lat="48.91970800" lon="8.452301000">
        <ele>194.80432</ele>
        <time>2008-10-11T22:46:34Z</time>
      </trkpt>
      <trkpt lat="48.91961400" lon="8.452466000">
        <ele>195.76562</ele>
        <time>2008-10-11T22:46:40Z</time>
      </trkpt>
      <trkpt lat="48.91943500" lon="8.452617000">
        <ele>192.40112</ele>
        <time>2008-10-11T22:46:48Z</time>
      </trkpt>
      <trkpt lat="48.91928700" lon="8.452652000">
        <ele>191.92028</ele>
        <time>2008-10-11T22:46:54Z</time>
      </trkpt>
      <trkpt lat="48.91913500" lon="8.452649000">
        <ele>193.36230</ele>
        <time>2008-10-11T22:47:00Z</time>
      </trkpt>
      <trkpt lat="48.91901300" lon="8.452635000">
        <ele>192.88171</ele>
        <time>2008-10-11T22:47:05Z</time>
      </trkpt>
      <trkpt lat="48.91888600" lon="8.452608000">
        <ele>191.92028</ele>
        <time>2008-10-11T22:47:10Z</time>
      </trkpt>
      <trkpt lat="48.91872500" lon="8.452489000">
        <ele>189.03637</ele>
        <time>2008-10-11T22:47:17Z</time>
      </trkpt>
      <trkpt lat="48.91858100" lon="8.452443000">
        <ele>188.55578</ele>
        <time>2008-10-11T22:47:23Z</time>
      </trkpt>
      <trkpt lat="48.91846400" lon="8.452410000">
        <ele>189.03637</ele>
        <time>2008-10-11T22:47:28Z</time>
      </trkpt>
      <trkpt lat="48.91838200" lon="8.452370000">
        <ele>187.59436</ele>
        <time>2008-10-11T22:47:31Z</time>
      </trkpt>
      <trkpt lat="48.91827300" lon="8.452270000">
        <ele>187.59436</ele>
        <time>2008-10-11T22:47:36Z</time>
      </trkpt>
      <trkpt lat="48.91821500" lon="8.452251000">
        <ele>188.07507</ele>
        <time>2008-10-11T22:47:39Z</time>
      </trkpt>
      <trkpt lat="48.91803000" lon="8.452205000">
        <ele>189.99768</ele>
        <time>2008-10-11T22:47:46Z</time>
      </trkpt>
      <trkpt lat="48.91787500" lon="8.452186000">
        <ele>190.95898</ele>
        <time>2008-10-11T22:47:53Z</time>
      </trkpt>
      <trkpt lat="48.91774300" lon="8.452184000">
        <ele>190.95898</ele>
        <time>2008-10-11T22:47:58Z</time>
      </trkpt>
      <trkpt lat="48.91758700" lon="8.452246000">
        <ele>192.88171</ele>
        <time>2008-10-11T22:48:04Z</time>
      </trkpt>
      <trkpt lat="48.91746100" lon="8.452288000">
        <ele>195.28491</ele>
        <time>2008-10-11T22:48:09Z</time>
      </trkpt>
      <trkpt lat="48.91735900" lon="8.452317000">
        <ele>197.20752</ele>
        <time>2008-10-11T22:48:14Z</time>
      </trkpt>
      <trkpt lat="48.91725300" lon="8.452316000">
        <ele>196.72692</ele>
        <time>2008-10-11T22:48:18Z</time>
      </trkpt>
      <trkpt lat="48.91709200" lon="8.452444000">
        <ele>200.57226</ele>
        <time>2008-10-11T22:48:25Z</time>
      </trkpt>
      <trkpt lat="48.91689400" lon="8.452535000">
        <ele>199.61084</ele>
        <time>2008-10-11T22:48:33Z</time>
      </trkpt>
      <trkpt lat="48.91679600" lon="8.452557000">
        <ele>198.64953</ele>
        <time>2008-10-11T22:48:37Z</time>
      </trkpt>
      <trkpt lat="48.91665800" lon="8.452604000">
        <ele>194.32373</ele>
        <time>2008-10-11T22:48:43Z</time>
      </trkpt>
      <trkpt lat="48.91664000" lon="8.452605000">
        <ele>192.88171</ele>
        <time>2008-10-11T22:48:44Z</time>
      </trkpt>
      <trkpt lat="48.91654200" lon="8.452667000">
        <ele>193.84301</ele>
        <time>2008-10-11T22:48:48Z</time>
      </trkpt>
      <trkpt lat="48.91640600" lon="8.452770000">
        <ele>193.84301</ele>
        <time>2008-10-11T22:48:54Z</time>
      </trkpt>
      <trkpt lat="48.91620800" lon="8.452882000">
        <ele>193.36230</ele>
        <time>2008-10-11T22:49:02Z</time>
      </trkpt>
      <trkpt lat="48.91596900" lon="8.453036000">
        <ele>196.72692</ele>
        <time>2008-10-11T22:49:13Z</time>
      </trkpt>
      <trkpt lat="48.91585300" lon="8.453019000">
        <ele>197.20752</ele>
        <time>2008-10-11T22:49:18Z</time>
      </trkpt>
      <trkpt lat="48.91576400" lon="8.452998000">
        <ele>194.32373</ele>
        <time>2008-10-11T22:49:21Z</time>
      </trkpt>
      <trkpt lat="48.91554400" lon="8.453014000">
        <ele>190.47839</ele>
        <time>2008-10-11T22:49:30Z</time>
      </trkpt>
      <trkpt lat="48.91535400" lon="8.453062000">
        <ele>191.92028</ele>
        <time>2008-10-11T22:49:38Z</time>
      </trkpt>
      <trkpt lat="48.91522900" lon="8.453064000">
        <ele>188.07507</ele>
        <time>2008-10-11T22:49:43Z</time>
      </trkpt>
      <trkpt lat="48.91507100" lon="8.453121000">
        <ele>189.03637</ele>
        <time>2008-10-11T22:49:49Z</time>
      </trkpt>
      <trkpt lat="48.91499400" lon="8.453124000">
        <ele>189.99768</ele>
        <time>2008-10-11T22:49:52Z</time>
      </trkpt>
      <trkpt lat="48.91485600" lon="8.453128000">
        <ele>191.92028</ele>
        <time>2008-10-11T22:49:58Z</time>
      </trkpt>
      <trkpt lat="48.91467000" lon="8.453138000">
        <ele>191.92028</ele>
        <time>2008-10-11T22:50:05Z</time>
      </trkpt>
      <trkpt lat="48.91457000" lon="8.453128000">
        <ele>191.43957</ele>
        <time>2008-10-11T22:50:09Z</time>
      </trkpt>
      <trkpt lat="48.91442700" lon="8.453177000">
        <ele>193.36230</ele>
        <time>2008-10-11T22:50:15Z</time>
      </trkpt>
      <trkpt lat="48.91427700" lon="8.453182000">
        <ele>193.36230</ele>
        <time>2008-10-11T22:50:21Z</time>
      </trkpt>
      <trkpt lat="48.91414800" lon="8.453180000">
        <ele>192.88171</ele>
        <time>2008-10-11T22:50:26Z</time>
      </trkpt>
      <trkpt lat="48.91398800" lon="8.453216000">
        <ele>194.80432</ele>
        <time>2008-10-11T22:50:33Z</time>
      </trkpt>
      <trkpt lat="48.91380900" lon="8.453273000">
        <ele>198.16894</ele>
        <time>2008-10-11T22:50:40Z</time>
      </trkpt>
      <trkpt lat="48.91366600" lon="8.453232000">
        <ele>195.76562</ele>
        <time>2008-10-11T22:50:46Z</time>
      </trkpt>
      <trkpt lat="48.91355400" lon="8.453245000">
        <ele>196.24633</ele>
        <time>2008-10-11T22:50:50Z</time>
      </trkpt>
      <trkpt lat="48.91342600" lon="8.453288000">
        <ele>196.72692</ele>
        <time>2008-10-11T22:50:56Z</time>
      </trkpt>
      <trkpt lat="48.91332400" lon="8.453284000">
        <ele>196.24633</ele>
        <time>2008-10-11T22:51:00Z</time>
      </trkpt>
      <trkpt lat="48.91316600" lon="8.453295000">
        <ele>196.24633</ele>
        <time>2008-10-11T22:51:06Z</time>
      </trkpt>
      <trkpt lat="48.91301600" lon="8.453367000">
        <ele>197.68823</ele>
        <time>2008-10-11T22:51:12Z</time>
      </trkpt>
      <trkpt lat="48.91293000" lon="8.453326000">
        <ele>196.24633</ele>
        <time>2008-10-11T22:51:16Z</time>
      </trkpt>
      <trkpt lat="48.91278900" lon="8.453302000">
        <ele>193.36230</ele>
        <time>2008-10-11T22:51:22Z</time>
      </trkpt>
      <trkpt lat="48.91266800" lon="8.453220000">
        <ele>192.40112</ele>
        <time>2008-10-11T22:51:27Z</time>
      </trkpt>
      <trkpt lat="48.91252600" lon="8.453086000">
        <ele>191.92028</ele>
        <time>2008-10-11T22:51:34Z</time>
      </trkpt>
      <trkpt lat="48.91239500" lon="8.452941000">
        <ele>191.43957</ele>
        <time>2008-10-11T22:51:40Z</time>
      </trkpt>
      <trkpt lat="48.91231300" lon="8.452875000">
        <ele>191.92028</ele>
        <time>2008-10-11T22:51:44Z</time>
      </trkpt>
      <trkpt lat="48.91226900" lon="8.452814000">
        <ele>191.43957</ele>
        <time>2008-10-11T22:51:46Z</time>
      </trkpt>
      <trkpt lat="48.91208500" lon="8.452658000">
        <ele>197.20752</ele>
        <time>2008-10-11T22:51:55Z</time>
      </trkpt>
      <trkpt lat="48.91199300" lon="8.452562000">
        <ele>196.24633</ele>
        <time>2008-10-11T22:51:59Z</time>
      </trkpt>
      <trkpt lat="48.91187900" lon="8.452412000">
        <ele>194.80432</ele>
        <time>2008-10-11T22:52:05Z</time>
      </trkpt>
      <trkpt lat="48.91176900" lon="8.452287000">
        <ele>193.84301</ele>
        <time>2008-10-11T22:52:11Z</time>
      </trkpt>
      <trkpt lat="48.91161600" lon="8.452172000">
        <ele>193.36230</ele>
        <time>2008-10-11T22:52:17Z</time>
      </trkpt>
      <trkpt lat="48.91149900" lon="8.452043000">
        <ele>199.61084</ele>
        <time>2008-10-11T22:52:23Z</time>
      </trkpt>
      <trkpt lat="48.91138600" lon="8.451878000">
        <ele>202.01428</ele>
        <time>2008-10-11T22:52:30Z</time>
      </trkpt>
      <trkpt lat="48.91127400" lon="8.451815000">
        <ele>202.97546</ele>
        <time>2008-10-11T22:52:34Z</time>
      </trkpt>
      <trkpt lat="48.91112200" lon="8.451705000">
        <ele>202.97546</ele>
        <time>2008-10-11T22:52:41Z</time>
      </trkpt>
      <trkpt lat="48.91104700" lon="8.451619000">
        <ele>202.97546</ele>
        <time>2008-10-11T22:52:45Z</time>
      </trkpt>
      <trkpt lat="48.91092300" lon="8.451555000">
        <ele>202.97546</ele>
        <time>2008-10-11T22:52:50Z</time>
      </trkpt>
      <trkpt lat="48.91085500" lon="8.451509000">
        <ele>202.49487</ele>
        <time>2008-10-11T22:52:53Z</time>
      </trkpt>
      <trkpt lat="48.91069200" lon="8.451513000">
        <ele>203.93689</ele>
        <time>2008-10-11T22:53:00Z</time>
      </trkpt>
      <trkpt lat="48.91050500" lon="8.451540000">
        <ele>204.89807</ele>
        <time>2008-10-11T22:53:07Z</time>
      </trkpt>
      <trkpt lat="48.91034200" lon="8.451533000">
        <ele>202.97546</ele>
        <time>2008-10-11T22:53:14Z</time>
      </trkpt>
      <trkpt lat="48.91023800" lon="8.451465000">
        <ele>200.09167</ele>
        <time>2008-10-11T22:53:18Z</time>
      </trkpt>
      <trkpt lat="48.91021800" lon="8.451295000">
        <ele>196.72692</ele>
        <time>2008-10-11T22:53:23Z</time>
      </trkpt>
      <trkpt lat="48.91007800" lon="8.451243000">
        <ele>195.28491</ele>
        <time>2008-10-11T22:53:28Z</time>
      </trkpt>
      <trkpt lat="48.90992200" lon="8.451282000">
        <ele>197.68823</ele>
        <time>2008-10-11T22:53:35Z</time>
      </trkpt>
      <trkpt lat="48.90980400" lon="8.451325000">
        <ele>200.57226</ele>
        <time>2008-10-11T22:53:40Z</time>
      </trkpt>
      <trkpt lat="48.90966400" lon="8.451340000">
        <ele>200.57226</ele>
        <time>2008-10-11T22:53:45Z</time>
      </trkpt>
      <trkpt lat="48.90953200" lon="8.451368000">
        <ele>200.09167</ele>
        <time>2008-10-11T22:53:51Z</time>
      </trkpt>
      <trkpt lat="48.90936800" lon="8.451449000">
        <ele>200.57226</ele>
        <time>2008-10-11T22:53:57Z</time>
      </trkpt>
      <trkpt lat="48.90920600" lon="8.451514000">
        <ele>199.61084</ele>
        <time>2008-10-11T22:54:04Z</time>
      </trkpt>
      <trkpt lat="48.90913700" lon="8.451545000">
        <ele>201.05285</ele>
        <time>2008-10-11T22:54:07Z</time>
      </trkpt>
      <trkpt lat="48.90903500" lon="8.451560000">
        <ele>201.53356</ele>
        <time>2008-10-11T22:54:11Z</time>
      </trkpt>
      <trkpt lat="48.90901000" lon="8.451560000">
        <ele>201.05285</ele>
        <time>2008-10-11T22:54:12Z</time>
      </trkpt>
      <trkpt lat="48.90885900" lon="8.451610000">
        <ele>198.64953</ele>
        <time>2008-10-11T22:54:18Z</time>
      </trkpt>
      <trkpt lat="48.90868000" lon="8.451712000">
        <ele>199.61084</ele>
        <time>2008-10-11T22:54:26Z</time>
      </trkpt>
      <trkpt lat="48.90846900" lon="8.451868000">
        <ele>203.45617</ele>
        <time>2008-10-11T22:54:35Z</time>
      </trkpt>
      <trkpt lat="48.90839000" lon="8.451912000">
        <ele>204.41748</ele>
        <time>2008-10-11T22:54:39Z</time>
      </trkpt>
      <trkpt lat="48.90832900" lon="8.451950000">
        <ele>205.37878</ele>
        <time>2008-10-11T22:54:41Z</time>
      </trkpt>
      <trkpt lat="48.90823700" lon="8.452021000">
        <ele>204.89807</ele>
        <time>2008-10-11T22:54:46Z</time>
      </trkpt>
      <trkpt lat="48.90820900" lon="8.452036000">
        <ele>204.89807</ele>
        <time>2008-10-11T22:54:47Z</time>
      </trkpt>
      <trkpt lat="48.90803900" lon="8.452140000">
        <ele>206.82067</ele>
        <time>2008-10-11T22:54:54Z</time>
      </trkpt>
      <trkpt lat="48.90783300" lon="8.452257000">
        <ele>204.89807</ele>
        <time>2008-10-11T22:55:03Z</time>
      </trkpt>
      <trkpt lat="48.90769100" lon="8.452311000">
        <ele>203.93689</ele>
        <time>2008-10-11T22:55:09Z</time>
      </trkpt>
      <trkpt lat="48.90753000" lon="8.452400000">
        <ele>202.97546</ele>
        <time>2008-10-11T22:55:16Z</time>
      </trkpt>
      <trkpt lat="48.90738700" lon="8.452445000">
        <ele>202.49487</ele>
        <time>2008-10-11T22:55:21Z</time>
      </trkpt>
      <trkpt lat="48.90726500" lon="8.452484000">
        <ele>202.97546</ele>
        <time>2008-10-11T22:55:26Z</time>
      </trkpt>
      <trkpt lat="48.90714000" lon="8.452552000">
        <ele>205.37878</ele>
        <time>2008-10-11T22:55:32Z</time>
      </trkpt>
      <trkpt lat="48.90694900" lon="8.452649000">
        <ele>209.70483</ele>
        <time>2008-10-11T22:55:40Z</time>
      </trkpt>
      <trkpt lat="48.90678200" lon="8.452726000">
        <ele>214.99194</ele>
        <time>2008-10-11T22:55:47Z</time>
      </trkpt>
      <trkpt lat="48.90667600" lon="8.452739000">
        <ele>215.95324</ele>
        <time>2008-10-11T22:55:51Z</time>
      </trkpt>
      <trkpt lat="48.90653800" lon="8.452785000">
        <ele>217.87597</ele>
        <time>2008-10-11T22:55:57Z</time>
      </trkpt>
      <trkpt lat="48.90637100" lon="8.452841000">
        <ele>219.31799</ele>
        <time>2008-10-11T22:56:04Z</time>
      </trkpt>
      <trkpt lat="48.90624800" lon="8.452887000">
        <ele>219.31799</ele>
        <time>2008-10-11T22:56:09Z</time>
      </trkpt>
      <trkpt lat="48.90619300" lon="8.452916000">
        <ele>219.31799</ele>
        <time>2008-10-11T22:56:11Z</time>
      </trkpt>
      <trkpt lat="48.90600500" lon="8.452964000">
        <ele>212.58862</ele>
        <time>2008-10-11T22:56:19Z</time>
      </trkpt>
      <trkpt lat="48.90581100" lon="8.453007000">
        <ele>212.58862</ele>
        <time>2008-10-11T22:56:26Z</time>
      </trkpt>
      <trkpt lat="48.90566200" lon="8.453064000">
        <ele>213.55004</ele>
        <time>2008-10-11T22:56:33Z</time>
      </trkpt>
      <trkpt lat="48.90553700" lon="8.453093000">
        <ele>213.55004</ele>
        <time>2008-10-11T22:56:38Z</time>
      </trkpt>
      <trkpt lat="48.90540400" lon="8.453119000">
        <ele>208.26281</ele>
        <time>2008-10-11T22:56:43Z</time>
      </trkpt>
      <trkpt lat="48.90523900" lon="8.453169000">
        <ele>209.22412</ele>
        <time>2008-10-11T22:56:50Z</time>
      </trkpt>
      <trkpt lat="48.90505800" lon="8.453206000">
        <ele>206.34008</ele>
        <time>2008-10-11T22:56:57Z</time>
      </trkpt>
      <trkpt lat="48.90493300" lon="8.453185000">
        <ele>208.26281</ele>
        <time>2008-10-11T22:57:02Z</time>
      </trkpt>
      <trkpt lat="48.90481200" lon="8.453190000">
        <ele>206.34008</ele>
        <time>2008-10-11T22:57:07Z</time>
      </trkpt>
      <trkpt lat="48.90470500" lon="8.453130000">
        <ele>204.89807</ele>
        <time>2008-10-11T22:57:11Z</time>
      </trkpt>
      <trkpt lat="48.90455000" lon="8.453154000">
        <ele>208.26281</ele>
        <time>2008-10-11T22:57:18Z</time>
      </trkpt>
      <trkpt lat="48.90435000" lon="8.453251000">
        <ele>211.14672</ele>
        <time>2008-10-11T22:57:26Z</time>
      </trkpt>
      <trkpt lat="48.90422300" lon="8.453226000">
        <ele>208.26281</ele>
        <time>2008-10-11T22:57:31Z</time>
      </trkpt>
      <trkpt lat="48.90411800" lon="8.453163000">
        <ele>205.37878</ele>
        <time>2008-10-11T22:57:36Z</time>
      </trkpt>
      <trkpt lat="48.90397400" lon="8.453128000">
        <ele>203.93689</ele>
        <time>2008-10-11T22:57:42Z</time>
      </trkpt>
      <trkpt lat="48.90382500" lon="8.453092000">
        <ele>202.49487</ele>
        <time>2008-10-11T22:57:48Z</time>
      </trkpt>
      <trkpt lat="48.90379300" lon="8.453091000">
        <ele>202.97546</ele>
        <time>2008-10-11T22:57:49Z</time>
      </trkpt>
      <trkpt lat="48.90367400" lon="8.452998000">
        <ele>200.57226</ele>
        <time>2008-10-11T22:57:54Z</time>
      </trkpt>
      <trkpt lat="48.90355200" lon="8.452902000">
        <ele>197.68823</ele>
        <time>2008-10-11T22:58:00Z</time>
      </trkpt>
      <trkpt lat="48.90345300" lon="8.452850000">
        <ele>197.68823</ele>
        <time>2008-10-11T22:58:04Z</time>
      </trkpt>
      <trkpt lat="48.90337600" lon="8.452730000">
        <ele>199.13012</ele>
        <time>2008-10-11T22:58:08Z</time>
      </trkpt>
      <trkpt lat="48.90324000" lon="8.452621000">
        <ele>200.57226</ele>
        <time>2008-10-11T22:58:15Z</time>
      </trkpt>
      <trkpt lat="48.90311600" lon="8.452552000">
        <ele>202.97546</ele>
        <time>2008-10-11T22:58:20Z</time>
      </trkpt>
      <trkpt lat="48.90299900" lon="8.452471000">
        <ele>204.89807</ele>
        <time>2008-10-11T22:58:25Z</time>
      </trkpt>
      <trkpt lat="48.90284200" lon="8.452415000">
        <ele>202.97546</ele>
        <time>2008-10-11T22:58:31Z</time>
      </trkpt>
      <trkpt lat="48.90270500" lon="8.452351000">
        <ele>198.64953</ele>
        <time>2008-10-11T22:58:37Z</time>
      </trkpt>
      <trkpt lat="48.90257200" lon="8.452207000">
        <ele>196.72692</ele>
        <time>2008-10-11T22:58:44Z</time>
      </trkpt>
      <trkpt lat="48.90253100" lon="8.452155000">
        <ele>196.72692</ele>
        <time>2008-10-11T22:58:46Z</time>
      </trkpt>
      <trkpt lat="48.90244500" lon="8.452003000">
        <ele>193.36230</ele>
        <time>2008-10-11T22:58:51Z</time>
      </trkpt>
      <trkpt lat="48.90229400" lon="8.451866000">
        <ele>190.95898</ele>
        <time>2008-10-11T22:58:58Z</time>
      </trkpt>
      <trkpt lat="48.90215500" lon="8.451699000">
        <ele>192.40112</ele>
        <time>2008-10-11T22:59:05Z</time>
      </trkpt>
      <trkpt lat="48.90205100" lon="8.451491000">
        <ele>192.40112</ele>
        <time>2008-10-11T22:59:12Z</time>
      </trkpt>
      <trkpt lat="48.90194900" lon="8.451358000">
        <ele>192.88171</ele>
        <time>2008-10-11T22:59:17Z</time>
      </trkpt>
      <trkpt lat="48.90181600" lon="8.451210000">
        <ele>194.32373</ele>
        <time>2008-10-11T22:59:24Z</time>
      </trkpt>
      <trkpt lat="48.90165700" lon="8.451049000">
        <ele>196.24633</ele>
        <time>2008-10-11T22:59:32Z</time>
      </trkpt>
      <trkpt lat="48.90154200" lon="8.450895000">
        <ele>198.64953</ele>
        <time>2008-10-11T22:59:38Z</time>
      </trkpt>
      <trkpt lat="48.90146100" lon="8.450801000">
        <ele>199.13012</ele>
        <time>2008-10-11T22:59:42Z</time>
      </trkpt>
      <trkpt lat="48.90134700" lon="8.450741000">
        <ele>199.61084</ele>
        <time>2008-10-11T22:59:47Z</time>
      </trkpt>
      <trkpt lat="48.90118600" lon="8.450690000">
        <ele>200.57226</ele>
        <time>2008-10-11T22:59:53Z</time>
      </trkpt>
      <trkpt lat="48.90104300" lon="8.450672000">
        <ele>201.53356</ele>
        <time>2008-10-11T22:59:59Z</time>
      </trkpt>
      <trkpt lat="48.90086000" lon="8.450548000">
        <ele>202.49487</ele>
        <time>2008-10-11T23:00:07Z</time>
      </trkpt>
      <trkpt lat="48.90071400" lon="8.450449000">
        <ele>202.97546</ele>
        <time>2008-10-11T23:00:14Z</time>
      </trkpt>
      <trkpt lat="48.90059200" lon="8.450365000">
        <ele>202.49487</ele>
        <time>2008-10-11T23:00:19Z</time>
      </trkpt>
      <trkpt lat="48.90050300" lon="8.450279000">
        <ele>202.97546</ele>
        <time>2008-10-11T23:00:23Z</time>
      </trkpt>
      <trkpt lat="48.90042500" lon="8.450164000">
        <ele>201.05285</ele>
        <time>2008-10-11T23:00:27Z</time>
      </trkpt>
      <trkpt lat="48.90034600" lon="8.450016000">
        <ele>199.61084</ele>
        <time>2008-10-11T23:00:32Z</time>
      </trkpt>
      <trkpt lat="48.90029600" lon="8.449762000">
        <ele>197.68823</ele>
        <time>2008-10-11T23:00:39Z</time>
      </trkpt>
      <trkpt lat="48.90025100" lon="8.449617000">
        <ele>197.20752</ele>
        <time>2008-10-11T23:00:44Z</time>
      </trkpt>
      <trkpt lat="48.90017800" lon="8.449545000">
        <ele>197.68823</ele>
        <time>2008-10-11T23:00:47Z</time>
      </trkpt>
      <trkpt lat="48.90014700" lon="8.449528000">
        <ele>198.16894</ele>
        <time>2008-10-11T23:00:48Z</time>
      </trkpt>
      <trkpt lat="48.90001400" lon="8.449425000">
        <ele>205.37878</ele>
        <time>2008-10-11T23:00:54Z</time>
      </trkpt>
      <trkpt lat="48.89989800" lon="8.449322000">
        <ele>209.22412</ele>
        <time>2008-10-11T23:01:00Z</time>
      </trkpt>
      <trkpt lat="48.89977700" lon="8.449257000">
        <ele>210.66601</ele>
        <time>2008-10-11T23:01:05Z</time>
      </trkpt>
      <trkpt lat="48.89963000" lon="8.449164000">
        <ele>206.82067</ele>
        <time>2008-10-11T23:01:11Z</time>
      </trkpt>
      <trkpt lat="48.89947300" lon="8.449132000">
        <ele>205.37878</ele>
        <time>2008-10-11T23:01:18Z</time>
      </trkpt>
      <trkpt lat="48.89932700" lon="8.449142000">
        <ele>204.41748</ele>
        <time>2008-10-11T23:01:24Z</time>
      </trkpt>
      <trkpt lat="48.89914000" lon="8.449127000">
        <ele>203.93689</ele>
        <time>2008-10-11T23:01:31Z</time>
      </trkpt>
      <trkpt lat="48.89898200" lon="8.449053000">
        <ele>204.89807</ele>
        <time>2008-10-11T23:01:38Z</time>
      </trkpt>
      <trkpt lat="48.89882900" lon="8.448962000">
        <ele>205.85949</ele>
        <time>2008-10-11T23:01:44Z</time>
      </trkpt>
      <trkpt lat="48.89868400" lon="8.448849000">
        <ele>206.34008</ele>
        <time>2008-10-11T23:01:51Z</time>
      </trkpt>
      <trkpt lat="48.89856400" lon="8.448756000">
        <ele>206.82067</ele>
        <time>2008-10-11T23:01:56Z</time>
      </trkpt>
      <trkpt lat="48.89844800" lon="8.448608000">
        <ele>208.26281</ele>
        <time>2008-10-11T23:02:02Z</time>
      </trkpt>
      <trkpt lat="48.89831400" lon="8.448498000">
        <ele>208.74340</ele>
        <time>2008-10-11T23:02:08Z</time>
      </trkpt>
      <trkpt lat="48.89820200" lon="8.448391000">
        <ele>209.70483</ele>
        <time>2008-10-11T23:02:14Z</time>
      </trkpt>
      <trkpt lat="48.89802300" lon="8.448330000">
        <ele>209.22412</ele>
        <time>2008-10-11T23:02:21Z</time>
      </trkpt>
      <trkpt lat="48.89790700" lon="8.448228000">
        <ele>209.22412</ele>
        <time>2008-10-11T23:02:26Z</time>
      </trkpt>
      <trkpt lat="48.89781700" lon="8.448101000">
        <ele>210.66601</ele>
        <time>2008-10-11T23:02:31Z</time>
      </trkpt>
      <trkpt lat="48.89770500" lon="8.448009000">
        <ele>210.66601</ele>
        <time>2008-10-11T23:02:36Z</time>
      </trkpt>
      <trkpt lat="48.89759200" lon="8.447920000">
        <ele>212.10803</ele>
        <time>2008-10-11T23:02:41Z</time>
      </trkpt>
      <trkpt lat="48.89745900" lon="8.447850000">
        <ele>212.58862</ele>
        <time>2008-10-11T23:02:47Z</time>
      </trkpt>
      <trkpt lat="48.89731900" lon="8.447799000">
        <ele>216.91467</ele>
        <time>2008-10-11T23:02:53Z</time>
      </trkpt>
      <trkpt lat="48.89722600" lon="8.447648000">
        <ele>216.43396</ele>
        <time>2008-10-11T23:02:58Z</time>
      </trkpt>
      <trkpt lat="48.89708900" lon="8.447612000">
        <ele>218.35656</ele>
        <time>2008-10-11T23:03:04Z</time>
      </trkpt>
      <trkpt lat="48.89696500" lon="8.447563000">
        <ele>218.83728</ele>
        <time>2008-10-11T23:03:09Z</time>
      </trkpt>
      <trkpt lat="48.89685000" lon="8.447493000">
        <ele>218.83728</ele>
        <time>2008-10-11T23:03:14Z</time>
      </trkpt>
      <trkpt lat="48.89668000" lon="8.447497000">
        <ele>219.79858</ele>
        <time>2008-10-11T23:03:21Z</time>
      </trkpt>
      <trkpt lat="48.89651700" lon="8.447523000">
        <ele>221.72119</ele>
        <time>2008-10-11T23:03:27Z</time>
      </trkpt>
      <trkpt lat="48.89637800" lon="8.447562000">
        <ele>222.68249</ele>
        <time>2008-10-11T23:03:33Z</time>
      </trkpt>
      <trkpt lat="48.89627900" lon="8.447578000">
        <ele>221.72119</ele>
        <time>2008-10-11T23:03:37Z</time>
      </trkpt>
      <trkpt lat="48.89614200" lon="8.447527000">
        <ele>219.79858</ele>
        <time>2008-10-11T23:03:43Z</time>
      </trkpt>
      <trkpt lat="48.89604100" lon="8.447507000">
        <ele>220.27917</ele>
        <time>2008-10-11T23:03:47Z</time>
      </trkpt>
      <trkpt lat="48.89602200" lon="8.447494000">
        <ele>220.27917</ele>
        <time>2008-10-11T23:03:47Z</time>
      </trkpt>
      <trkpt lat="48.89589900" lon="8.447498000">
        <ele>221.72119</ele>
        <time>2008-10-11T23:03:52Z</time>
      </trkpt>
      <trkpt lat="48.89580300" lon="8.447444000">
        <ele>222.20178</ele>
        <time>2008-10-11T23:03:56Z</time>
      </trkpt>
      <trkpt lat="48.89568200" lon="8.447420000">
        <ele>220.75988</ele>
        <time>2008-10-11T23:04:01Z</time>
      </trkpt>
      <trkpt lat="48.89557200" lon="8.447422000">
        <ele>219.79858</ele>
        <time>2008-10-11T23:04:06Z</time>
      </trkpt>
      <trkpt lat="48.89540600" lon="8.447486000">
        <ele>220.75988</ele>
        <time>2008-10-11T23:04:13Z</time>
      </trkpt>
      <trkpt lat="48.89526400" lon="8.447527000">
        <ele>221.72119</ele>
        <time>2008-10-11T23:04:18Z</time>
      </trkpt>
      <trkpt lat="48.89511900" lon="8.447500000">
        <ele>216.43396</ele>
        <time>2008-10-11T23:04:24Z</time>
      </trkpt>
      <trkpt lat="48.89494000" lon="8.447542000">
        <ele>214.03064</ele>
        <time>2008-10-11T23:04:31Z</time>
      </trkpt>
      <trkpt lat="48.89480000" lon="8.447587000">
        <ele>213.55004</ele>
        <time>2008-10-11T23:04:37Z</time>
      </trkpt>
      <trkpt lat="48.89465700" lon="8.447641000">
        <ele>214.51123</ele>
        <time>2008-10-11T23:04:43Z</time>
      </trkpt>
      <trkpt lat="48.89450300" lon="8.447697000">
        <ele>216.91467</ele>
        <time>2008-10-11T23:04:49Z</time>
      </trkpt>
      <trkpt lat="48.89434500" lon="8.447779000">
        <ele>220.27917</ele>
        <time>2008-10-11T23:04:56Z</time>
      </trkpt>
      <trkpt lat="48.89420000" lon="8.447872000">
        <ele>222.68249</ele>
        <time>2008-10-11T23:05:02Z</time>
      </trkpt>
      <trkpt lat="48.89405100" lon="8.447973000">
        <ele>224.12451</ele>
        <time>2008-10-11T23:05:09Z</time>
      </trkpt>
      <trkpt lat="48.89393700" lon="8.448046000">
        <ele>222.20178</ele>
        <time>2008-10-11T23:05:14Z</time>
      </trkpt>
      <trkpt lat="48.89382000" lon="8.448097000">
        <ele>216.91467</ele>
        <time>2008-10-11T23:05:19Z</time>
      </trkpt>
      <trkpt lat="48.89367000" lon="8.448207000">
        <ele>217.39538</ele>
        <time>2008-10-11T23:05:25Z</time>
      </trkpt>
      <trkpt lat="48.89354300" lon="8.448250000">
        <ele>214.99194</ele>
        <time>2008-10-11T23:05:31Z</time>
      </trkpt>
      <trkpt lat="48.89340600" lon="8.448309000">
        <ele>213.06933</ele>
        <time>2008-10-11T23:05:36Z</time>
      </trkpt>
      <trkpt lat="48.89321100" lon="8.448400000">
        <ele>212.58862</ele>
        <time>2008-10-11T23:05:45Z</time>
      </trkpt>
      <trkpt lat="48.89303900" lon="8.448509000">
        <ele>214.99194</ele>
        <time>2008-10-11T23:05:52Z</time>
      </trkpt>
      <trkpt lat="48.89293200" lon="8.448528000">
        <ele>213.55004</ele>
        <time>2008-10-11T23:05:56Z</time>
      </trkpt>
      <trkpt lat="48.89279300" lon="8.448576000">
        <ele>213.06933</ele>
        <time>2008-10-11T23:06:02Z</time>
      </trkpt>
      <trkpt lat="48.89265000" lon="8.448615000">
        <ele>212.58862</ele>
        <time>2008-10-11T23:06:08Z</time>
      </trkpt>
      <trkpt lat="48.89249700" lon="8.448673000">
        <ele>214.51123</ele>
        <time>2008-10-11T23:06:14Z</time>
      </trkpt>
      <trkpt lat="48.89234200" lon="8.448710000">
        <ele>216.43396</ele>
        <time>2008-10-11T23:06:20Z</time>
      </trkpt>
      <trkpt lat="48.89219600" lon="8.448732000">
        <ele>216.43396</ele>
        <time>2008-10-11T23:06:26Z</time>
      </trkpt>
      <trkpt lat="48.89205400" lon="8.448769000">
        <ele>217.87597</ele>
        <time>2008-10-11T23:06:32Z</time>
      </trkpt>
      <trkpt lat="48.89195800" lon="8.448845000">
        <ele>217.39538</ele>
        <time>2008-10-11T23:06:36Z</time>
      </trkpt>
      <trkpt lat="48.89186000" lon="8.448989000">
        <ele>215.47265</ele>
        <time>2008-10-11T23:06:42Z</time>
      </trkpt>
      <trkpt lat="48.89175100" lon="8.449145000">
        <ele>214.99194</ele>
        <time>2008-10-11T23:06:48Z</time>
      </trkpt>
      <trkpt lat="48.89173200" lon="8.449175000">
        <ele>214.03064</ele>
        <time>2008-10-11T23:06:49Z</time>
      </trkpt>
      <trkpt lat="48.89165700" lon="8.449278000">
        <ele>214.51123</ele>
        <time>2008-10-11T23:06:53Z</time>
      </trkpt>
      <trkpt lat="48.89148400" lon="8.449407000">
        <ele>215.47265</ele>
        <time>2008-10-11T23:07:01Z</time>
      </trkpt>
      <trkpt lat="48.89134900" lon="8.449484000">
        <ele>216.43396</ele>
        <time>2008-10-11T23:07:06Z</time>
      </trkpt>
      <trkpt lat="48.89124300" lon="8.449470000">
        <ele>217.39538</ele>
        <time>2008-10-11T23:07:11Z</time>
      </trkpt>
      <trkpt lat="48.89113900" lon="8.449434000">
        <ele>218.35656</ele>
        <time>2008-10-11T23:07:15Z</time>
      </trkpt>
      <trkpt lat="48.89100100" lon="8.449394000">
        <ele>218.35656</ele>
        <time>2008-10-11T23:07:21Z</time>
      </trkpt>
      <trkpt lat="48.89083500" lon="8.449334000">
        <ele>218.35656</ele>
        <time>2008-10-11T23:07:27Z</time>
      </trkpt>
      <trkpt lat="48.89069700" lon="8.449252000">
        <ele>219.31799</ele>
        <time>2008-10-11T23:07:33Z</time>
      </trkpt>
      <trkpt lat="48.89061200" lon="8.449161000">
        <ele>222.20178</ele>
        <time>2008-10-11T23:07:38Z</time>
      </trkpt>
      <trkpt lat="48.89050400" lon="8.449016000">
        <ele>224.12451</ele>
        <time>2008-10-11T23:07:43Z</time>
      </trkpt>
      <trkpt lat="48.89043100" lon="8.448869000">
        <ele>222.68249</ele>
        <time>2008-10-11T23:07:48Z</time>
      </trkpt>
      <trkpt lat="48.89038100" lon="8.448776000">
        <ele>221.72119</ele>
        <time>2008-10-11T23:07:51Z</time>
      </trkpt>
      <trkpt lat="48.89032800" lon="8.448566000">
        <ele>223.64379</ele>
        <time>2008-10-11T23:07:57Z</time>
      </trkpt>
      <trkpt lat="48.89028900" lon="8.448460000">
        <ele>222.68249</ele>
        <time>2008-10-11T23:08:00Z</time>
      </trkpt>
      <trkpt lat="48.89018400" lon="8.448220000">
        <ele>220.75988</ele>
        <time>2008-10-11T23:08:08Z</time>
      </trkpt>
      <trkpt lat="48.89011100" lon="8.447995000">
        <ele>221.72119</ele>
        <time>2008-10-11T23:08:15Z</time>
      </trkpt>
      <trkpt lat="48.89005200" lon="8.447809000">
        <ele>223.64379</ele>
        <time>2008-10-11T23:08:20Z</time>
      </trkpt>
      <trkpt lat="48.88996200" lon="8.447557000">
        <ele>223.16320</ele>
        <time>2008-10-11T23:08:28Z</time>
      </trkpt>
      <trkpt lat="48.88987100" lon="8.447347000">
        <ele>221.72119</ele>
        <time>2008-10-11T23:08:34Z</time>
      </trkpt>
      <trkpt lat="48.88979400" lon="8.447129000">
        <ele>220.75988</ele>
        <time>2008-10-11T23:08:41Z</time>
      </trkpt>
      <trkpt lat="48.88972000" lon="8.446899000">
        <ele>220.27917</ele>
        <time>2008-10-11T23:08:47Z</time>
      </trkpt>
      <trkpt lat="48.88965500" lon="8.446679000">
        <ele>218.35656</ele>
        <time>2008-10-11T23:08:54Z</time>
      </trkpt>
      <trkpt lat="48.88964100" lon="8.446645000">
        <ele>218.35656</ele>
        <time>2008-10-11T23:08:55Z</time>
      </trkpt>
      <trkpt lat="48.88952800" lon="8.446573000">
        <ele>217.87597</ele>
        <time>2008-10-11T23:09:00Z</time>
      </trkpt>
      <trkpt lat="48.88934800" lon="8.446563000">
        <ele>216.91467</ele>
        <time>2008-10-11T23:09:07Z</time>
      </trkpt>
      <trkpt lat="48.88916200" lon="8.446551000">
        <ele>214.99194</ele>
        <time>2008-10-11T23:09:14Z</time>
      </trkpt>
      <trkpt lat="48.88901700" lon="8.446559000">
        <ele>215.47265</ele>
        <time>2008-10-11T23:09:20Z</time>
      </trkpt>
      <trkpt lat="48.88887100" lon="8.446569000">
        <ele>215.95324</ele>
        <time>2008-10-11T23:09:26Z</time>
      </trkpt>
      <trkpt lat="48.88873900" lon="8.446560000">
        <ele>217.39538</ele>
        <time>2008-10-11T23:09:31Z</time>
      </trkpt>
      <trkpt lat="48.88862900" lon="8.446546000">
        <ele>217.87597</ele>
        <time>2008-10-11T23:09:36Z</time>
      </trkpt>
      <trkpt lat="48.88850500" lon="8.446570000">
        <ele>219.79858</ele>
        <time>2008-10-11T23:09:41Z</time>
      </trkpt>
      <trkpt lat="48.88840900" lon="8.446635000">
        <ele>220.27917</ele>
        <time>2008-10-11T23:09:45Z</time>
      </trkpt>
      <trkpt lat="48.88835800" lon="8.446723000">
        <ele>220.75988</ele>
        <time>2008-10-11T23:09:48Z</time>
      </trkpt>
      <trkpt lat="48.88832900" lon="8.446790000">
        <ele>221.72119</ele>
        <time>2008-10-11T23:09:50Z</time>
      </trkpt>
      <trkpt lat="48.88830900" lon="8.446899000">
        <ele>222.20178</ele>
        <time>2008-10-11T23:09:53Z</time>
      </trkpt>
      <trkpt lat="48.88826500" lon="8.447108000">
        <ele>223.16320</ele>
        <time>2008-10-11T23:09:59Z</time>
      </trkpt>
      <trkpt lat="48.88824400" lon="8.447242000">
        <ele>223.16320</ele>
        <time>2008-10-11T23:10:03Z</time>
      </trkpt>
      <trkpt lat="48.88813400" lon="8.447381000">
        <ele>223.16320</ele>
        <time>2008-10-11T23:10:08Z</time>
      </trkpt>
      <trkpt lat="48.88800200" lon="8.447484000">
        <ele>222.68249</ele>
        <time>2008-10-11T23:10:14Z</time>
      </trkpt>
      <trkpt lat="48.88788800" lon="8.447575000">
        <ele>221.24060</ele>
        <time>2008-10-11T23:10:19Z</time>
      </trkpt>
      <trkpt lat="48.88777100" lon="8.447647000">
        <ele>222.68249</ele>
        <time>2008-10-11T23:10:24Z</time>
      </trkpt>
      <trkpt lat="48.88764900" lon="8.447714000">
        <ele>224.12451</ele>
        <time>2008-10-11T23:10:30Z</time>
      </trkpt>
      <trkpt lat="48.88753600" lon="8.447777000">
        <ele>223.64379</ele>
        <time>2008-10-11T23:10:34Z</time>
      </trkpt>
      <trkpt lat="48.88739100" lon="8.447834000">
        <ele>223.64379</ele>
        <time>2008-10-11T23:10:40Z</time>
      </trkpt>
      <trkpt lat="48.88719100" lon="8.447938000">
        <ele>225.56652</ele>
        <time>2008-10-11T23:10:49Z</time>
      </trkpt>
      <trkpt lat="48.88706100" lon="8.448005000">
        <ele>227.96972</ele>
        <time>2008-10-11T23:10:54Z</time>
      </trkpt>
      <trkpt lat="48.88695900" lon="8.448050000">
        <ele>229.41174</ele>
        <time>2008-10-11T23:10:59Z</time>
      </trkpt>
      <trkpt lat="48.88677500" lon="8.448082000">
        <ele>231.33435</ele>
        <time>2008-10-11T23:11:06Z</time>
      </trkpt>
      <trkpt lat="48.88662900" lon="8.448133000">
        <ele>233.73767</ele>
        <time>2008-10-11T23:11:12Z</time>
      </trkpt>
      <trkpt lat="48.88642100" lon="8.448210000">
        <ele>234.21838</ele>
        <time>2008-10-11T23:11:21Z</time>
      </trkpt>
      <trkpt lat="48.88640000" lon="8.448216000">
        <ele>234.69909</ele>
        <time>2008-10-11T23:11:22Z</time>
      </trkpt>
      <trkpt lat="48.88623700" lon="8.448262000">
        <ele>234.21838</ele>
        <time>2008-10-11T23:11:28Z</time>
      </trkpt>
      <trkpt lat="48.88612800" lon="8.448287000">
        <ele>232.29577</ele>
        <time>2008-10-11T23:11:33Z</time>
      </trkpt>
      <trkpt lat="48.88597000" lon="8.448314000">
        <ele>227.00854</ele>
        <time>2008-10-11T23:11:39Z</time>
      </trkpt>
      <trkpt lat="48.88584600" lon="8.448359000">
        <ele>227.48913</ele>
        <time>2008-10-11T23:11:44Z</time>
      </trkpt>
      <trkpt lat="48.88570000" lon="8.448396000">
        <ele>226.04711</ele>
        <time>2008-10-11T23:11:50Z</time>
      </trkpt>
      <trkpt lat="48.88558200" lon="8.448439000">
        <ele>227.00854</ele>
        <time>2008-10-11T23:11:55Z</time>
      </trkpt>
      <trkpt lat="48.88548500" lon="8.448469000">
        <ele>227.48913</ele>
        <time>2008-10-11T23:11:59Z</time>
      </trkpt>
      <trkpt lat="48.88533300" lon="8.448546000">
        <ele>229.89233</ele>
        <time>2008-10-11T23:12:05Z</time>
      </trkpt>
      <trkpt lat="48.88524100" lon="8.448592000">
        <ele>232.29577</ele>
        <time>2008-10-11T23:12:09Z</time>
      </trkpt>
      <trkpt lat="48.88509400" lon="8.448594000">
        <ele>234.21838</ele>
        <time>2008-10-11T23:12:15Z</time>
      </trkpt>
      <trkpt lat="48.88496200" lon="8.448591000">
        <ele>235.66027</ele>
        <time>2008-10-11T23:12:20Z</time>
      </trkpt>
      <trkpt lat="48.88482100" lon="8.448618000">
        <ele>234.21838</ele>
        <time>2008-10-11T23:12:26Z</time>
      </trkpt>
      <trkpt lat="48.88462900" lon="8.448647000">
        <ele>231.33435</ele>
        <time>2008-10-11T23:12:34Z</time>
      </trkpt>
      <trkpt lat="48.88445400" lon="8.448688000">
        <ele>227.96972</ele>
        <time>2008-10-11T23:12:41Z</time>
      </trkpt>
      <trkpt lat="48.88434000" lon="8.448699000">
        <ele>227.96972</ele>
        <time>2008-10-11T23:12:45Z</time>
      </trkpt>
      <trkpt lat="48.88425500" lon="8.448705000">
        <ele>228.45043</ele>
        <time>2008-10-11T23:12:49Z</time>
      </trkpt>
      <trkpt lat="48.88420000" lon="8.448729000">
        <ele>228.45043</ele>
        <time>2008-10-11T23:12:51Z</time>
      </trkpt>
      <trkpt lat="48.88404200" lon="8.448751000">
        <ele>226.04711</ele>
        <time>2008-10-11T23:12:57Z</time>
      </trkpt>
      <trkpt lat="48.88390000" lon="8.448878000">
        <ele>228.93115</ele>
        <time>2008-10-11T23:13:04Z</time>
      </trkpt>
      <trkpt lat="48.88373900" lon="8.449013000">
        <ele>228.45043</ele>
        <time>2008-10-11T23:13:11Z</time>
      </trkpt>
      <trkpt lat="48.88355900" lon="8.449194000">
        <ele>228.93115</ele>
        <time>2008-10-11T23:13:20Z</time>
      </trkpt>
      <trkpt lat="48.88346600" lon="8.449275000">
        <ele>229.41174</ele>
        <time>2008-10-11T23:13:24Z</time>
      </trkpt>
      <trkpt lat="48.88335400" lon="8.449373000">
        <ele>228.93115</ele>
        <time>2008-10-11T23:13:29Z</time>
      </trkpt>
      <trkpt lat="48.88319900" lon="8.449441000">
        <ele>227.00854</ele>
        <time>2008-10-11T23:13:36Z</time>
      </trkpt>
      <trkpt lat="48.88309000" lon="8.449477000">
        <ele>224.60522</ele>
        <time>2008-10-11T23:13:40Z</time>
      </trkpt>
      <trkpt lat="48.88299600" lon="8.449494000">
        <ele>225.56652</ele>
        <time>2008-10-11T23:13:44Z</time>
      </trkpt>
      <trkpt lat="48.88282700" lon="8.449585000">
        <ele>226.52783</ele>
        <time>2008-10-11T23:13:51Z</time>
      </trkpt>
      <trkpt lat="48.88271500" lon="8.449654000">
        <ele>226.04711</ele>
        <time>2008-10-11T23:13:56Z</time>
      </trkpt>
      <trkpt lat="48.88256100" lon="8.449764000">
        <ele>225.56652</ele>
        <time>2008-10-11T23:14:03Z</time>
      </trkpt>
      <trkpt lat="48.88243300" lon="8.449897000">
        <ele>224.60522</ele>
        <time>2008-10-11T23:14:09Z</time>
      </trkpt>
      <trkpt lat="48.88229400" lon="8.450034000">
        <ele>228.45043</ele>
        <time>2008-10-11T23:14:16Z</time>
      </trkpt>
      <trkpt lat="48.88214400" lon="8.450096000">
        <ele>227.96972</ele>
        <time>2008-10-11T23:14:22Z</time>
      </trkpt>
      <trkpt lat="48.88203200" lon="8.450160000">
        <ele>228.45043</ele>
        <time>2008-10-11T23:14:27Z</time>
      </trkpt>
      <trkpt lat="48.88188700" lon="8.450241000">
        <ele>227.48913</ele>
        <time>2008-10-11T23:14:33Z</time>
      </trkpt>
      <trkpt lat="48.88172100" lon="8.450318000">
        <ele>227.96972</ele>
        <time>2008-10-11T23:14:40Z</time>
      </trkpt>
      <trkpt lat="48.88161100" lon="8.450356000">
        <ele>227.00854</ele>
        <time>2008-10-11T23:14:44Z</time>
      </trkpt>
      <trkpt lat="48.88140100" lon="8.450475000">
        <ele>229.41174</ele>
        <time>2008-10-11T23:14:53Z</time>
      </trkpt>
      <trkpt lat="48.88129700" lon="8.450525000">
        <ele>228.93115</ele>
        <time>2008-10-11T23:14:58Z</time>
      </trkpt>
      <trkpt lat="48.88118500" lon="8.450617000">
        <ele>229.89233</ele>
        <time>2008-10-11T23:15:03Z</time>
      </trkpt>
      <trkpt lat="48.88106200" lon="8.450700000">
        <ele>230.85376</ele>
        <time>2008-10-11T23:15:08Z</time>
      </trkpt>
      <trkpt lat="48.88094200" lon="8.450766000">
        <ele>231.81494</ele>
        <time>2008-10-11T23:15:13Z</time>
      </trkpt>
      <trkpt lat="48.88080700" lon="8.450846000">
        <ele>233.25708</ele>
        <time>2008-10-11T23:15:19Z</time>
      </trkpt>
      <trkpt lat="48.88059500" lon="8.450959000">
        <ele>235.66027</ele>
        <time>2008-10-11T23:15:28Z</time>
      </trkpt>
      <trkpt lat="48.88049800" lon="8.450950000">
        <ele>236.14099</ele>
        <time>2008-10-11T23:15:32Z</time>
      </trkpt>
      <trkpt lat="48.88037900" lon="8.450995000">
        <ele>235.66027</ele>
        <time>2008-10-11T23:15:37Z</time>
      </trkpt>
      <trkpt lat="48.88027400" lon="8.451024000">
        <ele>235.66027</ele>
        <time>2008-10-11T23:15:41Z</time>
      </trkpt>
      <trkpt lat="48.88013700" lon="8.451079000">
        <ele>237.10229</ele>
        <time>2008-10-11T23:15:47Z</time>
      </trkpt>
      <trkpt lat="48.88008900" lon="8.451090000">
        <ele>236.14099</ele>
        <time>2008-10-11T23:15:49Z</time>
      </trkpt>
      <trkpt lat="48.88001900" lon="8.451100000">
        <ele>233.73767</ele>
        <time>2008-10-11T23:15:52Z</time>
      </trkpt>
      <trkpt lat="48.87989100" lon="8.451160000">
        <ele>233.73767</ele>
        <time>2008-10-11T23:15:57Z</time>
      </trkpt>
      <trkpt lat="48.87977900" lon="8.451213000">
        <ele>234.69909</ele>
        <time>2008-10-11T23:16:02Z</time>
      </trkpt>
      <trkpt lat="48.87961700" lon="8.451310000">
        <ele>237.10229</ele>
        <time>2008-10-11T23:16:09Z</time>
      </trkpt>
      <trkpt lat="48.87955300" lon="8.451339000">
        <ele>237.58288</ele>
        <time>2008-10-11T23:16:11Z</time>
      </trkpt>
      <trkpt lat="48.87941600" lon="8.451388000">
        <ele>237.58288</ele>
        <time>2008-10-11T23:16:17Z</time>
      </trkpt>
      <trkpt lat="48.87926100" lon="8.451460000">
        <ele>237.10229</ele>
        <time>2008-10-11T23:16:23Z</time>
      </trkpt>
      <trkpt lat="48.87911200" lon="8.451519000">
        <ele>238.06359</ele>
        <time>2008-10-11T23:16:30Z</time>
      </trkpt>
      <trkpt lat="48.87895600" lon="8.451544000">
        <ele>239.98620</ele>
        <time>2008-10-11T23:16:36Z</time>
      </trkpt>
      <trkpt lat="48.87884400" lon="8.451556000">
        <ele>241.90893</ele>
        <time>2008-10-11T23:16:40Z</time>
      </trkpt>
      <trkpt lat="48.87874500" lon="8.451574000">
        <ele>244.31225</ele>
        <time>2008-10-11T23:16:44Z</time>
      </trkpt>
      <trkpt lat="48.87858900" lon="8.451597000">
        <ele>244.79284</ele>
        <time>2008-10-11T23:16:51Z</time>
      </trkpt>
      <trkpt lat="48.87845700" lon="8.451630000">
        <ele>244.79284</ele>
        <time>2008-10-11T23:16:56Z</time>
      </trkpt>
      <trkpt lat="48.87832100" lon="8.451645000">
        <ele>245.27343</ele>
        <time>2008-10-11T23:17:02Z</time>
      </trkpt>
      <trkpt lat="48.87830100" lon="8.451642000">
        <ele>244.79284</ele>
        <time>2008-10-11T23:17:02Z</time>
      </trkpt>
      <trkpt lat="48.87819900" lon="8.451722000">
        <ele>243.83154</ele>
        <time>2008-10-11T23:17:07Z</time>
      </trkpt>
      <trkpt lat="48.87805200" lon="8.451819000">
        <ele>240.94763</ele>
        <time>2008-10-11T23:17:13Z</time>
      </trkpt>
      <trkpt lat="48.87786000" lon="8.451937000">
        <ele>233.73767</ele>
        <time>2008-10-11T23:17:22Z</time>
      </trkpt>
      <trkpt lat="48.87772600" lon="8.452012000">
        <ele>233.73767</ele>
        <time>2008-10-11T23:17:27Z</time>
      </trkpt>
      <trkpt lat="48.87757200" lon="8.452007000">
        <ele>232.29577</ele>
        <time>2008-10-11T23:17:33Z</time>
      </trkpt>
      <trkpt lat="48.87738200" lon="8.452066000">
        <ele>234.69909</ele>
        <time>2008-10-11T23:17:41Z</time>
      </trkpt>
      <trkpt lat="48.87737200" lon="8.452098000">
        <ele>238.54431</ele>
        <time>2008-10-11T23:17:42Z</time>
      </trkpt>
      <trkpt lat="48.87721400" lon="8.452113000">
        <ele>244.31225</ele>
        <time>2008-10-11T23:17:49Z</time>
      </trkpt>
      <trkpt lat="48.87702400" lon="8.452121000">
        <ele>247.19604</ele>
        <time>2008-10-11T23:17:56Z</time>
      </trkpt>
      <trkpt lat="48.87689900" lon="8.452109000">
        <ele>249.59948</ele>
        <time>2008-10-11T23:18:01Z</time>
      </trkpt>
      <trkpt lat="48.87675000" lon="8.452114000">
        <ele>249.59948</ele>
        <time>2008-10-11T23:18:07Z</time>
      </trkpt>
      <trkpt lat="48.87658700" lon="8.452140000">
        <ele>249.11877</ele>
        <time>2008-10-11T23:18:14Z</time>
      </trkpt>
      <trkpt lat="48.87644100" lon="8.452176000">
        <ele>250.56079</ele>
        <time>2008-10-11T23:18:20Z</time>
      </trkpt>
      <trkpt lat="48.87620800" lon="8.452250000">
        <ele>251.52209</ele>
        <time>2008-10-11T23:18:29Z</time>
      </trkpt>
      <trkpt lat="48.87607800" lon="8.452247000">
        <ele>250.08020</ele>
        <time>2008-10-11T23:18:34Z</time>
      </trkpt>
      <trkpt lat="48.87597800" lon="8.452216000">
        <ele>249.11877</ele>
        <time>2008-10-11T23:18:38Z</time>
      </trkpt>
      <trkpt lat="48.87581200" lon="8.452157000">
        <ele>250.56079</ele>
        <time>2008-10-11T23:18:45Z</time>
      </trkpt>
      <trkpt lat="48.87569400" lon="8.452128000">
        <ele>251.52209</ele>
        <time>2008-10-11T23:18:50Z</time>
      </trkpt>
      <trkpt lat="48.87566000" lon="8.452132000">
        <ele>251.52209</ele>
        <time>2008-10-11T23:18:51Z</time>
      </trkpt>
      <trkpt lat="48.87552200" lon="8.452064000">
        <ele>248.15759</ele>
        <time>2008-10-11T23:18:57Z</time>
      </trkpt>
      <trkpt lat="48.87542200" lon="8.451939000">
        <ele>246.23486</ele>
        <time>2008-10-11T23:19:02Z</time>
      </trkpt>
      <trkpt lat="48.87530200" lon="8.451862000">
        <ele>245.75415</ele>
        <time>2008-10-11T23:19:08Z</time>
      </trkpt>
      <trkpt lat="48.87514400" lon="8.451777000">
        <ele>244.79284</ele>
        <time>2008-10-11T23:19:14Z</time>
      </trkpt>
      <trkpt lat="48.87503900" lon="8.451662000">
        <ele>239.02490</ele>
        <time>2008-10-11T23:19:19Z</time>
      </trkpt>
      <trkpt lat="48.87486800" lon="8.451559000">
        <ele>240.46704</ele>
        <time>2008-10-11T23:19:27Z</time>
      </trkpt>
      <trkpt lat="48.87477100" lon="8.451447000">
        <ele>241.42822</ele>
        <time>2008-10-11T23:19:32Z</time>
      </trkpt>
      <trkpt lat="48.87461200" lon="8.451366000">
        <ele>242.87023</ele>
        <time>2008-10-11T23:19:38Z</time>
      </trkpt>
      <trkpt lat="48.87449800" lon="8.451281000">
        <ele>244.31225</ele>
        <time>2008-10-11T23:19:44Z</time>
      </trkpt>
      <trkpt lat="48.87438100" lon="8.451165000">
        <ele>245.27343</ele>
        <time>2008-10-11T23:19:49Z</time>
      </trkpt>
      <trkpt lat="48.87424300" lon="8.451042000">
        <ele>244.31225</ele>
        <time>2008-10-11T23:19:56Z</time>
      </trkpt>
      <trkpt lat="48.87407600" lon="8.450966000">
        <ele>244.31225</ele>
        <time>2008-10-11T23:20:02Z</time>
      </trkpt>
      <trkpt lat="48.87393000" lon="8.450876000">
        <ele>247.19604</ele>
        <time>2008-10-11T23:20:09Z</time>
      </trkpt>
      <trkpt lat="48.87376100" lon="8.450757000">
        <ele>250.08020</ele>
        <time>2008-10-11T23:20:16Z</time>
      </trkpt>
      <trkpt lat="48.87363300" lon="8.450649000">
        <ele>251.04138</ele>
        <time>2008-10-11T23:20:22Z</time>
      </trkpt>
      <trkpt lat="48.87354200" lon="8.450547000">
        <ele>250.08020</ele>
        <time>2008-10-11T23:20:27Z</time>
      </trkpt>
      <trkpt lat="48.87339400" lon="8.450487000">
        <ele>252.00280</ele>
        <time>2008-10-11T23:20:33Z</time>
      </trkpt>
      <trkpt lat="48.87328400" lon="8.450411000">
        <ele>251.04138</ele>
        <time>2008-10-11T23:20:38Z</time>
      </trkpt>
      <trkpt lat="48.87315100" lon="8.450347000">
        <ele>252.48339</ele>
        <time>2008-10-11T23:20:43Z</time>
      </trkpt>
      <trkpt lat="48.87306000" lon="8.450223000">
        <ele>252.00280</ele>
        <time>2008-10-11T23:20:48Z</time>
      </trkpt>
      <trkpt lat="48.87292900" lon="8.450163000">
        <ele>254.88659</ele>
        <time>2008-10-11T23:20:54Z</time>
      </trkpt>
      <trkpt lat="48.87276100" lon="8.450097000">
        <ele>258.73193</ele>
        <time>2008-10-11T23:21:00Z</time>
      </trkpt>
      <trkpt lat="48.87263700" lon="8.450016000">
        <ele>261.13525</ele>
        <time>2008-10-11T23:21:06Z</time>
      </trkpt>
      <trkpt lat="48.87249100" lon="8.449944000">
        <ele>261.13525</ele>
        <time>2008-10-11T23:21:12Z</time>
      </trkpt>
      <trkpt lat="48.87234600" lon="8.449904000">
        <ele>260.17395</ele>
        <time>2008-10-11T23:21:18Z</time>
      </trkpt>
      <trkpt lat="48.87223900" lon="8.449854000">
        <ele>259.69335</ele>
        <time>2008-10-11T23:21:22Z</time>
      </trkpt>
      <trkpt lat="48.87205000" lon="8.449796000">
        <ele>259.21264</ele>
        <time>2008-10-11T23:21:30Z</time>
      </trkpt>
      <trkpt lat="48.87189700" lon="8.449753000">
        <ele>258.25134</ele>
        <time>2008-10-11T23:21:36Z</time>
      </trkpt>
      <trkpt lat="48.87179700" lon="8.449678000">
        <ele>257.29003</ele>
        <time>2008-10-11T23:21:41Z</time>
      </trkpt>
      <trkpt lat="48.87165500" lon="8.449653000">
        <ele>260.17395</ele>
        <time>2008-10-11T23:21:47Z</time>
      </trkpt>
      <trkpt lat="48.87157900" lon="8.449594000">
        <ele>257.77075</ele>
        <time>2008-10-11T23:21:50Z</time>
      </trkpt>
      <trkpt lat="48.87156300" lon="8.449587000">
        <ele>257.29003</ele>
        <time>2008-10-11T23:21:51Z</time>
      </trkpt>
      <trkpt lat="48.87153300" lon="8.449594000">
        <ele>257.77075</ele>
        <time>2008-10-11T23:21:52Z</time>
      </trkpt>
      <trkpt lat="48.87135000" lon="8.449582000">
        <ele>262.09655</ele>
        <time>2008-10-11T23:21:59Z</time>
      </trkpt>
      <trkpt lat="48.87120600" lon="8.449534000">
        <ele>264.01928</ele>
        <time>2008-10-11T23:22:05Z</time>
      </trkpt>
      <trkpt lat="48.87105600" lon="8.449486000">
        <ele>260.17395</ele>
        <time>2008-10-11T23:22:11Z</time>
      </trkpt>
      <trkpt lat="48.87093900" lon="8.449431000">
        <ele>260.65454</ele>
        <time>2008-10-11T23:22:16Z</time>
      </trkpt>
      <trkpt lat="48.87082300" lon="8.449383000">
        <ele>262.57714</ele>
        <time>2008-10-11T23:22:21Z</time>
      </trkpt>
      <trkpt lat="48.87065800" lon="8.449332000">
        <ele>266.90319</ele>
        <time>2008-10-11T23:22:28Z</time>
      </trkpt>
      <trkpt lat="48.87051900" lon="8.449209000">
        <ele>267.38391</ele>
        <time>2008-10-11T23:22:34Z</time>
      </trkpt>
      <trkpt lat="48.87038300" lon="8.449080000">
        <ele>256.80932</ele>
        <time>2008-10-11T23:22:41Z</time>
      </trkpt>
      <trkpt lat="48.87027100" lon="8.448995000">
        <ele>254.40600</ele>
        <time>2008-10-11T23:22:46Z</time>
      </trkpt>
      <trkpt lat="48.87014500" lon="8.448914000">
        <ele>255.84802</ele>
        <time>2008-10-11T23:22:51Z</time>
      </trkpt>
      <trkpt lat="48.87005300" lon="8.448851000">
        <ele>255.84802</ele>
        <time>2008-10-11T23:22:55Z</time>
      </trkpt>
      <trkpt lat="48.86987300" lon="8.448798000">
        <ele>256.32873</ele>
        <time>2008-10-11T23:23:02Z</time>
      </trkpt>
      <trkpt lat="48.86976200" lon="8.448702000">
        <ele>256.80932</ele>
        <time>2008-10-11T23:23:08Z</time>
      </trkpt>
      <trkpt lat="48.86958700" lon="8.448630000">
        <ele>256.32873</ele>
        <time>2008-10-11T23:23:15Z</time>
      </trkpt>
      <trkpt lat="48.86948100" lon="8.448469000">
        <ele>254.40600</ele>
        <time>2008-10-11T23:23:21Z</time>
      </trkpt>
      <trkpt lat="48.86938200" lon="8.448361000">
        <ele>253.92541</ele>
        <time>2008-10-11T23:23:26Z</time>
      </trkpt>
      <trkpt lat="48.86927600" lon="8.448268000">
        <ele>252.96398</ele>
        <time>2008-10-11T23:23:31Z</time>
      </trkpt>
      <trkpt lat="48.86918100" lon="8.448177000">
        <ele>255.36731</ele>
        <time>2008-10-11T23:23:35Z</time>
      </trkpt>
      <trkpt lat="48.86906100" lon="8.448080000">
        <ele>258.25134</ele>
        <time>2008-10-11T23:23:40Z</time>
      </trkpt>
      <trkpt lat="48.86892600" lon="8.447983000">
        <ele>257.29003</ele>
        <time>2008-10-11T23:23:46Z</time>
      </trkpt>
      <trkpt lat="48.86880600" lon="8.447871000">
        <ele>256.32873</ele>
        <time>2008-10-11T23:23:52Z</time>
      </trkpt>
      <trkpt lat="48.86870000" lon="8.447746000">
        <ele>255.36731</ele>
        <time>2008-10-11T23:23:57Z</time>
      </trkpt>
      <trkpt lat="48.86860700" lon="8.447635000">
        <ele>254.40600</ele>
        <time>2008-10-11T23:24:02Z</time>
      </trkpt>
      <trkpt lat="48.86851200" lon="8.447497000">
        <ele>252.00280</ele>
        <time>2008-10-11T23:24:07Z</time>
      </trkpt>
      <trkpt lat="48.86844100" lon="8.447394000">
        <ele>251.52209</ele>
        <time>2008-10-11T23:24:11Z</time>
      </trkpt>
      <trkpt lat="48.86833900" lon="8.447211000">
        <ele>258.25134</ele>
        <time>2008-10-11T23:24:18Z</time>
      </trkpt>
      <trkpt lat="48.86820400" lon="8.447055000">
        <ele>261.61596</ele>
        <time>2008-10-11T23:24:24Z</time>
      </trkpt>
      <trkpt lat="48.86818600" lon="8.447033000">
        <ele>262.57714</ele>
        <time>2008-10-11T23:24:25Z</time>
      </trkpt>
      <trkpt lat="48.86806800" lon="8.446924000">
        <ele>266.42248</ele>
        <time>2008-10-11T23:24:31Z</time>
      </trkpt>
      <trkpt lat="48.86804500" lon="8.446906000">
        <ele>267.86450</ele>
        <time>2008-10-11T23:24:32Z</time>
      </trkpt>
      <trkpt lat="48.86791300" lon="8.446831000">
        <ele>271.22912</ele>
        <time>2008-10-11T23:24:38Z</time>
      </trkpt>
      <trkpt lat="48.86779200" lon="8.446798000">
        <ele>271.70971</ele>
        <time>2008-10-11T23:24:43Z</time>
      </trkpt>
      <trkpt lat="48.86767600" lon="8.446743000">
        <ele>274.59375</ele>
        <time>2008-10-11T23:24:47Z</time>
      </trkpt>
      <trkpt lat="48.86765000" lon="8.446696000">
        <ele>273.15185</ele>
        <time>2008-10-11T23:24:49Z</time>
      </trkpt>
      <trkpt lat="48.86759500" lon="8.446679000">
        <ele>273.63244</ele>
        <time>2008-10-11T23:24:51Z</time>
      </trkpt>
      <trkpt lat="48.86750100" lon="8.446673000">
        <ele>273.63244</ele>
        <time>2008-10-11T23:24:55Z</time>
      </trkpt>
      <trkpt lat="48.86732100" lon="8.446663000">
        <ele>273.63244</ele>
        <time>2008-10-11T23:25:02Z</time>
      </trkpt>
      <trkpt lat="48.86715100" lon="8.446677000">
        <ele>273.15185</ele>
        <time>2008-10-11T23:25:09Z</time>
      </trkpt>
      <trkpt lat="48.86702400" lon="8.446694000">
        <ele>273.63244</ele>
        <time>2008-10-11T23:25:14Z</time>
      </trkpt>
      <trkpt lat="48.86685700" lon="8.446674000">
        <ele>273.63244</ele>
        <time>2008-10-11T23:25:21Z</time>
      </trkpt>
      <trkpt lat="48.86669100" lon="8.446702000">
        <ele>275.07446</ele>
        <time>2008-10-11T23:25:28Z</time>
      </trkpt>
      <trkpt lat="48.86649600" lon="8.446736000">
        <ele>280.84240</ele>
        <time>2008-10-11T23:25:35Z</time>
      </trkpt>
      <trkpt lat="48.86641500" lon="8.446658000">
        <ele>282.28430</ele>
        <time>2008-10-11T23:25:39Z</time>
      </trkpt>
      <trkpt lat="48.86625200" lon="8.446672000">
        <ele>283.24560</ele>
        <time>2008-10-11T23:25:46Z</time>
      </trkpt>
      <trkpt lat="48.86611400" lon="8.446652000">
        <ele>286.12951</ele>
        <time>2008-10-11T23:25:51Z</time>
      </trkpt>
      <trkpt lat="48.86603600" lon="8.446587000">
        <ele>284.68762</ele>
        <time>2008-10-11T23:25:55Z</time>
      </trkpt>
      <trkpt lat="48.86601300" lon="8.446529000">
        <ele>284.20690</ele>
        <time>2008-10-11T23:25:57Z</time>
      </trkpt>
      <trkpt lat="48.86590000" lon="8.446535000">
        <ele>283.72619</ele>
        <time>2008-10-11T23:26:01Z</time>
      </trkpt>
      <trkpt lat="48.86571100" lon="8.446478000">
        <ele>279.88085</ele>
        <time>2008-10-11T23:26:09Z</time>
      </trkpt>
      <trkpt lat="48.86558300" lon="8.446436000">
        <ele>281.32299</ele>
        <time>2008-10-11T23:26:14Z</time>
      </trkpt>
      <trkpt lat="48.86543400" lon="8.446409000">
        <ele>283.24560</ele>
        <time>2008-10-11T23:26:20Z</time>
      </trkpt>
      <trkpt lat="48.86530900" lon="8.446348000">
        <ele>282.76501</ele>
        <time>2008-10-11T23:26:25Z</time>
      </trkpt>
      <trkpt lat="48.86516800" lon="8.446258000">
        <ele>281.80358</ele>
        <time>2008-10-11T23:26:32Z</time>
      </trkpt>
      <trkpt lat="48.86498100" lon="8.446185000">
        <ele>276.03564</ele>
        <time>2008-10-11T23:26:39Z</time>
      </trkpt>
      <trkpt lat="48.86483500" lon="8.446077000">
        <ele>280.36169</ele>
        <time>2008-10-11T23:26:46Z</time>
      </trkpt>
      <trkpt lat="48.86475100" lon="8.445969000">
        <ele>274.11303</ele>
        <time>2008-10-11T23:26:50Z</time>
      </trkpt>
      <trkpt lat="48.86458200" lon="8.445970000">
        <ele>269.30651</ele>
        <time>2008-10-11T23:26:57Z</time>
      </trkpt>
      <trkpt lat="48.86445000" lon="8.445903000">
        <ele>267.86450</ele>
        <time>2008-10-11T23:27:03Z</time>
      </trkpt>
      <trkpt lat="48.86432000" lon="8.445840000">
        <ele>267.38391</ele>
        <time>2008-10-11T23:27:08Z</time>
      </trkpt>
      <trkpt lat="48.86421700" lon="8.445818000">
        <ele>268.34509</ele>
        <time>2008-10-11T23:27:12Z</time>
      </trkpt>
      <trkpt lat="48.86407100" lon="8.445765000">
        <ele>267.38391</ele>
        <time>2008-10-11T23:27:18Z</time>
      </trkpt>
      <trkpt lat="48.86392400" lon="8.445734000">
        <ele>268.34509</ele>
        <time>2008-10-11T23:27:24Z</time>
      </trkpt>
      <trkpt lat="48.86385700" lon="8.445717000">
        <ele>270.26770</ele>
        <time>2008-10-11T23:27:27Z</time>
      </trkpt>
      <trkpt lat="48.86373300" lon="8.445704000">
        <ele>273.15185</ele>
        <time>2008-10-11T23:27:32Z</time>
      </trkpt>
      <trkpt lat="48.86369000" lon="8.445691000">
        <ele>272.67114</ele>
        <time>2008-10-11T23:27:34Z</time>
      </trkpt>
      <trkpt lat="48.86351200" lon="8.445711000">
        <ele>272.19043</ele>
        <time>2008-10-11T23:27:41Z</time>
      </trkpt>
      <trkpt lat="48.86338100" lon="8.445757000">
        <ele>272.67114</ele>
        <time>2008-10-11T23:27:46Z</time>
      </trkpt>
      <trkpt lat="48.86324100" lon="8.445806000">
        <ele>270.74841</ele>
        <time>2008-10-11T23:27:52Z</time>
      </trkpt>
      <trkpt lat="48.86320800" lon="8.445820000">
        <ele>271.22912</ele>
        <time>2008-10-11T23:27:53Z</time>
      </trkpt>
      <trkpt lat="48.86304800" lon="8.445916000">
        <ele>270.74841</ele>
        <time>2008-10-11T23:28:00Z</time>
      </trkpt>
      <trkpt lat="48.86292300" lon="8.445975000">
        <ele>274.59375</ele>
        <time>2008-10-11T23:28:05Z</time>
      </trkpt>
      <trkpt lat="48.86276500" lon="8.446004000">
        <ele>276.03564</ele>
        <time>2008-10-11T23:28:12Z</time>
      </trkpt>
      <trkpt lat="48.86266100" lon="8.446023000">
        <ele>277.47766</ele>
        <time>2008-10-11T23:28:16Z</time>
      </trkpt>
      <trkpt lat="48.86248800" lon="8.446112000">
        <ele>278.43896</ele>
        <time>2008-10-11T23:28:23Z</time>
      </trkpt>
      <trkpt lat="48.86234000" lon="8.446181000">
        <ele>276.51635</ele>
        <time>2008-10-11T23:28:29Z</time>
      </trkpt>
      <trkpt lat="48.86215400" lon="8.446230000">
        <ele>275.07446</ele>
        <time>2008-10-11T23:28:37Z</time>
      </trkpt>
      <trkpt lat="48.86203200" lon="8.446240000">
        <ele>272.19043</ele>
        <time>2008-10-11T23:28:42Z</time>
      </trkpt>
      <trkpt lat="48.86188400" lon="8.446211000">
        <ele>264.98059</ele>
        <time>2008-10-11T23:28:48Z</time>
      </trkpt>
      <trkpt lat="48.86172800" lon="8.446150000">
        <ele>261.13525</ele>
        <time>2008-10-11T23:28:54Z</time>
      </trkpt>
      <trkpt lat="48.86161200" lon="8.446149000">
        <ele>259.69335</ele>
        <time>2008-10-11T23:28:59Z</time>
      </trkpt>
      <trkpt lat="48.86150000" lon="8.446095000">
        <ele>257.77075</ele>
        <time>2008-10-11T23:29:04Z</time>
      </trkpt>
      <trkpt lat="48.86135300" lon="8.446074000">
        <ele>258.25134</ele>
        <time>2008-10-11T23:29:10Z</time>
      </trkpt>
      <trkpt lat="48.86120600" lon="8.446046000">
        <ele>258.25134</ele>
        <time>2008-10-11T23:29:15Z</time>
      </trkpt>
      <trkpt lat="48.86096300" lon="8.445996000">
        <ele>258.73193</ele>
        <time>2008-10-11T23:29:25Z</time>
      </trkpt>
      <trkpt lat="48.86086200" lon="8.445891000">
        <ele>258.73193</ele>
        <time>2008-10-11T23:29:30Z</time>
      </trkpt>
      <trkpt lat="48.86076600" lon="8.445754000">
        <ele>259.21264</ele>
        <time>2008-10-11T23:29:35Z</time>
      </trkpt>
      <trkpt lat="48.86066100" lon="8.445610000">
        <ele>258.25134</ele>
        <time>2008-10-11T23:29:41Z</time>
      </trkpt>
      <trkpt lat="48.86060500" lon="8.445447000">
        <ele>259.69335</ele>
        <time>2008-10-11T23:29:46Z</time>
      </trkpt>
      <trkpt lat="48.86054800" lon="8.445330000">
        <ele>260.17395</ele>
        <time>2008-10-11T23:29:50Z</time>
      </trkpt>
      <trkpt lat="48.86048700" lon="8.445211000">
        <ele>261.13525</ele>
        <time>2008-10-11T23:29:54Z</time>
      </trkpt>
      <trkpt lat="48.86041800" lon="8.445069000">
        <ele>263.53857</ele>
        <time>2008-10-11T23:29:58Z</time>
      </trkpt>
      <trkpt lat="48.86033100" lon="8.444869000">
        <ele>264.98059</ele>
        <time>2008-10-11T23:30:05Z</time>
      </trkpt>
      <trkpt lat="48.86028300" lon="8.444739000">
        <ele>266.42248</ele>
        <time>2008-10-11T23:30:09Z</time>
      </trkpt>
      <trkpt lat="48.86021500" lon="8.444566000">
        <ele>267.86450</ele>
        <time>2008-10-11T23:30:14Z</time>
      </trkpt>
      <trkpt lat="48.86020400" lon="8.444528000">
        <ele>268.34509</ele>
        <time>2008-10-11T23:30:15Z</time>
      </trkpt>
      <trkpt lat="48.86012100" lon="8.444326000">
        <ele>269.30651</ele>
        <time>2008-10-11T23:30:21Z</time>
      </trkpt>
      <trkpt lat="48.85999900" lon="8.444117000">
        <ele>269.78710</ele>
        <time>2008-10-11T23:30:29Z</time>
      </trkpt>
      <trkpt lat="48.85987200" lon="8.443982000">
        <ele>267.86450</ele>
        <time>2008-10-11T23:30:35Z</time>
      </trkpt>
      <trkpt lat="48.85972400" lon="8.443790000">
        <ele>267.38391</ele>
        <time>2008-10-11T23:30:43Z</time>
      </trkpt>
      <trkpt lat="48.85967100" lon="8.443610000">
        <ele>267.38391</ele>
        <time>2008-10-11T23:30:48Z</time>
      </trkpt>
      <trkpt lat="48.85962600" lon="8.443503000">
        <ele>267.38391</ele>
        <time>2008-10-11T23:30:51Z</time>
      </trkpt>
      <trkpt lat="48.85954500" lon="8.443385000">
        <ele>267.86450</ele>
        <time>2008-10-11T23:30:56Z</time>
      </trkpt>
      <trkpt lat="48.85945500" lon="8.443181000">
        <ele>267.86450</ele>
        <time>2008-10-11T23:31:02Z</time>
      </trkpt>
      <trkpt lat="48.85935300" lon="8.442997000">
        <ele>267.38391</ele>
        <time>2008-10-11T23:31:08Z</time>
      </trkpt>
      <trkpt lat="48.85924300" lon="8.442806000">
        <ele>266.90319</ele>
        <time>2008-10-11T23:31:15Z</time>
      </trkpt>
      <trkpt lat="48.85912600" lon="8.442562000">
        <ele>266.90319</ele>
        <time>2008-10-11T23:31:23Z</time>
      </trkpt>
      <trkpt lat="48.85903300" lon="8.442392000">
        <ele>266.90319</ele>
        <time>2008-10-11T23:31:29Z</time>
      </trkpt>
      <trkpt lat="48.85899000" lon="8.442227000">
        <ele>266.42248</ele>
        <time>2008-10-11T23:31:34Z</time>
      </trkpt>
      <trkpt lat="48.85888400" lon="8.442059000">
        <ele>265.46130</ele>
        <time>2008-10-11T23:31:40Z</time>
      </trkpt>
      <trkpt lat="48.85879300" lon="8.441917000">
        <ele>265.46130</ele>
        <time>2008-10-11T23:31:45Z</time>
      </trkpt>
      <trkpt lat="48.85873600" lon="8.441776000">
        <ele>266.42248</ele>
        <time>2008-10-11T23:31:49Z</time>
      </trkpt>
      <trkpt lat="48.85865100" lon="8.441564000">
        <ele>268.82580</ele>
        <time>2008-10-11T23:31:56Z</time>
      </trkpt>
      <trkpt lat="48.85856700" lon="8.441410000">
        <ele>269.30651</ele>
        <time>2008-10-11T23:32:01Z</time>
      </trkpt>
      <trkpt lat="48.85848100" lon="8.441175000">
        <ele>268.34509</ele>
        <time>2008-10-11T23:32:08Z</time>
      </trkpt>
      <trkpt lat="48.85839100" lon="8.440987000">
        <ele>267.86450</ele>
        <time>2008-10-11T23:32:14Z</time>
      </trkpt>
      <trkpt lat="48.85826700" lon="8.440794000">
        <ele>272.67114</ele>
        <time>2008-10-11T23:32:21Z</time>
      </trkpt>
      <trkpt lat="48.85817000" lon="8.440632000">
        <ele>274.59375</ele>
        <time>2008-10-11T23:32:27Z</time>
      </trkpt>
      <trkpt lat="48.85810000" lon="8.440450000">
        <ele>274.11303</ele>
        <time>2008-10-11T23:32:33Z</time>
      </trkpt>
      <trkpt lat="48.85799900" lon="8.440298000">
        <ele>276.03564</ele>
        <time>2008-10-11T23:32:38Z</time>
      </trkpt>
      <trkpt lat="48.85795700" lon="8.440164000">
        <ele>277.95825</ele>
        <time>2008-10-11T23:32:42Z</time>
      </trkpt>
      <trkpt lat="48.85783000" lon="8.440106000">
        <ele>278.91967</ele>
        <time>2008-10-11T23:32:48Z</time>
      </trkpt>
      <trkpt lat="48.85775700" lon="8.439956000">
        <ele>279.88085</ele>
        <time>2008-10-11T23:32:53Z</time>
      </trkpt>
      <trkpt lat="48.85766700" lon="8.439854000">
        <ele>277.47766</ele>
        <time>2008-10-11T23:32:57Z</time>
      </trkpt>
      <trkpt lat="48.85751600" lon="8.439787000">
        <ele>278.91967</ele>
        <time>2008-10-11T23:33:03Z</time>
      </trkpt>
      <trkpt lat="48.85737900" lon="8.439694000">
        <ele>279.40026</ele>
        <time>2008-10-11T23:33:09Z</time>
      </trkpt>
      <trkpt lat="48.85721500" lon="8.439642000">
        <ele>278.43896</ele>
        <time>2008-10-11T23:33:16Z</time>
      </trkpt>
      <trkpt lat="48.85707700" lon="8.439588000">
        <ele>280.36169</ele>
        <time>2008-10-11T23:33:22Z</time>
      </trkpt>
      <trkpt lat="48.85693300" lon="8.439487000">
        <ele>281.80358</ele>
        <time>2008-10-11T23:33:28Z</time>
      </trkpt>
      <trkpt lat="48.85686000" lon="8.439350000">
        <ele>280.36169</ele>
        <time>2008-10-11T23:33:33Z</time>
      </trkpt>
      <trkpt lat="48.85672400" lon="8.439256000">
        <ele>280.36169</ele>
        <time>2008-10-11T23:33:39Z</time>
      </trkpt>
      <trkpt lat="48.85661100" lon="8.439186000">
        <ele>282.28430</ele>
        <time>2008-10-11T23:33:44Z</time>
      </trkpt>
      <trkpt lat="48.85646000" lon="8.439169000">
        <ele>284.68762</ele>
        <time>2008-10-11T23:33:50Z</time>
      </trkpt>
      <trkpt lat="48.85643500" lon="8.439158000">
        <ele>284.68762</ele>
        <time>2008-10-11T23:33:51Z</time>
      </trkpt>
      <trkpt lat="48.85635400" lon="8.439114000">
        <ele>285.64880</ele>
        <time>2008-10-11T23:33:54Z</time>
      </trkpt>
      <trkpt lat="48.85627000" lon="8.439051000">
        <ele>285.64880</ele>
        <time>2008-10-11T23:33:58Z</time>
      </trkpt>
      <trkpt lat="48.85613600" lon="8.438965000">
        <ele>281.32299</ele>
        <time>2008-10-11T23:34:04Z</time>
      </trkpt>
      <trkpt lat="48.85600600" lon="8.438893000">
        <ele>283.24560</ele>
        <time>2008-10-11T23:34:09Z</time>
      </trkpt>
      <trkpt lat="48.85587600" lon="8.438820000">
        <ele>281.80358</ele>
        <time>2008-10-11T23:34:15Z</time>
      </trkpt>
      <trkpt lat="48.85571600" lon="8.438730000">
        <ele>279.88085</ele>
        <time>2008-10-11T23:34:22Z</time>
      </trkpt>
      <trkpt lat="48.85568900" lon="8.438717000">
        <ele>279.88085</ele>
        <time>2008-10-11T23:34:23Z</time>
      </trkpt>
      <trkpt lat="48.85552900" lon="8.438631000">
        <ele>278.91967</ele>
        <time>2008-10-11T23:34:30Z</time>
      </trkpt>
      <trkpt lat="48.85538100" lon="8.438567000">
        <ele>279.40026</ele>
        <time>2008-10-11T23:34:36Z</time>
      </trkpt>
      <trkpt lat="48.85524200" lon="8.438509000">
        <ele>279.40026</ele>
        <time>2008-10-11T23:34:42Z</time>
      </trkpt>
      <trkpt lat="48.85515100" lon="8.438462000">
        <ele>281.32299</ele>
        <time>2008-10-11T23:34:45Z</time>
      </trkpt>
      <trkpt lat="48.85505600" lon="8.438405000">
        <ele>280.84240</ele>
        <time>2008-10-11T23:34:49Z</time>
      </trkpt>
      <trkpt lat="48.85492900" lon="8.438366000">
        <ele>280.36169</ele>
        <time>2008-10-11T23:34:55Z</time>
      </trkpt>
      <trkpt lat="48.85485700" lon="8.438359000">
        <ele>281.32299</ele>
        <time>2008-10-11T23:34:58Z</time>
      </trkpt>
      <trkpt lat="48.85468100" lon="8.438405000">
        <ele>284.20690</ele>
        <time>2008-10-11T23:35:05Z</time>
      </trkpt>
      <trkpt lat="48.85454600" lon="8.438417000">
        <ele>286.12951</ele>
        <time>2008-10-11T23:35:10Z</time>
      </trkpt>
      <trkpt lat="48.85439100" lon="8.438439000">
        <ele>284.20690</ele>
        <time>2008-10-11T23:35:16Z</time>
      </trkpt>
      <trkpt lat="48.85424700" lon="8.438450000">
        <ele>285.16821</ele>
        <time>2008-10-11T23:35:22Z</time>
      </trkpt>
      <trkpt lat="48.85409500" lon="8.438485000">
        <ele>286.12951</ele>
        <time>2008-10-11T23:35:28Z</time>
      </trkpt>
      <trkpt lat="48.85398200" lon="8.438531000">
        <ele>290.45556</ele>
        <time>2008-10-11T23:35:33Z</time>
      </trkpt>
      <trkpt lat="48.85387300" lon="8.438538000">
        <ele>295.74267</ele>
        <time>2008-10-11T23:35:37Z</time>
      </trkpt>
      <trkpt lat="48.85371800" lon="8.438636000">
        <ele>300.54931</ele>
        <time>2008-10-11T23:35:44Z</time>
      </trkpt>
      <trkpt lat="48.85352400" lon="8.438709000">
        <ele>299.10730</ele>
        <time>2008-10-11T23:35:52Z</time>
      </trkpt>
      <trkpt lat="48.85336600" lon="8.438714000">
        <ele>293.82006</ele>
        <time>2008-10-11T23:35:58Z</time>
      </trkpt>
      <trkpt lat="48.85322400" lon="8.438724000">
        <ele>294.30078</ele>
        <time>2008-10-11T23:36:04Z</time>
      </trkpt>
      <trkpt lat="48.85308200" lon="8.438732000">
        <ele>294.78137</ele>
        <time>2008-10-11T23:36:10Z</time>
      </trkpt>
      <trkpt lat="48.85291500" lon="8.438748000">
        <ele>292.85876</ele>
        <time>2008-10-11T23:36:16Z</time>
      </trkpt>
      <trkpt lat="48.85277700" lon="8.438721000">
        <ele>290.45556</ele>
        <time>2008-10-11T23:36:22Z</time>
      </trkpt>
      <trkpt lat="48.85265000" lon="8.438704000">
        <ele>289.49414</ele>
        <time>2008-10-11T23:36:27Z</time>
      </trkpt>
      <trkpt lat="48.85248600" lon="8.438688000">
        <ele>291.41674</ele>
        <time>2008-10-11T23:36:34Z</time>
      </trkpt>
      <trkpt lat="48.85229400" lon="8.438717000">
        <ele>293.33935</ele>
        <time>2008-10-11T23:36:41Z</time>
      </trkpt>
      <trkpt lat="48.85215400" lon="8.438652000">
        <ele>285.64880</ele>
        <time>2008-10-11T23:36:47Z</time>
      </trkpt>
      <trkpt lat="48.85205000" lon="8.438655000">
        <ele>284.20690</ele>
        <time>2008-10-11T23:36:51Z</time>
      </trkpt>
      <trkpt lat="48.85202100" lon="8.438644000">
        <ele>283.72619</ele>
        <time>2008-10-11T23:36:53Z</time>
      </trkpt>
      <trkpt lat="48.85187600" lon="8.438614000">
        <ele>280.84240</ele>
        <time>2008-10-11T23:36:59Z</time>
      </trkpt>
      <trkpt lat="48.85173400" lon="8.438566000">
        <ele>282.28430</ele>
        <time>2008-10-11T23:37:04Z</time>
      </trkpt>
      <trkpt lat="48.85161300" lon="8.438496000">
        <ele>282.28430</ele>
        <time>2008-10-11T23:37:10Z</time>
      </trkpt>
      <trkpt lat="48.85146400" lon="8.438408000">
        <ele>282.76501</ele>
        <time>2008-10-11T23:37:16Z</time>
      </trkpt>
      <trkpt lat="48.85134100" lon="8.438271000">
        <ele>283.72619</ele>
        <time>2008-10-11T23:37:22Z</time>
      </trkpt>
      <trkpt lat="48.85119000" lon="8.438191000">
        <ele>283.24560</ele>
        <time>2008-10-11T23:37:28Z</time>
      </trkpt>
      <trkpt lat="48.85109200" lon="8.438084000">
        <ele>288.53295</ele>
        <time>2008-10-11T23:37:33Z</time>
      </trkpt>
      <trkpt lat="48.85097700" lon="8.437981000">
        <ele>289.49414</ele>
        <time>2008-10-11T23:37:39Z</time>
      </trkpt>
      <trkpt lat="48.85082600" lon="8.437834000">
        <ele>292.37817</ele>
        <time>2008-10-11T23:37:46Z</time>
      </trkpt>
      <trkpt lat="48.85066500" lon="8.437677000">
        <ele>286.61022</ele>
        <time>2008-10-11T23:37:53Z</time>
      </trkpt>
      <trkpt lat="48.85049600" lon="8.437550000">
        <ele>284.20690</ele>
        <time>2008-10-11T23:38:01Z</time>
      </trkpt>
      <trkpt lat="48.85031500" lon="8.437433000">
        <ele>286.61022</ele>
        <time>2008-10-11T23:38:09Z</time>
      </trkpt>
      <trkpt lat="48.85019100" lon="8.437351000">
        <ele>289.97485</ele>
        <time>2008-10-11T23:38:14Z</time>
      </trkpt>
      <trkpt lat="48.85010800" lon="8.437289000">
        <ele>292.37817</ele>
        <time>2008-10-11T23:38:18Z</time>
      </trkpt>
      <trkpt lat="48.84997700" lon="8.437175000">
        <ele>295.26196</ele>
        <time>2008-10-11T23:38:24Z</time>
      </trkpt>
      <trkpt lat="48.84982900" lon="8.437060000">
        <ele>298.14611</ele>
        <time>2008-10-11T23:38:31Z</time>
      </trkpt>
      <trkpt lat="48.84971000" lon="8.436911000">
        <ele>299.58801</ele>
        <time>2008-10-11T23:38:37Z</time>
      </trkpt>
      <trkpt lat="48.84955300" lon="8.436856000">
        <ele>301.51062</ele>
        <time>2008-10-11T23:38:43Z</time>
      </trkpt>
      <trkpt lat="48.84932000" lon="8.436826000">
        <ele>297.18469</ele>
        <time>2008-10-11T23:38:53Z</time>
      </trkpt>
      <trkpt lat="48.84918100" lon="8.436723000">
        <ele>291.41674</ele>
        <time>2008-10-11T23:38:59Z</time>
      </trkpt>
      <trkpt lat="48.84907000" lon="8.436731000">
        <ele>293.82006</ele>
        <time>2008-10-11T23:39:03Z</time>
      </trkpt>
      <trkpt lat="48.84895100" lon="8.436766000">
        <ele>299.58801</ele>
        <time>2008-10-11T23:39:08Z</time>
      </trkpt>
      <trkpt lat="48.84893500" lon="8.436764000">
        <ele>301.02990</ele>
        <time>2008-10-11T23:39:09Z</time>
      </trkpt>
      <trkpt lat="48.84882700" lon="8.436787000">
        <ele>300.54931</ele>
        <time>2008-10-11T23:39:13Z</time>
      </trkpt>
      <trkpt lat="48.84867300" lon="8.436791000">
        <ele>298.14611</ele>
        <time>2008-10-11T23:39:19Z</time>
      </trkpt>
      <trkpt lat="48.84854600" lon="8.436822000">
        <ele>294.78137</ele>
        <time>2008-10-11T23:39:24Z</time>
      </trkpt>
      <trkpt lat="48.84848600" lon="8.436855000">
        <ele>295.74267</ele>
        <time>2008-10-11T23:39:27Z</time>
      </trkpt>
      <trkpt lat="48.84840500" lon="8.436838000">
        <ele>291.41674</ele>
        <time>2008-10-11T23:39:30Z</time>
      </trkpt>
      <trkpt lat="48.84818200" lon="8.436963000">
        <ele>295.74267</ele>
        <time>2008-10-11T23:39:40Z</time>
      </trkpt>
      <trkpt lat="48.84806600" lon="8.436978000">
        <ele>295.26196</ele>
        <time>2008-10-11T23:39:44Z</time>
      </trkpt>
      <trkpt lat="48.84799800" lon="8.436983000">
        <ele>293.33935</ele>
        <time>2008-10-11T23:39:47Z</time>
      </trkpt>
      <trkpt lat="48.84789200" lon="8.437027000">
        <ele>295.26196</ele>
        <time>2008-10-11T23:39:52Z</time>
      </trkpt>
      <trkpt lat="48.84785800" lon="8.437034000">
        <ele>295.26196</ele>
        <time>2008-10-11T23:39:53Z</time>
      </trkpt>
      <trkpt lat="48.84770300" lon="8.437075000">
        <ele>295.26196</ele>
        <time>2008-10-11T23:39:59Z</time>
      </trkpt>
      <trkpt lat="48.84758300" lon="8.437156000">
        <ele>292.85876</ele>
        <time>2008-10-11T23:40:05Z</time>
      </trkpt>
      <trkpt lat="48.84741500" lon="8.437225000">
        <ele>290.93615</ele>
        <time>2008-10-11T23:40:11Z</time>
      </trkpt>
      <trkpt lat="48.84731500" lon="8.437299000">
        <ele>290.45556</ele>
        <time>2008-10-11T23:40:16Z</time>
      </trkpt>
      <trkpt lat="48.84716000" lon="8.437392000">
        <ele>294.78137</ele>
        <time>2008-10-11T23:40:23Z</time>
      </trkpt>
      <trkpt lat="48.84701800" lon="8.437424000">
        <ele>293.82006</ele>
        <time>2008-10-11T23:40:28Z</time>
      </trkpt>
      <trkpt lat="48.84686900" lon="8.437444000">
        <ele>292.85876</ele>
        <time>2008-10-11T23:40:34Z</time>
      </trkpt>
      <trkpt lat="48.84667900" lon="8.437554000">
        <ele>297.18469</ele>
        <time>2008-10-11T23:40:42Z</time>
      </trkpt>
      <trkpt lat="48.84657000" lon="8.437520000">
        <ele>294.30078</ele>
        <time>2008-10-11T23:40:47Z</time>
      </trkpt>
      <trkpt lat="48.84645000" lon="8.437589000">
        <ele>296.22351</ele>
        <time>2008-10-11T23:40:52Z</time>
      </trkpt>
      <trkpt lat="48.84626100" lon="8.437607000">
        <ele>296.70410</ele>
        <time>2008-10-11T23:41:00Z</time>
      </trkpt>
      <trkpt lat="48.84609200" lon="8.437594000">
        <ele>296.22351</ele>
        <time>2008-10-11T23:41:06Z</time>
      </trkpt>
      <trkpt lat="48.84591000" lon="8.437576000">
        <ele>295.26196</ele>
        <time>2008-10-11T23:41:14Z</time>
      </trkpt>
      <trkpt lat="48.84580300" lon="8.437570000">
        <ele>293.82006</ele>
        <time>2008-10-11T23:41:18Z</time>
      </trkpt>
      <trkpt lat="48.84565300" lon="8.437572000">
        <ele>293.82006</ele>
        <time>2008-10-11T23:41:24Z</time>
      </trkpt>
      <trkpt lat="48.84549200" lon="8.437613000">
        <ele>294.30078</ele>
        <time>2008-10-11T23:41:31Z</time>
      </trkpt>
      <trkpt lat="48.84538300" lon="8.437607000">
        <ele>291.89746</ele>
        <time>2008-10-11T23:41:35Z</time>
      </trkpt>
      <trkpt lat="48.84524400" lon="8.437604000">
        <ele>291.41674</ele>
        <time>2008-10-11T23:41:40Z</time>
      </trkpt>
      <trkpt lat="48.84513200" lon="8.437595000">
        <ele>292.85876</ele>
        <time>2008-10-11T23:41:45Z</time>
      </trkpt>
      <trkpt lat="48.84494200" lon="8.437581000">
        <ele>291.41674</ele>
        <time>2008-10-11T23:41:53Z</time>
      </trkpt>
      <trkpt lat="48.84491500" lon="8.437583000">
        <ele>291.89746</ele>
        <time>2008-10-11T23:41:54Z</time>
      </trkpt>
      <trkpt lat="48.84475500" lon="8.437556000">
        <ele>290.93615</ele>
        <time>2008-10-11T23:42:00Z</time>
      </trkpt>
      <trkpt lat="48.84469700" lon="8.437549000">
        <ele>291.41674</ele>
        <time>2008-10-11T23:42:02Z</time>
      </trkpt>
      <trkpt lat="48.84453900" lon="8.437508000">
        <ele>290.93615</ele>
        <time>2008-10-11T23:42:09Z</time>
      </trkpt>
      <trkpt lat="48.84443400" lon="8.437521000">
        <ele>290.93615</ele>
        <time>2008-10-11T23:42:13Z</time>
      </trkpt>
      <trkpt lat="48.84427800" lon="8.437521000">
        <ele>290.45556</ele>
        <time>2008-10-11T23:42:19Z</time>
      </trkpt>
      <trkpt lat="48.84414400" lon="8.437498000">
        <ele>289.97485</ele>
        <time>2008-10-11T23:42:25Z</time>
      </trkpt>
      <trkpt lat="48.84402900" lon="8.437493000">
        <ele>289.97485</ele>
        <time>2008-10-11T23:42:29Z</time>
      </trkpt>
      <trkpt lat="48.84390300" lon="8.437489000">
        <ele>292.37817</ele>
        <time>2008-10-11T23:42:34Z</time>
      </trkpt>
      <trkpt lat="48.84374100" lon="8.437471000">
        <ele>290.93615</ele>
        <time>2008-10-11T23:42:41Z</time>
      </trkpt>
      <trkpt lat="48.84360400" lon="8.437482000">
        <ele>290.93615</ele>
        <time>2008-10-11T23:42:46Z</time>
      </trkpt>
      <trkpt lat="48.84355400" lon="8.437490000">
        <ele>289.97485</ele>
        <time>2008-10-11T23:42:48Z</time>
      </trkpt>
      <trkpt lat="48.84345200" lon="8.437503000">
        <ele>289.97485</ele>
        <time>2008-10-11T23:42:52Z</time>
      </trkpt>
      <trkpt lat="48.84339300" lon="8.437517000">
        <ele>290.45556</ele>
        <time>2008-10-11T23:42:55Z</time>
      </trkpt>
      <trkpt lat="48.84323800" lon="8.437563000">
        <ele>290.45556</ele>
        <time>2008-10-11T23:43:01Z</time>
      </trkpt>
      <trkpt lat="48.84306300" lon="8.437633000">
        <ele>289.49414</ele>
        <time>2008-10-11T23:43:08Z</time>
      </trkpt>
      <trkpt lat="48.84291400" lon="8.437740000">
        <ele>291.89746</ele>
        <time>2008-10-11T23:43:15Z</time>
      </trkpt>
      <trkpt lat="48.84278900" lon="8.437887000">
        <ele>293.82006</ele>
        <time>2008-10-11T23:43:21Z</time>
      </trkpt>
      <trkpt lat="48.84265200" lon="8.438075000">
        <ele>290.45556</ele>
        <time>2008-10-11T23:43:29Z</time>
      </trkpt>
      <trkpt lat="48.84259000" lon="8.438222000">
        <ele>291.89746</ele>
        <time>2008-10-11T23:43:33Z</time>
      </trkpt>
      <trkpt lat="48.84250800" lon="8.438346000">
        <ele>291.41674</ele>
        <time>2008-10-11T23:43:38Z</time>
      </trkpt>
      <trkpt lat="48.84244100" lon="8.438409000">
        <ele>289.01355</ele>
        <time>2008-10-11T23:43:41Z</time>
      </trkpt>
      <trkpt lat="48.84235500" lon="8.438585000">
        <ele>288.53295</ele>
        <time>2008-10-11T23:43:47Z</time>
      </trkpt>
      <trkpt lat="48.84227200" lon="8.438723000">
        <ele>287.09082</ele>
        <time>2008-10-11T23:43:52Z</time>
      </trkpt>
      <trkpt lat="48.84217300" lon="8.438888000">
        <ele>287.57141</ele>
        <time>2008-10-11T23:43:58Z</time>
      </trkpt>
      <trkpt lat="48.84206900" lon="8.439016000">
        <ele>289.01355</ele>
        <time>2008-10-11T23:44:03Z</time>
      </trkpt>
      <trkpt lat="48.84195100" lon="8.439134000">
        <ele>284.68762</ele>
        <time>2008-10-11T23:44:09Z</time>
      </trkpt>
      <trkpt lat="48.84187200" lon="8.439233000">
        <ele>279.88085</ele>
        <time>2008-10-11T23:44:13Z</time>
      </trkpt>
      <trkpt lat="48.84169500" lon="8.439414000">
        <ele>279.88085</ele>
        <time>2008-10-11T23:44:21Z</time>
      </trkpt>
      <trkpt lat="48.84152400" lon="8.439547000">
        <ele>282.28430</ele>
        <time>2008-10-11T23:44:29Z</time>
      </trkpt>
      <trkpt lat="48.84137400" lon="8.439642000">
        <ele>283.72619</ele>
        <time>2008-10-11T23:44:36Z</time>
      </trkpt>
      <trkpt lat="48.84124600" lon="8.439694000">
        <ele>286.61022</ele>
        <time>2008-10-11T23:44:41Z</time>
      </trkpt>
      <trkpt lat="48.84111100" lon="8.439737000">
        <ele>290.93615</ele>
        <time>2008-10-11T23:44:46Z</time>
      </trkpt>
      <trkpt lat="48.84099000" lon="8.439791000">
        <ele>296.22351</ele>
        <time>2008-10-11T23:44:51Z</time>
      </trkpt>
      <trkpt lat="48.84087600" lon="8.439748000">
        <ele>298.62670</ele>
        <time>2008-10-11T23:44:56Z</time>
      </trkpt>
      <trkpt lat="48.84072500" lon="8.439687000">
        <ele>301.02990</ele>
        <time>2008-10-11T23:45:02Z</time>
      </trkpt>
      <trkpt lat="48.84052600" lon="8.439659000">
        <ele>307.27856</ele>
        <time>2008-10-11T23:45:10Z</time>
      </trkpt>
      <trkpt lat="48.84041100" lon="8.439649000">
        <ele>309.68188</ele>
        <time>2008-10-11T23:45:15Z</time>
      </trkpt>
      <trkpt lat="48.84034500" lon="8.439590000">
        <ele>311.12377</ele>
        <time>2008-10-11T23:45:18Z</time>
      </trkpt>
      <trkpt lat="48.84023900" lon="8.439567000">
        <ele>317.85302</ele>
        <time>2008-10-11T23:45:22Z</time>
      </trkpt>
      <trkpt lat="48.84015600" lon="8.439497000">
        <ele>319.77563</ele>
        <time>2008-10-11T23:45:26Z</time>
      </trkpt>
      <trkpt lat="48.84003100" lon="8.439424000">
        <ele>315.93042</ele>
        <time>2008-10-11T23:45:31Z</time>
      </trkpt>
      <trkpt lat="48.83988700" lon="8.439397000">
        <ele>312.56579</ele>
        <time>2008-10-11T23:45:37Z</time>
      </trkpt>
      <trkpt lat="48.83974900" lon="8.439325000">
        <ele>307.75927</ele>
        <time>2008-10-11T23:45:43Z</time>
      </trkpt>
      <trkpt lat="48.83968900" lon="8.439304000">
        <ele>306.31726</ele>
        <time>2008-10-11T23:45:46Z</time>
      </trkpt>
      <trkpt lat="48.83954800" lon="8.439232000">
        <ele>304.87524</ele>
        <time>2008-10-11T23:45:52Z</time>
      </trkpt>
      <trkpt lat="48.83951000" lon="8.439208000">
        <ele>303.43322</ele>
        <time>2008-10-11T23:45:53Z</time>
      </trkpt>
      <trkpt lat="48.83948400" lon="8.439191000">
        <ele>303.43322</ele>
        <time>2008-10-11T23:45:54Z</time>
      </trkpt>
      <trkpt lat="48.83936500" lon="8.439108000">
        <ele>307.75927</ele>
        <time>2008-10-11T23:46:00Z</time>
      </trkpt>
      <trkpt lat="48.83926000" lon="8.439057000">
        <ele>315.44982</ele>
        <time>2008-10-11T23:46:04Z</time>
      </trkpt>
      <trkpt lat="48.83918100" lon="8.439009000">
        <ele>322.17895</ele>
        <time>2008-10-11T23:46:07Z</time>
      </trkpt>
      <trkpt lat="48.83904000" lon="8.438940000">
        <ele>323.62097</ele>
        <time>2008-10-11T23:46:13Z</time>
      </trkpt>
      <trkpt lat="48.83892700" lon="8.438876000">
        <ele>327.94677</ele>
        <time>2008-10-11T23:46:18Z</time>
      </trkpt>
      <trkpt lat="48.83875600" lon="8.438767000">
        <ele>324.58227</ele>
        <time>2008-10-11T23:46:26Z</time>
      </trkpt>
      <trkpt lat="48.83864400" lon="8.438646000">
        <ele>320.73706</ele>
        <time>2008-10-11T23:46:31Z</time>
      </trkpt>
      <trkpt lat="48.83852900" lon="8.438486000">
        <ele>313.52722</ele>
        <time>2008-10-11T23:46:37Z</time>
      </trkpt>
      <trkpt lat="48.83836500" lon="8.438408000">
        <ele>311.12377</ele>
        <time>2008-10-11T23:46:44Z</time>
      </trkpt>
      <trkpt lat="48.83823900" lon="8.438391000">
        <ele>309.20117</ele>
        <time>2008-10-11T23:46:49Z</time>
      </trkpt>
      <trkpt lat="48.83811400" lon="8.438394000">
        <ele>310.16247</ele>
        <time>2008-10-11T23:46:54Z</time>
      </trkpt>
      <trkpt lat="48.83798300" lon="8.438426000">
        <ele>313.52722</ele>
        <time>2008-10-11T23:47:00Z</time>
      </trkpt>
      <trkpt lat="48.83796200" lon="8.438425000">
        <ele>314.00781</ele>
        <time>2008-10-11T23:47:00Z</time>
      </trkpt>
      <trkpt lat="48.83783300" lon="8.438454000">
        <ele>321.69836</ele>
        <time>2008-10-11T23:47:06Z</time>
      </trkpt>
      <trkpt lat="48.83772300" lon="8.438464000">
        <ele>323.14038</ele>
        <time>2008-10-11T23:47:10Z</time>
      </trkpt>
      <trkpt lat="48.83765000" lon="8.438488000">
        <ele>325.54357</ele>
        <time>2008-10-11T23:47:13Z</time>
      </trkpt>
      <trkpt lat="48.83752300" lon="8.438516000">
        <ele>327.94677</ele>
        <time>2008-10-11T23:47:18Z</time>
      </trkpt>
      <trkpt lat="48.83741400" lon="8.438550000">
        <ele>331.79211</ele>
        <time>2008-10-11T23:47:23Z</time>
      </trkpt>
      <trkpt lat="48.83730000" lon="8.438548000">
        <ele>331.79211</ele>
        <time>2008-10-11T23:47:27Z</time>
      </trkpt>
      <trkpt lat="48.83715000" lon="8.438614000">
        <ele>334.19543</ele>
        <time>2008-10-11T23:47:33Z</time>
      </trkpt>
      <trkpt lat="48.83704500" lon="8.438617000">
        <ele>335.63732</ele>
        <time>2008-10-11T23:47:38Z</time>
      </trkpt>
      <trkpt lat="48.83694800" lon="8.438639000">
        <ele>335.15673</ele>
        <time>2008-10-11T23:47:42Z</time>
      </trkpt>
      <trkpt lat="48.83682400" lon="8.438627000">
        <ele>336.11816</ele>
        <time>2008-10-11T23:47:47Z</time>
      </trkpt>
      <trkpt lat="48.83667700" lon="8.438669000">
        <ele>338.52148</ele>
        <time>2008-10-11T23:47:53Z</time>
      </trkpt>
      <trkpt lat="48.83653700" lon="8.438727000">
        <ele>341.40527</ele>
        <time>2008-10-11T23:47:58Z</time>
      </trkpt>
      <trkpt lat="48.83642000" lon="8.438703000">
        <ele>340.44409</ele>
        <time>2008-10-11T23:48:03Z</time>
      </trkpt>
      <trkpt lat="48.83638000" lon="8.438688000">
        <ele>339.00207</ele>
        <time>2008-10-11T23:48:05Z</time>
      </trkpt>
      <trkpt lat="48.83620200" lon="8.438730000">
        <ele>339.96337</ele>
        <time>2008-10-11T23:48:12Z</time>
      </trkpt>
      <trkpt lat="48.83603200" lon="8.438798000">
        <ele>343.32788</ele>
        <time>2008-10-11T23:48:19Z</time>
      </trkpt>
      <trkpt lat="48.83591400" lon="8.438811000">
        <ele>345.25061</ele>
        <time>2008-10-11T23:48:24Z</time>
      </trkpt>
      <trkpt lat="48.83581500" lon="8.438850000">
        <ele>346.21203</ele>
        <time>2008-10-11T23:48:28Z</time>
      </trkpt>
      <trkpt lat="48.83570900" lon="8.438870000">
        <ele>347.17321</ele>
        <time>2008-10-11T23:48:32Z</time>
      </trkpt>
      <trkpt lat="48.83560900" lon="8.438932000">
        <ele>348.13464</ele>
        <time>2008-10-11T23:48:36Z</time>
      </trkpt>
      <trkpt lat="48.83545900" lon="8.439030000">
        <ele>354.38317</ele>
        <time>2008-10-11T23:48:43Z</time>
      </trkpt>
      <trkpt lat="48.83537600" lon="8.438979000">
        <ele>352.94116</ele>
        <time>2008-10-11T23:48:47Z</time>
      </trkpt>
      <trkpt lat="48.83530900" lon="8.438882000">
        <ele>347.17321</ele>
        <time>2008-10-11T23:48:50Z</time>
      </trkpt>
      <trkpt lat="48.83524600" lon="8.438873000">
        <ele>342.84729</ele>
        <time>2008-10-11T23:48:53Z</time>
      </trkpt>
      <trkpt lat="48.83522000" lon="8.438891000">
        <ele>342.84729</ele>
        <time>2008-10-11T23:48:54Z</time>
      </trkpt>
      <trkpt lat="48.83519300" lon="8.438922000">
        <ele>343.32788</ele>
        <time>2008-10-11T23:48:55Z</time>
      </trkpt>
      <trkpt lat="48.83509800" lon="8.438977000">
        <ele>344.28942</ele>
        <time>2008-10-11T23:48:59Z</time>
      </trkpt>
      <trkpt lat="48.83505300" lon="8.438966000">
        <ele>339.96337</ele>
        <time>2008-10-11T23:49:01Z</time>
      </trkpt>
      <trkpt lat="48.83500900" lon="8.438960000">
        <ele>337.56005</ele>
        <time>2008-10-11T23:49:03Z</time>
      </trkpt>
      <trkpt lat="48.83493700" lon="8.439036000">
        <ele>338.04077</ele>
        <time>2008-10-11T23:49:06Z</time>
      </trkpt>
      <trkpt lat="48.83486200" lon="8.439081000">
        <ele>338.52148</ele>
        <time>2008-10-11T23:49:10Z</time>
      </trkpt>
      <trkpt lat="48.83478700" lon="8.439137000">
        <ele>339.96337</ele>
        <time>2008-10-11T23:49:13Z</time>
      </trkpt>
      <trkpt lat="48.83469900" lon="8.439141000">
        <ele>340.44409</ele>
        <time>2008-10-11T23:49:17Z</time>
      </trkpt>
      <trkpt lat="48.83462000" lon="8.439183000">
        <ele>339.96337</ele>
        <time>2008-10-11T23:49:20Z</time>
      </trkpt>
      <trkpt lat="48.83453500" lon="8.439224000">
        <ele>338.04077</ele>
        <time>2008-10-11T23:49:23Z</time>
      </trkpt>
      <trkpt lat="48.83443900" lon="8.439216000">
        <ele>337.07946</ele>
        <time>2008-10-11T23:49:27Z</time>
      </trkpt>
      <trkpt lat="48.83435000" lon="8.439181000">
        <ele>336.11816</ele>
        <time>2008-10-11T23:49:31Z</time>
      </trkpt>
      <trkpt lat="48.83430200" lon="8.439167000">
        <ele>341.40527</ele>
        <time>2008-10-11T23:49:33Z</time>
      </trkpt>
      <trkpt lat="48.83412800" lon="8.439192000">
        <ele>338.52148</ele>
        <time>2008-10-11T23:49:40Z</time>
      </trkpt>
      <trkpt lat="48.83395800" lon="8.439166000">
        <ele>331.31152</ele>
        <time>2008-10-11T23:49:47Z</time>
      </trkpt>
      <trkpt lat="48.83383500" lon="8.439228000">
        <ele>326.50488</ele>
        <time>2008-10-11T23:49:52Z</time>
      </trkpt>
      <trkpt lat="48.83374600" lon="8.439385000">
        <ele>322.65966</ele>
        <time>2008-10-11T23:49:57Z</time>
      </trkpt>
      <trkpt lat="48.83372900" lon="8.439605000">
        <ele>320.25634</ele>
        <time>2008-10-11T23:50:03Z</time>
      </trkpt>
      <trkpt lat="48.83373400" lon="8.439816000">
        <ele>320.25634</ele>
        <time>2008-10-11T23:50:09Z</time>
      </trkpt>
      <trkpt lat="48.83373900" lon="8.440031000">
        <ele>319.29504</ele>
        <time>2008-10-11T23:50:14Z</time>
      </trkpt>
      <trkpt lat="48.83373700" lon="8.440066000">
        <ele>319.77563</ele>
        <time>2008-10-11T23:50:15Z</time>
      </trkpt>
      <trkpt lat="48.83364400" lon="8.440176000">
        <ele>318.81433</ele>
        <time>2008-10-11T23:50:20Z</time>
      </trkpt>
      <trkpt lat="48.83347200" lon="8.440250000">
        <ele>318.81433</ele>
        <time>2008-10-11T23:50:27Z</time>
      </trkpt>
      <trkpt lat="48.83336500" lon="8.440285000">
        <ele>321.69836</ele>
        <time>2008-10-11T23:50:32Z</time>
      </trkpt>
      <trkpt lat="48.83319200" lon="8.440347000">
        <ele>321.69836</ele>
        <time>2008-10-11T23:50:39Z</time>
      </trkpt>
      <trkpt lat="48.83306300" lon="8.440376000">
        <ele>322.17895</ele>
        <time>2008-10-11T23:50:44Z</time>
      </trkpt>
      <trkpt lat="48.83295700" lon="8.440383000">
        <ele>323.62097</ele>
        <time>2008-10-11T23:50:48Z</time>
      </trkpt>
      <trkpt lat="48.83275100" lon="8.440392000">
        <ele>326.50488</ele>
        <time>2008-10-11T23:50:57Z</time>
      </trkpt>
      <trkpt lat="48.83257000" lon="8.440450000">
        <ele>327.94677</ele>
        <time>2008-10-11T23:51:04Z</time>
      </trkpt>
      <trkpt lat="48.83246500" lon="8.440444000">
        <ele>324.58227</ele>
        <time>2008-10-11T23:51:08Z</time>
      </trkpt>
      <trkpt lat="48.83230000" lon="8.440467000">
        <ele>321.21777</ele>
        <time>2008-10-11T23:51:15Z</time>
      </trkpt>
      <trkpt lat="48.83212700" lon="8.440485000">
        <ele>317.85302</ele>
        <time>2008-10-11T23:51:22Z</time>
      </trkpt>
      <trkpt lat="48.83193200" lon="8.440588000">
        <ele>322.17895</ele>
        <time>2008-10-11T23:51:30Z</time>
      </trkpt>
      <trkpt lat="48.83176800" lon="8.440636000">
        <ele>325.54357</ele>
        <time>2008-10-11T23:51:37Z</time>
      </trkpt>
      <trkpt lat="48.83155800" lon="8.440714000">
        <ele>330.83093</ele>
        <time>2008-10-11T23:51:45Z</time>
      </trkpt>
      <trkpt lat="48.83146000" lon="8.440695000">
        <ele>327.94677</ele>
        <time>2008-10-11T23:51:49Z</time>
      </trkpt>
      <trkpt lat="48.83130700" lon="8.440750000">
        <ele>330.83093</ele>
        <time>2008-10-11T23:51:56Z</time>
      </trkpt>
      <trkpt lat="48.83127900" lon="8.440755000">
        <ele>331.31152</ele>
        <time>2008-10-11T23:51:57Z</time>
      </trkpt>
      <trkpt lat="48.83109200" lon="8.440823000">
        <ele>335.15673</ele>
        <time>2008-10-11T23:52:04Z</time>
      </trkpt>
      <trkpt lat="48.83093500" lon="8.440778000">
        <ele>332.27282</ele>
        <time>2008-10-11T23:52:11Z</time>
      </trkpt>
      <trkpt lat="48.83082200" lon="8.440804000">
        <ele>334.67614</ele>
        <time>2008-10-11T23:52:15Z</time>
      </trkpt>
      <trkpt lat="48.83067300" lon="8.440739000">
        <ele>332.27282</ele>
        <time>2008-10-11T23:52:22Z</time>
      </trkpt>
      <trkpt lat="48.83056800" lon="8.440694000">
        <ele>328.90832</ele>
        <time>2008-10-11T23:52:26Z</time>
      </trkpt>
      <trkpt lat="48.83040300" lon="8.440725000">
        <ele>333.23413</ele>
        <time>2008-10-11T23:52:33Z</time>
      </trkpt>
      <trkpt lat="48.83027000" lon="8.440737000">
        <ele>333.71472</ele>
        <time>2008-10-11T23:52:38Z</time>
      </trkpt>
      <trkpt lat="48.83010600" lon="8.440732000">
        <ele>334.19543</ele>
        <time>2008-10-11T23:52:44Z</time>
      </trkpt>
      <trkpt lat="48.82994800" lon="8.440732000">
        <ele>329.38891</ele>
        <time>2008-10-11T23:52:51Z</time>
      </trkpt>
      <trkpt lat="48.82979400" lon="8.440761000">
        <ele>332.27282</ele>
        <time>2008-10-11T23:52:57Z</time>
      </trkpt>
      <trkpt lat="48.82965300" lon="8.440745000">
        <ele>332.27282</ele>
        <time>2008-10-11T23:53:03Z</time>
      </trkpt>
      <trkpt lat="48.82953400" lon="8.440739000">
        <ele>332.75354</ele>
        <time>2008-10-11T23:53:07Z</time>
      </trkpt>
      <trkpt lat="48.82936200" lon="8.440791000">
        <ele>340.92468</ele>
        <time>2008-10-11T23:53:14Z</time>
      </trkpt>
      <trkpt lat="48.82926100" lon="8.440728000">
        <ele>337.56005</ele>
        <time>2008-10-11T23:53:19Z</time>
      </trkpt>
      <trkpt lat="48.82915300" lon="8.440706000">
        <ele>338.04077</ele>
        <time>2008-10-11T23:53:23Z</time>
      </trkpt>
      <trkpt lat="48.82900000" lon="8.440715000">
        <ele>339.00207</ele>
        <time>2008-10-11T23:53:29Z</time>
      </trkpt>
      <trkpt lat="48.82880600" lon="8.440747000">
        <ele>342.36669</ele>
        <time>2008-10-11T23:53:37Z</time>
      </trkpt>
      <trkpt lat="48.82877100" lon="8.440769000">
        <ele>344.77002</ele>
        <time>2008-10-11T23:53:39Z</time>
      </trkpt>
      <trkpt lat="48.82860400" lon="8.440816000">
        <ele>351.49914</ele>
        <time>2008-10-11T23:53:45Z</time>
      </trkpt>
      <trkpt lat="48.82848100" lon="8.440734000">
        <ele>347.17321</ele>
        <time>2008-10-11T23:53:51Z</time>
      </trkpt>
      <trkpt lat="48.82833500" lon="8.440677000">
        <ele>344.28942</ele>
        <time>2008-10-11T23:53:57Z</time>
      </trkpt>
      <trkpt lat="48.82817800" lon="8.440639000">
        <ele>338.04077</ele>
        <time>2008-10-11T23:54:03Z</time>
      </trkpt>
      <trkpt lat="48.82802200" lon="8.440597000">
        <ele>332.75354</ele>
        <time>2008-10-11T23:54:10Z</time>
      </trkpt>
      <trkpt lat="48.82789100" lon="8.440618000">
        <ele>331.79211</ele>
        <time>2008-10-11T23:54:15Z</time>
      </trkpt>
      <trkpt lat="48.82771300" lon="8.440634000">
        <ele>334.67614</ele>
        <time>2008-10-11T23:54:22Z</time>
      </trkpt>
      <trkpt lat="48.82759600" lon="8.440648000">
        <ele>336.11816</ele>
        <time>2008-10-11T23:54:27Z</time>
      </trkpt>
      <trkpt lat="48.82742600" lon="8.440668000">
        <ele>339.48266</ele>
        <time>2008-10-11T23:54:33Z</time>
      </trkpt>
      <trkpt lat="48.82729500" lon="8.440663000">
        <ele>336.11816</ele>
        <time>2008-10-11T23:54:39Z</time>
      </trkpt>
      <trkpt lat="48.82713000" lon="8.440734000">
        <ele>338.52148</ele>
        <time>2008-10-11T23:54:46Z</time>
      </trkpt>
      <trkpt lat="48.82700200" lon="8.440733000">
        <ele>339.48266</ele>
        <time>2008-10-11T23:54:51Z</time>
      </trkpt>
      <trkpt lat="48.82684900" lon="8.440711000">
        <ele>339.96337</ele>
        <time>2008-10-11T23:54:57Z</time>
      </trkpt>
      <trkpt lat="48.82678800" lon="8.440706000">
        <ele>340.44409</ele>
        <time>2008-10-11T23:54:59Z</time>
      </trkpt>
      <trkpt lat="48.82662100" lon="8.440750000">
        <ele>342.36669</ele>
        <time>2008-10-11T23:55:06Z</time>
      </trkpt>
      <trkpt lat="48.82648300" lon="8.440713000">
        <ele>339.48266</ele>
        <time>2008-10-11T23:55:12Z</time>
      </trkpt>
      <trkpt lat="48.82638100" lon="8.440685000">
        <ele>336.59887</ele>
        <time>2008-10-11T23:55:16Z</time>
      </trkpt>
      <trkpt lat="48.82626500" lon="8.440677000">
        <ele>334.19543</ele>
        <time>2008-10-11T23:55:21Z</time>
      </trkpt>
      <trkpt lat="48.82618700" lon="8.440686000">
        <ele>337.56005</ele>
        <time>2008-10-11T23:55:24Z</time>
      </trkpt>
      <trkpt lat="48.82602800" lon="8.440731000">
        <ele>338.52148</ele>
        <time>2008-10-11T23:55:30Z</time>
      </trkpt>
      <trkpt lat="48.82589400" lon="8.440760000">
        <ele>339.48266</ele>
        <time>2008-10-11T23:55:36Z</time>
      </trkpt>
      <trkpt lat="48.82569500" lon="8.440860000">
        <ele>347.65393</ele>
        <time>2008-10-11T23:55:44Z</time>
      </trkpt>
      <trkpt lat="48.82551200" lon="8.440917000">
        <ele>347.17321</ele>
        <time>2008-10-11T23:55:51Z</time>
      </trkpt>
      <trkpt lat="48.82535600" lon="8.440997000">
        <ele>346.69262</ele>
        <time>2008-10-11T23:55:58Z</time>
      </trkpt>
      <trkpt lat="48.82518800" lon="8.441120000">
        <ele>353.42187</ele>
        <time>2008-10-11T23:56:05Z</time>
      </trkpt>
      <trkpt lat="48.82503600" lon="8.441162000">
        <ele>350.53784</ele>
        <time>2008-10-11T23:56:12Z</time>
      </trkpt>
      <trkpt lat="48.82492400" lon="8.441208000">
        <ele>351.01843</ele>
        <time>2008-10-11T23:56:16Z</time>
      </trkpt>
      <trkpt lat="48.82481000" lon="8.441250000">
        <ele>352.94116</ele>
        <time>2008-10-11T23:56:21Z</time>
      </trkpt>
      <trkpt lat="48.82470000" lon="8.441271000">
        <ele>350.53784</ele>
        <time>2008-10-11T23:56:25Z</time>
      </trkpt>
      <trkpt lat="48.82454000" lon="8.441367000">
        <ele>349.57653</ele>
        <time>2008-10-11T23:56:32Z</time>
      </trkpt>
      <trkpt lat="48.82440100" lon="8.441459000">
        <ele>346.21203</ele>
        <time>2008-10-11T23:56:38Z</time>
      </trkpt>
      <trkpt lat="48.82427500" lon="8.441488000">
        <ele>342.36669</ele>
        <time>2008-10-11T23:56:43Z</time>
      </trkpt>
      <trkpt lat="48.82409900" lon="8.441567000">
        <ele>338.52148</ele>
        <time>2008-10-11T23:56:51Z</time>
      </trkpt>
      <trkpt lat="48.82391600" lon="8.441637000">
        <ele>336.59887</ele>
        <time>2008-10-11T23:56:58Z</time>
      </trkpt>
      <trkpt lat="48.82375500" lon="8.441764000">
        <ele>335.15673</ele>
        <time>2008-10-11T23:57:06Z</time>
      </trkpt>
      <trkpt lat="48.82360300" lon="8.441862000">
        <ele>335.15673</ele>
        <time>2008-10-11T23:57:12Z</time>
      </trkpt>
      <trkpt lat="48.82345200" lon="8.441926000">
        <ele>333.71472</ele>
        <time>2008-10-11T23:57:19Z</time>
      </trkpt>
      <trkpt lat="48.82331400" lon="8.441994000">
        <ele>334.19543</ele>
        <time>2008-10-11T23:57:24Z</time>
      </trkpt>
      <trkpt lat="48.82317700" lon="8.442055000">
        <ele>332.27282</ele>
        <time>2008-10-11T23:57:30Z</time>
      </trkpt>
      <trkpt lat="48.82306700" lon="8.442142000">
        <ele>333.71472</ele>
        <time>2008-10-11T23:57:35Z</time>
      </trkpt>
      <trkpt lat="48.82294100" lon="8.442228000">
        <ele>334.19543</ele>
        <time>2008-10-11T23:57:41Z</time>
      </trkpt>
      <trkpt lat="48.82277200" lon="8.442279000">
        <ele>334.19543</ele>
        <time>2008-10-11T23:57:47Z</time>
      </trkpt>
      <trkpt lat="48.82264400" lon="8.442383000">
        <ele>337.07946</ele>
        <time>2008-10-11T23:57:53Z</time>
      </trkpt>
      <trkpt lat="48.82256900" lon="8.442460000">
        <ele>341.40527</ele>
        <time>2008-10-11T23:57:57Z</time>
      </trkpt>
      <trkpt lat="48.82246600" lon="8.442492000">
        <ele>339.96337</ele>
        <time>2008-10-11T23:58:01Z</time>
      </trkpt>
      <trkpt lat="48.82229900" lon="8.442600000">
        <ele>345.25061</ele>
        <time>2008-10-11T23:58:08Z</time>
      </trkpt>
      <trkpt lat="48.82212500" lon="8.442646000">
        <ele>349.57653</ele>
        <time>2008-10-11T23:58:15Z</time>
      </trkpt>
      <trkpt lat="48.82198200" lon="8.442606000">
        <ele>345.73132</ele>
        <time>2008-10-11T23:58:21Z</time>
      </trkpt>
      <trkpt lat="48.82179200" lon="8.442574000">
        <ele>342.84729</ele>
        <time>2008-10-11T23:58:29Z</time>
      </trkpt>
      <trkpt lat="48.82158300" lon="8.442637000">
        <ele>347.65393</ele>
        <time>2008-10-11T23:58:37Z</time>
      </trkpt>
      <trkpt lat="48.82141000" lon="8.442696000">
        <ele>350.53784</ele>
        <time>2008-10-11T23:58:45Z</time>
      </trkpt>
      <trkpt lat="48.82128400" lon="8.442685000">
        <ele>349.09582</ele>
        <time>2008-10-11T23:58:50Z</time>
      </trkpt>
      <trkpt lat="48.82114200" lon="8.442686000">
        <ele>348.61523</ele>
        <time>2008-10-11T23:58:55Z</time>
      </trkpt>
      <trkpt lat="48.82100000" lon="8.442710000">
        <ele>345.25061</ele>
        <time>2008-10-11T23:59:01Z</time>
      </trkpt>
      <trkpt lat="48.82084800" lon="8.442799000">
        <ele>345.73132</ele>
        <time>2008-10-11T23:59:08Z</time>
      </trkpt>
      <trkpt lat="48.82068600" lon="8.442920000">
        <ele>345.73132</ele>
        <time>2008-10-11T23:59:15Z</time>
      </trkpt>
      <trkpt lat="48.82056300" lon="8.442989000">
        <ele>343.80859</ele>
        <time>2008-10-11T23:59:20Z</time>
      </trkpt>
      <trkpt lat="48.82043800" lon="8.443055000">
        <ele>341.88598</ele>
        <time>2008-10-11T23:59:25Z</time>
      </trkpt>
      <trkpt lat="48.82031300" lon="8.443140000">
        <ele>339.96337</ele>
        <time>2008-10-11T23:59:31Z</time>
      </trkpt>
      <trkpt lat="48.82020100" lon="8.443201000">
        <ele>335.63732</ele>
        <time>2008-10-11T23:59:36Z</time>
      </trkpt>
      <trkpt lat="48.82005700" lon="8.443314000">
        <ele>334.19543</ele>
        <time>2008-10-11T23:59:42Z</time>
      </trkpt>
      <trkpt lat="48.81989000" lon="8.443488000">
        <ele>339.48266</ele>
        <time>2008-10-11T23:59:50Z</time>
      </trkpt>
      <trkpt lat="48.81975400" lon="8.443541000">
        <ele>336.11816</ele>
        <time>2008-10-11T23:59:56Z</time>
      </trkpt>
      <trkpt lat="48.81959700" lon="8.443624000">
        <ele>336.59887</ele>
        <time>2008-10-12T00:00:02Z</time>
      </trkpt>
      <trkpt lat="48.81946300" lon="8.443697000">
        <ele>336.59887</ele>
        <time>2008-10-12T00:00:08Z</time>
      </trkpt>
      <trkpt lat="48.81931000" lon="8.443741000">
        <ele>336.59887</ele>
        <time>2008-10-12T00:00:14Z</time>
      </trkpt>
      <trkpt lat="48.81918400" lon="8.443748000">
        <ele>335.63732</ele>
        <time>2008-10-12T00:00:19Z</time>
      </trkpt>
      <trkpt lat="48.81902400" lon="8.443764000">
        <ele>335.15673</ele>
        <time>2008-10-12T00:00:26Z</time>
      </trkpt>
      <trkpt lat="48.81885000" lon="8.443794000">
        <ele>335.63732</ele>
        <time>2008-10-12T00:00:33Z</time>
      </trkpt>
      <trkpt lat="48.81870500" lon="8.443784000">
        <ele>334.67614</ele>
        <time>2008-10-12T00:00:39Z</time>
      </trkpt>
      <trkpt lat="48.81854900" lon="8.443828000">
        <ele>337.56005</ele>
        <time>2008-10-12T00:00:45Z</time>
      </trkpt>
      <trkpt lat="48.81844600" lon="8.443814000">
        <ele>339.00207</ele>
        <time>2008-10-12T00:00:49Z</time>
      </trkpt>
      <trkpt lat="48.81832500" lon="8.443790000">
        <ele>339.96337</ele>
        <time>2008-10-12T00:00:54Z</time>
      </trkpt>
      <trkpt lat="48.81823200" lon="8.443785000">
        <ele>341.40527</ele>
        <time>2008-10-12T00:00:58Z</time>
      </trkpt>
      <trkpt lat="48.81819800" lon="8.443778000">
        <ele>340.92468</ele>
        <time>2008-10-12T00:00:59Z</time>
      </trkpt>
      <trkpt lat="48.81805800" lon="8.443760000">
        <ele>341.88598</ele>
        <time>2008-10-12T00:01:05Z</time>
      </trkpt>
      <trkpt lat="48.81792700" lon="8.443713000">
        <ele>342.36669</ele>
        <time>2008-10-12T00:01:10Z</time>
      </trkpt>
      <trkpt lat="48.81773800" lon="8.443644000">
        <ele>341.88598</ele>
        <time>2008-10-12T00:01:18Z</time>
      </trkpt>
      <trkpt lat="48.81761800" lon="8.443587000">
        <ele>337.56005</ele>
        <time>2008-10-12T00:01:23Z</time>
      </trkpt>
      <trkpt lat="48.81749200" lon="8.443540000">
        <ele>338.04077</ele>
        <time>2008-10-12T00:01:28Z</time>
      </trkpt>
      <trkpt lat="48.81733800" lon="8.443504000">
        <ele>339.96337</ele>
        <time>2008-10-12T00:01:34Z</time>
      </trkpt>
      <trkpt lat="48.81723600" lon="8.443489000">
        <ele>341.40527</ele>
        <time>2008-10-12T00:01:38Z</time>
      </trkpt>
      <trkpt lat="48.81711100" lon="8.443452000">
        <ele>343.32788</ele>
        <time>2008-10-12T00:01:44Z</time>
      </trkpt>
      <trkpt lat="48.81690400" lon="8.443396000">
        <ele>344.28942</ele>
        <time>2008-10-12T00:01:52Z</time>
      </trkpt>
      <trkpt lat="48.81670600" lon="8.443359000">
        <ele>345.73132</ele>
        <time>2008-10-12T00:02:00Z</time>
      </trkpt>
      <trkpt lat="48.81656900" lon="8.443319000">
        <ele>345.73132</ele>
        <time>2008-10-12T00:02:06Z</time>
      </trkpt>
      <trkpt lat="48.81641300" lon="8.443265000">
        <ele>345.25061</ele>
        <time>2008-10-12T00:02:12Z</time>
      </trkpt>
      <trkpt lat="48.81627000" lon="8.443253000">
        <ele>348.61523</ele>
        <time>2008-10-12T00:02:18Z</time>
      </trkpt>
      <trkpt lat="48.81616200" lon="8.443228000">
        <ele>351.01843</ele>
        <time>2008-10-12T00:02:22Z</time>
      </trkpt>
      <trkpt lat="48.81599300" lon="8.443173000">
        <ele>351.01843</ele>
        <time>2008-10-12T00:02:29Z</time>
      </trkpt>
      <trkpt lat="48.81584400" lon="8.443159000">
        <ele>352.94116</ele>
        <time>2008-10-12T00:02:35Z</time>
      </trkpt>
      <trkpt lat="48.81569200" lon="8.443038000">
        <ele>346.21203</ele>
        <time>2008-10-12T00:02:42Z</time>
      </trkpt>
      <trkpt lat="48.81549400" lon="8.442971000">
        <ele>343.80859</ele>
        <time>2008-10-12T00:02:50Z</time>
      </trkpt>
      <trkpt lat="48.81534900" lon="8.442974000">
        <ele>344.28942</ele>
        <time>2008-10-12T00:02:56Z</time>
      </trkpt>
      <trkpt lat="48.81518500" lon="8.442945000">
        <ele>343.80859</ele>
        <time>2008-10-12T00:03:02Z</time>
      </trkpt>
      <trkpt lat="48.81504200" lon="8.442956000">
        <ele>346.21203</ele>
        <time>2008-10-12T00:03:08Z</time>
      </trkpt>
      <trkpt lat="48.81495100" lon="8.442948000">
        <ele>346.69262</ele>
        <time>2008-10-12T00:03:12Z</time>
      </trkpt>
      <trkpt lat="48.81482600" lon="8.442964000">
        <ele>348.61523</ele>
        <time>2008-10-12T00:03:17Z</time>
      </trkpt>
      <trkpt lat="48.81464900" lon="8.442995000">
        <ele>351.97985</ele>
        <time>2008-10-12T00:03:24Z</time>
      </trkpt>
      <trkpt lat="48.81447200" lon="8.442932000">
        <ele>355.82519</ele>
        <time>2008-10-12T00:03:31Z</time>
      </trkpt>
      <trkpt lat="48.81437000" lon="8.442879000">
        <ele>355.34448</ele>
        <time>2008-10-12T00:03:35Z</time>
      </trkpt>
      <trkpt lat="48.81421500" lon="8.442787000">
        <ele>354.86377</ele>
        <time>2008-10-12T00:03:42Z</time>
      </trkpt>
      <trkpt lat="48.81408200" lon="8.442737000">
        <ele>355.34448</ele>
        <time>2008-10-12T00:03:48Z</time>
      </trkpt>
      <trkpt lat="48.81395200" lon="8.442659000">
        <ele>354.86377</ele>
        <time>2008-10-12T00:03:53Z</time>
      </trkpt>
      <trkpt lat="48.81386500" lon="8.442578000">
        <ele>352.46057</ele>
        <time>2008-10-12T00:03:57Z</time>
      </trkpt>
      <trkpt lat="48.81380800" lon="8.442553000">
        <ele>351.49914</ele>
        <time>2008-10-12T00:04:00Z</time>
      </trkpt>
      <trkpt lat="48.81369000" lon="8.442499000">
        <ele>352.46057</ele>
        <time>2008-10-12T00:04:05Z</time>
      </trkpt>
      <trkpt lat="48.81351600" lon="8.442389000">
        <ele>353.42187</ele>
        <time>2008-10-12T00:04:12Z</time>
      </trkpt>
      <trkpt lat="48.81337600" lon="8.442291000">
        <ele>353.42187</ele>
        <time>2008-10-12T00:04:18Z</time>
      </trkpt>
      <trkpt lat="48.81323300" lon="8.442153000">
        <ele>351.01843</ele>
        <time>2008-10-12T00:04:25Z</time>
      </trkpt>
      <trkpt lat="48.81311500" lon="8.441999000">
        <ele>348.61523</ele>
        <time>2008-10-12T00:04:31Z</time>
      </trkpt>
      <trkpt lat="48.81300700" lon="8.441827000">
        <ele>348.61523</ele>
        <time>2008-10-12T00:04:38Z</time>
      </trkpt>
      <trkpt lat="48.81295200" lon="8.441686000">
        <ele>348.61523</ele>
        <time>2008-10-12T00:04:42Z</time>
      </trkpt>
      <trkpt lat="48.81288300" lon="8.441473000">
        <ele>350.05725</ele>
        <time>2008-10-12T00:04:48Z</time>
      </trkpt>
      <trkpt lat="48.81285600" lon="8.441250000">
        <ele>348.61523</ele>
        <time>2008-10-12T00:04:54Z</time>
      </trkpt>
      <trkpt lat="48.81283200" lon="8.441095000">
        <ele>346.69262</ele>
        <time>2008-10-12T00:04:58Z</time>
      </trkpt>
    </trkseg>
    <trkseg>
      <trkpt lat="48.81281900" lon="8.441148000">
        <ele>345.73132</ele>
        <time>2008-10-11T22:24:41Z</time>
      </trkpt>
      <trkpt lat="48.81282100" lon="8.441149000">
        <ele>345.25061</ele>
        <time>2008-10-11T22:24:41Z</time>
      </trkpt>
      <trkpt lat="48.81282700" lon="8.441149000">
        <ele>345.25061</ele>
        <time>2008-10-11T22:24:41Z</time>
      </trkpt>
      <trkpt lat="48.81291400" lon="8.441242000">
        <ele>342.84729</ele>
        <time>2008-10-11T22:24:46Z</time>
      </trkpt>
      <trkpt lat="48.81298200" lon="8.441391000">
        <ele>341.88598</ele>
        <time>2008-10-11T22:24:50Z</time>
      </trkpt>
      <trkpt lat="48.81303000" lon="8.441548000">
        <ele>341.88598</ele>
        <time>2008-10-11T22:24:55Z</time>
      </trkpt>
      <trkpt lat="48.81309500" lon="8.441670000">
        <ele>341.88598</ele>
        <time>2008-10-11T22:24:59Z</time>
      </trkpt>
      <trkpt lat="48.81321700" lon="8.441860000">
        <ele>340.92468</ele>
        <time>2008-10-11T22:25:06Z</time>
      </trkpt>
      <trkpt lat="48.81332200" lon="8.441985000">
        <ele>341.88598</ele>
        <time>2008-10-11T22:25:12Z</time>
      </trkpt>
      <trkpt lat="48.81348500" lon="8.442109000">
        <ele>345.25061</ele>
        <time>2008-10-11T22:25:19Z</time>
      </trkpt>
      <trkpt lat="48.81360800" lon="8.442229000">
        <ele>348.13464</ele>
        <time>2008-10-11T22:25:25Z</time>
      </trkpt>
      <trkpt lat="48.81372000" lon="8.442304000">
        <ele>349.09582</ele>
        <time>2008-10-11T22:25:30Z</time>
      </trkpt>
      <trkpt lat="48.81381400" lon="8.442373000">
        <ele>351.49914</ele>
        <time>2008-10-11T22:25:34Z</time>
      </trkpt>
      <trkpt lat="48.81394000" lon="8.442436000">
        <ele>354.38317</ele>
        <time>2008-10-11T22:25:39Z</time>
      </trkpt>
      <trkpt lat="48.81411700" lon="8.442486000">
        <ele>356.78637</ele>
        <time>2008-10-11T22:25:46Z</time>
      </trkpt>
      <trkpt lat="48.81428600" lon="8.442551000">
        <ele>356.78637</ele>
        <time>2008-10-11T22:25:53Z</time>
      </trkpt>
      <trkpt lat="48.81439900" lon="8.442629000">
        <ele>355.34448</ele>
        <time>2008-10-11T22:25:58Z</time>
      </trkpt>
      <trkpt lat="48.81447300" lon="8.442634000">
        <ele>350.05725</ele>
        <time>2008-10-11T22:26:01Z</time>
      </trkpt>
      <trkpt lat="48.81464800" lon="8.442689000">
        <ele>342.36669</ele>
        <time>2008-10-11T22:26:08Z</time>
      </trkpt>
      <trkpt lat="48.81474000" lon="8.442779000">
        <ele>341.40527</ele>
        <time>2008-10-11T22:26:13Z</time>
      </trkpt>
      <trkpt lat="48.81488400" lon="8.442797000">
        <ele>340.44409</ele>
        <time>2008-10-11T22:26:18Z</time>
      </trkpt>
      <trkpt lat="48.81490800" lon="8.442809000">
        <ele>341.40527</ele>
        <time>2008-10-11T22:26:20Z</time>
      </trkpt>
      <trkpt lat="48.81505800" lon="8.442840000">
        <ele>346.21203</ele>
        <time>2008-10-11T22:26:26Z</time>
      </trkpt>
      <trkpt lat="48.81519100" lon="8.442867000">
        <ele>346.21203</ele>
        <time>2008-10-11T22:26:31Z</time>
      </trkpt>
      <trkpt lat="48.81533200" lon="8.442872000">
        <ele>343.80859</ele>
        <time>2008-10-11T22:26:37Z</time>
      </trkpt>
      <trkpt lat="48.81546500" lon="8.442896000">
        <ele>344.77002</ele>
        <time>2008-10-11T22:26:42Z</time>
      </trkpt>
    </trkseg>
    <trkseg>
      <trkpt lat="48.81546500" lon="8.442896000">
        <ele>344.77002</ele>
        <time>2008-10-11T22:24:41Z</time>
      </trkpt>
      <trkpt lat="48.81551500" lon="8.442909000">
        <ele>343.80859</ele>
        <time>2008-10-11T22:24:43Z</time>
      </trkpt>
      <trkpt lat="48.81567000" lon="8.442928000">
        <ele>342.84729</ele>
        <time>2008-10-11T22:24:49Z</time>
      </trkpt>
      <trkpt lat="48.81582900" lon="8.442967000">
        <ele>344.28942</ele>
        <time>2008-10-11T22:24:56Z</time>
      </trkpt>
      <trkpt lat="48.81596100" lon="8.442992000">
        <ele>346.21203</ele>
        <time>2008-10-11T22:25:01Z</time>
      </trkpt>
      <trkpt lat="48.81609000" lon="8.443012000">
        <ele>349.57653</ele>
        <time>2008-10-11T22:25:06Z</time>
      </trkpt>
      <trkpt lat="48.81625300" lon="8.443095000">
        <ele>355.34448</ele>
        <time>2008-10-11T22:25:13Z</time>
      </trkpt>
      <trkpt lat="48.81637100" lon="8.443123000">
        <ele>358.22839</ele>
        <time>2008-10-11T22:25:18Z</time>
      </trkpt>
      <trkpt lat="48.81644400" lon="8.443199000">
        <ele>362.55432</ele>
        <time>2008-10-11T22:25:22Z</time>
      </trkpt>
      <trkpt lat="48.81649000" lon="8.443214000">
        <ele>363.99633</ele>
        <time>2008-10-11T22:25:23Z</time>
      </trkpt>
      <trkpt lat="48.81670500" lon="8.443275000">
        <ele>365.43835</ele>
        <time>2008-10-11T22:25:32Z</time>
      </trkpt>
      <trkpt lat="48.81683700" lon="8.443300000">
        <ele>363.03503</ele>
        <time>2008-10-11T22:25:38Z</time>
      </trkpt>
      <trkpt lat="48.81696700" lon="8.443372000">
        <ele>363.99633</ele>
        <time>2008-10-11T22:25:43Z</time>
      </trkpt>
      <trkpt lat="48.81714800" lon="8.443407000">
        <ele>362.07373</ele>
        <time>2008-10-11T22:25:50Z</time>
      </trkpt>
      <trkpt lat="48.81724800" lon="8.443420000">
        <ele>361.59314</ele>
        <time>2008-10-11T22:25:54Z</time>
      </trkpt>
      <trkpt lat="48.81731700" lon="8.443421000">
        <ele>356.78637</ele>
        <time>2008-10-11T22:25:57Z</time>
      </trkpt>
      <trkpt lat="48.81746500" lon="8.443463000">
        <ele>354.86377</ele>
        <time>2008-10-11T22:26:03Z</time>
      </trkpt>
      <trkpt lat="48.81769000" lon="8.443513000">
        <ele>352.46057</ele>
        <time>2008-10-11T22:26:12Z</time>
      </trkpt>
      <trkpt lat="48.81776400" lon="8.443553000">
        <ele>354.38317</ele>
        <time>2008-10-11T22:26:15Z</time>
      </trkpt>
      <trkpt lat="48.81791700" lon="8.443596000">
        <ele>355.82519</ele>
        <time>2008-10-11T22:26:22Z</time>
      </trkpt>
      <trkpt lat="48.81810400" lon="8.443626000">
        <ele>355.82519</ele>
        <time>2008-10-11T22:26:29Z</time>
      </trkpt>
      <trkpt lat="48.81827000" lon="8.443655000">
        <ele>353.90258</ele>
        <time>2008-10-11T22:26:36Z</time>
      </trkpt>
      <trkpt lat="48.81838800" lon="8.443692000">
        <ele>354.38317</ele>
        <time>2008-10-11T22:26:41Z</time>
      </trkpt>
      <trkpt lat="48.81841500" lon="8.443700000">
        <ele>356.78637</ele>
        <time>2008-10-11T22:26:42Z</time>
      </trkpt>
      <trkpt lat="48.81854700" lon="8.443720000">
        <ele>360.15112</ele>
        <time>2008-10-11T22:26:47Z</time>
      </trkpt>
      <trkpt lat="48.81867000" lon="8.443732000">
        <ele>361.59314</ele>
        <time>2008-10-11T22:26:52Z</time>
      </trkpt>
      <trkpt lat="48.81879500" lon="8.443747000">
        <ele>361.59314</ele>
        <time>2008-10-11T22:26:57Z</time>
      </trkpt>
      <trkpt lat="48.81894900" lon="8.443748000">
        <ele>359.18969</ele>
        <time>2008-10-11T22:27:03Z</time>
      </trkpt>
      <trkpt lat="48.81910900" lon="8.443745000">
        <ele>358.22839</ele>
        <time>2008-10-11T22:27:10Z</time>
      </trkpt>
      <trkpt lat="48.81914800" lon="8.443724000">
        <ele>353.90258</ele>
        <time>2008-10-11T22:27:11Z</time>
      </trkpt>
      <trkpt lat="48.81932400" lon="8.443678000">
        <ele>348.13464</ele>
        <time>2008-10-11T22:27:18Z</time>
      </trkpt>
      <trkpt lat="48.81933900" lon="8.443669000">
        <ele>346.21203</ele>
        <time>2008-10-11T22:27:19Z</time>
      </trkpt>
      <trkpt lat="48.81953300" lon="8.443577000">
        <ele>341.40527</ele>
        <time>2008-10-11T22:27:27Z</time>
      </trkpt>
      <trkpt lat="48.81959400" lon="8.443537000">
        <ele>342.84729</ele>
        <time>2008-10-11T22:27:30Z</time>
      </trkpt>
      <trkpt lat="48.81974200" lon="8.443455000">
        <ele>344.28942</ele>
        <time>2008-10-11T22:27:36Z</time>
      </trkpt>
      <trkpt lat="48.81987300" lon="8.443364000">
        <ele>343.80859</ele>
        <time>2008-10-11T22:27:42Z</time>
      </trkpt>
      <trkpt lat="48.81989500" lon="8.443352000">
        <ele>343.32788</ele>
        <time>2008-10-11T22:27:43Z</time>
      </trkpt>
      <trkpt lat="48.81997800" lon="8.443288000">
        <ele>347.17321</ele>
        <time>2008-10-11T22:27:47Z</time>
      </trkpt>
      <trkpt lat="48.82009500" lon="8.443120000">
        <ele>349.57653</ele>
        <time>2008-10-11T22:27:53Z</time>
      </trkpt>
      <trkpt lat="48.82023200" lon="8.443002000">
        <ele>343.32788</ele>
        <time>2008-10-11T22:27:59Z</time>
      </trkpt>
      <trkpt lat="48.82036100" lon="8.442935000">
        <ele>350.05725</ele>
        <time>2008-10-11T22:28:05Z</time>
      </trkpt>
      <trkpt lat="48.82057800" lon="8.442823000">
        <ele>348.61523</ele>
        <time>2008-10-11T22:28:14Z</time>
      </trkpt>
      <trkpt lat="48.82069700" lon="8.442737000">
        <ele>347.65393</ele>
        <time>2008-10-11T22:28:19Z</time>
      </trkpt>
      <trkpt lat="48.82079800" lon="8.442672000">
        <ele>350.05725</ele>
        <time>2008-10-11T22:28:24Z</time>
      </trkpt>
      <trkpt lat="48.82090400" lon="8.442637000">
        <ele>349.09582</ele>
        <time>2008-10-11T22:28:28Z</time>
      </trkpt>
      <trkpt lat="48.82103300" lon="8.442593000">
        <ele>351.01843</ele>
        <time>2008-10-11T22:28:33Z</time>
      </trkpt>
      <trkpt lat="48.82119700" lon="8.442595000">
        <ele>350.05725</ele>
        <time>2008-10-11T22:28:40Z</time>
      </trkpt>
      <trkpt lat="48.82138300" lon="8.442518000">
        <ele>348.13464</ele>
        <time>2008-10-11T22:28:48Z</time>
      </trkpt>
      <trkpt lat="48.82154600" lon="8.442459000">
        <ele>346.21203</ele>
        <time>2008-10-11T22:28:54Z</time>
      </trkpt>
      <trkpt lat="48.82157600" lon="8.442460000">
        <ele>347.17321</ele>
        <time>2008-10-11T22:28:55Z</time>
      </trkpt>
      <trkpt lat="48.82171700" lon="8.442473000">
        <ele>350.05725</ele>
        <time>2008-10-11T22:29:01Z</time>
      </trkpt>
      <trkpt lat="48.82184100" lon="8.442517000">
        <ele>352.94116</ele>
        <time>2008-10-11T22:29:06Z</time>
      </trkpt>
      <trkpt lat="48.82185500" lon="8.442525000">
        <ele>353.42187</ele>
        <time>2008-10-11T22:29:07Z</time>
      </trkpt>
      <trkpt lat="48.82198600" lon="8.442498000">
        <ele>350.05725</ele>
        <time>2008-10-11T22:29:12Z</time>
      </trkpt>
      <trkpt lat="48.82212200" lon="8.442452000">
        <ele>350.05725</ele>
        <time>2008-10-11T22:29:18Z</time>
      </trkpt>
      <trkpt lat="48.82235800" lon="8.442377000">
        <ele>348.61523</ele>
        <time>2008-10-11T22:29:27Z</time>
      </trkpt>
      <trkpt lat="48.82248000" lon="8.442348000">
        <ele>344.28942</ele>
        <time>2008-10-11T22:29:32Z</time>
      </trkpt>
      <trkpt lat="48.82258600" lon="8.442306000">
        <ele>341.88598</ele>
        <time>2008-10-11T22:29:37Z</time>
      </trkpt>
      <trkpt lat="48.82280500" lon="8.442229000">
        <ele>346.21203</ele>
        <time>2008-10-11T22:29:46Z</time>
      </trkpt>
      <trkpt lat="48.82297800" lon="8.442161000">
        <ele>345.73132</ele>
        <time>2008-10-11T22:29:53Z</time>
      </trkpt>
      <trkpt lat="48.82309300" lon="8.442096000">
        <ele>348.61523</ele>
        <time>2008-10-11T22:29:58Z</time>
      </trkpt>
      <trkpt lat="48.82321200" lon="8.442039000">
        <ele>346.69262</ele>
        <time>2008-10-11T22:30:03Z</time>
      </trkpt>
      <trkpt lat="48.82333000" lon="8.441970000">
        <ele>344.28942</ele>
        <time>2008-10-11T22:30:08Z</time>
      </trkpt>
      <trkpt lat="48.82348500" lon="8.441853000">
        <ele>341.40527</ele>
        <time>2008-10-11T22:30:15Z</time>
      </trkpt>
      <trkpt lat="48.82362300" lon="8.441774000">
        <ele>335.15673</ele>
        <time>2008-10-11T22:30:21Z</time>
      </trkpt>
      <trkpt lat="48.82376300" lon="8.441687000">
        <ele>335.63732</ele>
        <time>2008-10-11T22:30:27Z</time>
      </trkpt>
      <trkpt lat="48.82380700" lon="8.441658000">
        <ele>336.59887</ele>
        <time>2008-10-11T22:30:29Z</time>
      </trkpt>
      <trkpt lat="48.82390500" lon="8.441548000">
        <ele>341.88598</ele>
        <time>2008-10-11T22:30:33Z</time>
      </trkpt>
      <trkpt lat="48.82406300" lon="8.441465000">
        <ele>342.84729</ele>
        <time>2008-10-11T22:30:40Z</time>
      </trkpt>
      <trkpt lat="48.82415600" lon="8.441396000">
        <ele>344.77002</ele>
        <time>2008-10-11T22:30:44Z</time>
      </trkpt>
      <trkpt lat="48.82418000" lon="8.441386000">
        <ele>345.25061</ele>
        <time>2008-10-11T22:30:45Z</time>
      </trkpt>
      <trkpt lat="48.82431200" lon="8.441321000">
        <ele>341.88598</ele>
        <time>2008-10-11T22:30:51Z</time>
      </trkpt>
      <trkpt lat="48.82440000" lon="8.441253000">
        <ele>343.32788</ele>
        <time>2008-10-11T22:30:55Z</time>
      </trkpt>
      <trkpt lat="48.82459800" lon="8.441183000">
        <ele>347.65393</ele>
        <time>2008-10-11T22:31:03Z</time>
      </trkpt>
      <trkpt lat="48.82481100" lon="8.441053000">
        <ele>351.97985</ele>
        <time>2008-10-11T22:31:12Z</time>
      </trkpt>
      <trkpt lat="48.82487000" lon="8.441046000">
        <ele>351.97985</ele>
        <time>2008-10-11T22:31:14Z</time>
      </trkpt>
      <trkpt lat="48.82504300" lon="8.441013000">
        <ele>351.97985</ele>
        <time>2008-10-11T22:31:21Z</time>
      </trkpt>
      <trkpt lat="48.82511400" lon="8.440955000">
        <ele>345.25061</ele>
        <time>2008-10-11T22:31:25Z</time>
      </trkpt>
      <trkpt lat="48.82515900" lon="8.440913000">
        <ele>343.80859</ele>
        <time>2008-10-11T22:31:27Z</time>
      </trkpt>
      <trkpt lat="48.82531400" lon="8.440839000">
        <ele>340.44409</ele>
        <time>2008-10-11T22:31:33Z</time>
      </trkpt>
      <trkpt lat="48.82541400" lon="8.440844000">
        <ele>343.80859</ele>
        <time>2008-10-11T22:31:37Z</time>
      </trkpt>
      <trkpt lat="48.82542800" lon="8.440847000">
        <ele>345.25061</ele>
        <time>2008-10-11T22:31:38Z</time>
      </trkpt>
      <trkpt lat="48.82566700" lon="8.440772000">
        <ele>351.49914</ele>
        <time>2008-10-11T22:31:48Z</time>
      </trkpt>
      <trkpt lat="48.82584700" lon="8.440694000">
        <ele>352.94116</ele>
        <time>2008-10-11T22:31:55Z</time>
      </trkpt>
      <trkpt lat="48.82598200" lon="8.440636000">
        <ele>352.46057</ele>
        <time>2008-10-11T22:32:01Z</time>
      </trkpt>
      <trkpt lat="48.82617500" lon="8.440566000">
        <ele>353.42187</ele>
        <time>2008-10-11T22:32:09Z</time>
      </trkpt>
      <trkpt lat="48.82625000" lon="8.440542000">
        <ele>354.38317</ele>
        <time>2008-10-11T22:32:12Z</time>
      </trkpt>
      <trkpt lat="48.82634700" lon="8.440563000">
        <ele>356.30578</ele>
        <time>2008-10-11T22:32:16Z</time>
      </trkpt>
      <trkpt lat="48.82648000" lon="8.440584000">
        <ele>351.49914</ele>
        <time>2008-10-11T22:32:21Z</time>
      </trkpt>
      <trkpt lat="48.82657400" lon="8.440598000">
        <ele>351.49914</ele>
        <time>2008-10-11T22:32:25Z</time>
      </trkpt>
      <trkpt lat="48.82672400" lon="8.440583000">
        <ele>343.80859</ele>
        <time>2008-10-11T22:32:31Z</time>
      </trkpt>
      <trkpt lat="48.82684200" lon="8.440591000">
        <ele>340.44409</ele>
        <time>2008-10-11T22:32:36Z</time>
      </trkpt>
      <trkpt lat="48.82700200" lon="8.440597000">
        <ele>339.96337</ele>
        <time>2008-10-11T22:32:42Z</time>
      </trkpt>
      <trkpt lat="48.82709900" lon="8.440564000">
        <ele>336.59887</ele>
        <time>2008-10-11T22:32:46Z</time>
      </trkpt>
      <trkpt lat="48.82713400" lon="8.440577000">
        <ele>335.63732</ele>
        <time>2008-10-11T22:32:47Z</time>
      </trkpt>
      <trkpt lat="48.82730100" lon="8.440573000">
        <ele>339.00207</ele>
        <time>2008-10-11T22:32:54Z</time>
      </trkpt>
      <trkpt lat="48.82737200" lon="8.440561000">
        <ele>339.48266</ele>
        <time>2008-10-11T22:32:57Z</time>
      </trkpt>
      <trkpt lat="48.82744700" lon="8.440580000">
        <ele>340.92468</ele>
        <time>2008-10-11T22:33:00Z</time>
      </trkpt>
      <trkpt lat="48.82754900" lon="8.440603000">
        <ele>337.56005</ele>
        <time>2008-10-11T22:33:04Z</time>
      </trkpt>
      <trkpt lat="48.82767200" lon="8.440593000">
        <ele>336.11816</ele>
        <time>2008-10-11T22:33:09Z</time>
      </trkpt>
      <trkpt lat="48.82788800" lon="8.440544000">
        <ele>336.11816</ele>
        <time>2008-10-11T22:33:18Z</time>
      </trkpt>
      <trkpt lat="48.82796900" lon="8.440542000">
        <ele>335.15673</ele>
        <time>2008-10-11T22:33:21Z</time>
      </trkpt>
      <trkpt lat="48.82811400" lon="8.440521000">
        <ele>332.75354</ele>
        <time>2008-10-11T22:33:27Z</time>
      </trkpt>
      <trkpt lat="48.82827000" lon="8.440545000">
        <ele>333.71472</ele>
        <time>2008-10-11T22:33:33Z</time>
      </trkpt>
      <trkpt lat="48.82848100" lon="8.440585000">
        <ele>339.48266</ele>
        <time>2008-10-11T22:33:42Z</time>
      </trkpt>
      <trkpt lat="48.82856600" lon="8.440589000">
        <ele>340.44409</ele>
        <time>2008-10-11T22:33:45Z</time>
      </trkpt>
      <trkpt lat="48.82867200" lon="8.440594000">
        <ele>339.00207</ele>
        <time>2008-10-11T22:33:49Z</time>
      </trkpt>
      <trkpt lat="48.82881500" lon="8.440612000">
        <ele>340.92468</ele>
        <time>2008-10-11T22:33:55Z</time>
      </trkpt>
      <trkpt lat="48.82896000" lon="8.440637000">
        <ele>341.40527</ele>
        <time>2008-10-11T22:34:01Z</time>
      </trkpt>
      <trkpt lat="48.82912400" lon="8.440595000">
        <ele>335.63732</ele>
        <time>2008-10-11T22:34:08Z</time>
      </trkpt>
      <trkpt lat="48.82924400" lon="8.440595000">
        <ele>337.07946</ele>
        <time>2008-10-11T22:34:12Z</time>
      </trkpt>
      <trkpt lat="48.82939800" lon="8.440603000">
        <ele>342.84729</ele>
        <time>2008-10-11T22:34:19Z</time>
      </trkpt>
      <trkpt lat="48.82949800" lon="8.440616000">
        <ele>345.25061</ele>
        <time>2008-10-11T22:34:23Z</time>
      </trkpt>
      <trkpt lat="48.82957200" lon="8.440687000">
        <ele>351.01843</ele>
        <time>2008-10-11T22:34:26Z</time>
      </trkpt>
      <trkpt lat="48.82970400" lon="8.440733000">
        <ele>349.09582</ele>
        <time>2008-10-11T22:34:31Z</time>
      </trkpt>
      <trkpt lat="48.82989900" lon="8.440685000">
        <ele>349.57653</ele>
        <time>2008-10-11T22:34:39Z</time>
      </trkpt>
      <trkpt lat="48.83001300" lon="8.440732000">
        <ele>352.46057</ele>
        <time>2008-10-11T22:34:44Z</time>
      </trkpt>
      <trkpt lat="48.83016900" lon="8.440699000">
        <ele>341.40527</ele>
        <time>2008-10-11T22:34:50Z</time>
      </trkpt>
      <trkpt lat="48.83038800" lon="8.440728000">
        <ele>339.96337</ele>
        <time>2008-10-11T22:34:59Z</time>
      </trkpt>
      <trkpt lat="48.83052500" lon="8.440750000">
        <ele>339.00207</ele>
        <time>2008-10-11T22:35:05Z</time>
      </trkpt>
      <trkpt lat="48.83065700" lon="8.440747000">
        <ele>337.56005</ele>
        <time>2008-10-11T22:35:10Z</time>
      </trkpt>
      <trkpt lat="48.83078600" lon="8.440692000">
        <ele>334.19543</ele>
        <time>2008-10-11T22:35:15Z</time>
      </trkpt>
      <trkpt lat="48.83088000" lon="8.440707000">
        <ele>336.11816</ele>
        <time>2008-10-11T22:35:19Z</time>
      </trkpt>
      <trkpt lat="48.83105400" lon="8.440705000">
        <ele>333.71472</ele>
        <time>2008-10-11T22:35:26Z</time>
      </trkpt>
      <trkpt lat="48.83115800" lon="8.440731000">
        <ele>336.11816</ele>
        <time>2008-10-11T22:35:30Z</time>
      </trkpt>
      <trkpt lat="48.83127200" lon="8.440686000">
        <ele>332.75354</ele>
        <time>2008-10-11T22:35:35Z</time>
      </trkpt>
      <trkpt lat="48.83149300" lon="8.440643000">
        <ele>333.23413</ele>
        <time>2008-10-11T22:35:44Z</time>
      </trkpt>
      <trkpt lat="48.83163300" lon="8.440613000">
        <ele>334.19543</ele>
        <time>2008-10-11T22:35:50Z</time>
      </trkpt>
      <trkpt lat="48.83175900" lon="8.440586000">
        <ele>334.19543</ele>
        <time>2008-10-11T22:35:55Z</time>
      </trkpt>
      <trkpt lat="48.83190100" lon="8.440576000">
        <ele>336.11816</ele>
        <time>2008-10-11T22:36:00Z</time>
      </trkpt>
      <trkpt lat="48.83202700" lon="8.440559000">
        <ele>334.19543</ele>
        <time>2008-10-11T22:36:05Z</time>
      </trkpt>
      <trkpt lat="48.83218700" lon="8.440507000">
        <ele>333.71472</ele>
        <time>2008-10-11T22:36:12Z</time>
      </trkpt>
      <trkpt lat="48.83237100" lon="8.440391000">
        <ele>330.83093</ele>
        <time>2008-10-11T22:36:20Z</time>
      </trkpt>
      <trkpt lat="48.83249500" lon="8.440354000">
        <ele>326.98559</ele>
        <time>2008-10-11T22:36:25Z</time>
      </trkpt>
      <trkpt lat="48.83263100" lon="8.440304000">
        <ele>321.69836</ele>
        <time>2008-10-11T22:36:31Z</time>
      </trkpt>
      <trkpt lat="48.83277800" lon="8.440299000">
        <ele>323.62097</ele>
        <time>2008-10-11T22:36:37Z</time>
      </trkpt>
      <trkpt lat="48.83289800" lon="8.440305000">
        <ele>326.02417</ele>
        <time>2008-10-11T22:36:41Z</time>
      </trkpt>
      <trkpt lat="48.83303000" lon="8.440311000">
        <ele>325.54357</ele>
        <time>2008-10-11T22:36:47Z</time>
      </trkpt>
      <trkpt lat="48.83307900" lon="8.440312000">
        <ele>325.06298</ele>
        <time>2008-10-11T22:36:49Z</time>
      </trkpt>
      <trkpt lat="48.83319800" lon="8.440300000">
        <ele>325.54357</ele>
        <time>2008-10-11T22:36:53Z</time>
      </trkpt>
      <trkpt lat="48.83336000" lon="8.440266000">
        <ele>325.06298</ele>
        <time>2008-10-11T22:37:00Z</time>
      </trkpt>
      <trkpt lat="48.83349500" lon="8.440235000">
        <ele>331.31152</ele>
        <time>2008-10-11T22:37:05Z</time>
      </trkpt>
      <trkpt lat="48.83357500" lon="8.440201000">
        <ele>338.04077</ele>
        <time>2008-10-11T22:37:09Z</time>
      </trkpt>
      <trkpt lat="48.83360100" lon="8.440178000">
        <ele>342.84729</ele>
        <time>2008-10-11T22:37:10Z</time>
      </trkpt>
      <trkpt lat="48.83364400" lon="8.439988000">
        <ele>343.32788</ele>
        <time>2008-10-11T22:37:15Z</time>
      </trkpt>
      <trkpt lat="48.83368500" lon="8.439700000">
        <ele>339.00207</ele>
        <time>2008-10-11T22:37:23Z</time>
      </trkpt>
      <trkpt lat="48.83368800" lon="8.439499000">
        <ele>337.07946</ele>
        <time>2008-10-11T22:37:28Z</time>
      </trkpt>
      <trkpt lat="48.83374000" lon="8.439308000">
        <ele>332.75354</ele>
        <time>2008-10-11T22:37:34Z</time>
      </trkpt>
      <trkpt lat="48.83387300" lon="8.439155000">
        <ele>327.94677</ele>
        <time>2008-10-11T22:37:40Z</time>
      </trkpt>
      <trkpt lat="48.83397900" lon="8.439141000">
        <ele>328.42761</ele>
        <time>2008-10-11T22:37:45Z</time>
      </trkpt>
      <trkpt lat="48.83409700" lon="8.439151000">
        <ele>327.94677</ele>
        <time>2008-10-11T22:37:49Z</time>
      </trkpt>
      <trkpt lat="48.83422800" lon="8.439129000">
        <ele>333.71472</ele>
        <time>2008-10-11T22:37:55Z</time>
      </trkpt>
      <trkpt lat="48.83435000" lon="8.439170000">
        <ele>339.48266</ele>
        <time>2008-10-11T22:38:00Z</time>
      </trkpt>
      <trkpt lat="48.83446600" lon="8.439178000">
        <ele>342.36669</ele>
        <time>2008-10-11T22:38:04Z</time>
      </trkpt>
      <trkpt lat="48.83458300" lon="8.439153000">
        <ele>344.77002</ele>
        <time>2008-10-11T22:38:09Z</time>
      </trkpt>
      <trkpt lat="48.83472700" lon="8.439112000">
        <ele>347.17321</ele>
        <time>2008-10-11T22:38:15Z</time>
      </trkpt>
      <trkpt lat="48.83475400" lon="8.439106000">
        <ele>348.13464</ele>
        <time>2008-10-11T22:38:16Z</time>
      </trkpt>
      <trkpt lat="48.83488200" lon="8.439075000">
        <ele>354.38317</ele>
        <time>2008-10-11T22:38:21Z</time>
      </trkpt>
      <trkpt lat="48.83505300" lon="8.439010000">
        <ele>358.70898</ele>
        <time>2008-10-11T22:38:28Z</time>
      </trkpt>
      <trkpt lat="48.83519100" lon="8.438945000">
        <ele>361.59314</ele>
        <time>2008-10-11T22:38:34Z</time>
      </trkpt>
      <trkpt lat="48.83532200" lon="8.438919000">
        <ele>361.11242</ele>
        <time>2008-10-11T22:38:39Z</time>
      </trkpt>
      <trkpt lat="48.83547200" lon="8.438949000">
        <ele>361.59314</ele>
        <time>2008-10-11T22:38:45Z</time>
      </trkpt>
      <trkpt lat="48.83559400" lon="8.438887000">
        <ele>356.30578</ele>
        <time>2008-10-11T22:38:51Z</time>
      </trkpt>
      <trkpt lat="48.83571300" lon="8.438830000">
        <ele>355.82519</ele>
        <time>2008-10-11T22:38:56Z</time>
      </trkpt>
      <trkpt lat="48.83576300" lon="8.438804000">
        <ele>353.90258</ele>
        <time>2008-10-11T22:38:58Z</time>
      </trkpt>
      <trkpt lat="48.83587000" lon="8.438767000">
        <ele>350.53784</ele>
        <time>2008-10-11T22:39:02Z</time>
      </trkpt>
      <trkpt lat="48.83605900" lon="8.438676000">
        <ele>343.32788</ele>
        <time>2008-10-11T22:39:10Z</time>
      </trkpt>
      <trkpt lat="48.83625200" lon="8.438665000">
        <ele>342.36669</ele>
        <time>2008-10-11T22:39:18Z</time>
      </trkpt>
      <trkpt lat="48.83642100" lon="8.438585000">
        <ele>336.11816</ele>
        <time>2008-10-11T22:39:25Z</time>
      </trkpt>
      <trkpt lat="48.83656300" lon="8.438548000">
        <ele>332.27282</ele>
        <time>2008-10-11T22:39:31Z</time>
      </trkpt>
      <trkpt lat="48.83669200" lon="8.438547000">
        <ele>335.63732</ele>
        <time>2008-10-11T22:39:36Z</time>
      </trkpt>
      <trkpt lat="48.83684600" lon="8.438500000">
        <ele>326.98559</ele>
        <time>2008-10-11T22:39:42Z</time>
      </trkpt>
      <trkpt lat="48.83695400" lon="8.438524000">
        <ele>325.06298</ele>
        <time>2008-10-11T22:39:46Z</time>
      </trkpt>
      <trkpt lat="48.83700600" lon="8.438529000">
        <ele>323.62097</ele>
        <time>2008-10-11T22:39:48Z</time>
      </trkpt>
      <trkpt lat="48.83708400" lon="8.438512000">
        <ele>320.73706</ele>
        <time>2008-10-11T22:39:52Z</time>
      </trkpt>
      <trkpt lat="48.83723400" lon="8.438499000">
        <ele>319.77563</ele>
        <time>2008-10-11T22:39:58Z</time>
      </trkpt>
      <trkpt lat="48.83741300" lon="8.438472000">
        <ele>325.06298</ele>
        <time>2008-10-11T22:40:05Z</time>
      </trkpt>
      <trkpt lat="48.83746600" lon="8.438461000">
        <ele>325.54357</ele>
        <time>2008-10-11T22:40:07Z</time>
      </trkpt>
      <trkpt lat="48.83768600" lon="8.438427000">
        <ele>328.42761</ele>
        <time>2008-10-11T22:40:16Z</time>
      </trkpt>
      <trkpt lat="48.83778100" lon="8.438419000">
        <ele>330.35022</ele>
        <time>2008-10-11T22:40:20Z</time>
      </trkpt>
      <trkpt lat="48.83786900" lon="8.438413000">
        <ele>334.67614</ele>
        <time>2008-10-11T22:40:23Z</time>
      </trkpt>
      <trkpt lat="48.83805400" lon="8.438375000">
        <ele>333.23413</ele>
        <time>2008-10-11T22:40:31Z</time>
      </trkpt>
      <trkpt lat="48.83822300" lon="8.438357000">
        <ele>327.94677</ele>
        <time>2008-10-11T22:40:37Z</time>
      </trkpt>
      <trkpt lat="48.83830900" lon="8.438341000">
        <ele>322.65966</ele>
        <time>2008-10-11T22:40:41Z</time>
      </trkpt>
      <trkpt lat="48.83854500" lon="8.438370000">
        <ele>318.33361</ele>
        <time>2008-10-11T22:40:50Z</time>
      </trkpt>
      <trkpt lat="48.83867500" lon="8.438437000">
        <ele>318.33361</ele>
        <time>2008-10-11T22:40:56Z</time>
      </trkpt>
      <trkpt lat="48.83878600" lon="8.438550000">
        <ele>316.41101</ele>
        <time>2008-10-11T22:41:01Z</time>
      </trkpt>
      <trkpt lat="48.83886300" lon="8.438607000">
        <ele>315.44982</ele>
        <time>2008-10-11T22:41:05Z</time>
      </trkpt>
      <trkpt lat="48.83901100" lon="8.438759000">
        <ele>313.52722</ele>
        <time>2008-10-11T22:41:12Z</time>
      </trkpt>
      <trkpt lat="48.83912100" lon="8.438839000">
        <ele>313.04650</ele>
        <time>2008-10-11T22:41:17Z</time>
      </trkpt>
      <trkpt lat="48.83924500" lon="8.438943000">
        <ele>313.04650</ele>
        <time>2008-10-11T22:41:22Z</time>
      </trkpt>
      <trkpt lat="48.83939700" lon="8.439045000">
        <ele>311.12377</ele>
        <time>2008-10-11T22:41:29Z</time>
      </trkpt>
      <trkpt lat="48.83954200" lon="8.439174000">
        <ele>308.23986</ele>
        <time>2008-10-11T22:41:36Z</time>
      </trkpt>
      <trkpt lat="48.83968100" lon="8.439227000">
        <ele>310.64306</ele>
        <time>2008-10-11T22:41:41Z</time>
      </trkpt>
      <trkpt lat="48.83982100" lon="8.439295000">
        <ele>311.60449</ele>
        <time>2008-10-11T22:41:47Z</time>
      </trkpt>
      <trkpt lat="48.83997900" lon="8.439343000">
        <ele>310.64306</ele>
        <time>2008-10-11T22:41:54Z</time>
      </trkpt>
      <trkpt lat="48.84006900" lon="8.439382000">
        <ele>308.23986</ele>
        <time>2008-10-11T22:41:58Z</time>
      </trkpt>
      <trkpt lat="48.84018400" lon="8.439470000">
        <ele>310.64306</ele>
        <time>2008-10-11T22:42:03Z</time>
      </trkpt>
      <trkpt lat="48.84030100" lon="8.439562000">
        <ele>314.48840</ele>
        <time>2008-10-11T22:42:08Z</time>
      </trkpt>
      <trkpt lat="48.84043700" lon="8.439622000">
        <ele>314.48840</ele>
        <time>2008-10-11T22:42:14Z</time>
      </trkpt>
      <trkpt lat="48.84060400" lon="8.439650000">
        <ele>314.00781</ele>
        <time>2008-10-11T22:42:20Z</time>
      </trkpt>
      <trkpt lat="48.84076300" lon="8.439642000">
        <ele>310.16247</ele>
        <time>2008-10-11T22:42:27Z</time>
      </trkpt>
      <trkpt lat="48.84097500" lon="8.439671000">
        <ele>306.79785</ele>
        <time>2008-10-11T22:42:35Z</time>
      </trkpt>
      <trkpt lat="48.84105300" lon="8.439690000">
        <ele>303.43322</ele>
        <time>2008-10-11T22:42:38Z</time>
      </trkpt>
      <trkpt lat="48.84123300" lon="8.439675000">
        <ele>300.06872</ele>
        <time>2008-10-11T22:42:46Z</time>
      </trkpt>
      <trkpt lat="48.84130900" lon="8.439621000">
        <ele>298.14611</ele>
        <time>2008-10-11T22:42:49Z</time>
      </trkpt>
      <trkpt lat="48.84135500" lon="8.439608000">
        <ele>298.14611</ele>
        <time>2008-10-11T22:42:51Z</time>
      </trkpt>
      <trkpt lat="48.84147400" lon="8.439505000">
        <ele>294.78137</ele>
        <time>2008-10-11T22:42:56Z</time>
      </trkpt>
      <trkpt lat="48.84160700" lon="8.439436000">
        <ele>295.26196</ele>
        <time>2008-10-11T22:43:02Z</time>
      </trkpt>
      <trkpt lat="48.84171400" lon="8.439274000">
        <ele>293.33935</ele>
        <time>2008-10-11T22:43:08Z</time>
      </trkpt>
      <trkpt lat="48.84182100" lon="8.439142000">
        <ele>288.05224</ele>
        <time>2008-10-11T22:43:14Z</time>
      </trkpt>
      <trkpt lat="48.84199100" lon="8.438994000">
        <ele>293.33935</ele>
        <time>2008-10-11T22:43:21Z</time>
      </trkpt>
      <trkpt lat="48.84212500" lon="8.438791000">
        <ele>290.45556</ele>
        <time>2008-10-11T22:43:29Z</time>
      </trkpt>
      <trkpt lat="48.84223900" lon="8.438658000">
        <ele>292.37817</ele>
        <time>2008-10-11T22:43:35Z</time>
      </trkpt>
      <trkpt lat="48.84230000" lon="8.438579000">
        <ele>289.97485</ele>
        <time>2008-10-11T22:43:38Z</time>
      </trkpt>
      <trkpt lat="48.84241300" lon="8.438381000">
        <ele>291.89746</ele>
        <time>2008-10-11T22:43:45Z</time>
      </trkpt>
      <trkpt lat="48.84251900" lon="8.438204000">
        <ele>289.49414</ele>
        <time>2008-10-11T22:43:51Z</time>
      </trkpt>
      <trkpt lat="48.84254700" lon="8.438115000">
        <ele>289.49414</ele>
        <time>2008-10-11T22:43:54Z</time>
      </trkpt>
      <trkpt lat="48.84262900" lon="8.437985000">
        <ele>289.97485</ele>
        <time>2008-10-11T22:43:58Z</time>
      </trkpt>
      <trkpt lat="48.84272300" lon="8.437829000">
        <ele>291.41674</ele>
        <time>2008-10-11T22:44:04Z</time>
      </trkpt>
      <trkpt lat="48.84273800" lon="8.437680000">
        <ele>295.26196</ele>
        <time>2008-10-11T22:44:08Z</time>
      </trkpt>
      <trkpt lat="48.84280800" lon="8.437592000">
        <ele>302.95251</ele>
        <time>2008-10-11T22:44:12Z</time>
      </trkpt>
      <trkpt lat="48.84301000" lon="8.437532000">
        <ele>301.02990</ele>
        <time>2008-10-11T22:44:20Z</time>
      </trkpt>
      <trkpt lat="48.84319400" lon="8.437519000">
        <ele>300.06872</ele>
        <time>2008-10-11T22:44:27Z</time>
      </trkpt>
      <trkpt lat="48.84331600" lon="8.437468000">
        <ele>296.22351</ele>
        <time>2008-10-11T22:44:32Z</time>
      </trkpt>
      <trkpt lat="48.84344200" lon="8.437468000">
        <ele>298.14611</ele>
        <time>2008-10-11T22:44:37Z</time>
      </trkpt>
      <trkpt lat="48.84350600" lon="8.437475000">
        <ele>298.14611</ele>
        <time>2008-10-11T22:44:40Z</time>
      </trkpt>
      <trkpt lat="48.84360300" lon="8.437506000">
        <ele>296.22351</ele>
        <time>2008-10-11T22:44:44Z</time>
      </trkpt>
      <trkpt lat="48.84365900" lon="8.437504000">
        <ele>293.33935</ele>
        <time>2008-10-11T22:44:46Z</time>
      </trkpt>
      <trkpt lat="48.84379400" lon="8.437519000">
        <ele>289.01355</ele>
        <time>2008-10-11T22:44:52Z</time>
      </trkpt>
      <trkpt lat="48.84384800" lon="8.437535000">
        <ele>286.12951</ele>
        <time>2008-10-11T22:44:54Z</time>
      </trkpt>
      <trkpt lat="48.84392200" lon="8.437520000">
        <ele>281.80358</ele>
        <time>2008-10-11T22:44:57Z</time>
      </trkpt>
      <trkpt lat="48.84407000" lon="8.437532000">
        <ele>276.99707</ele>
        <time>2008-10-11T22:45:03Z</time>
      </trkpt>
      <trkpt lat="48.84423100" lon="8.437536000">
        <ele>269.30651</ele>
        <time>2008-10-11T22:45:09Z</time>
      </trkpt>
      <trkpt lat="48.84433200" lon="8.437564000">
        <ele>268.82580</ele>
        <time>2008-10-11T22:45:13Z</time>
      </trkpt>
      <trkpt lat="48.84448600" lon="8.437561000">
        <ele>266.90319</ele>
        <time>2008-10-11T22:45:19Z</time>
      </trkpt>
      <trkpt lat="48.84458200" lon="8.437586000">
        <ele>269.78710</ele>
        <time>2008-10-11T22:45:23Z</time>
      </trkpt>
      <trkpt lat="48.84477400" lon="8.437572000">
        <ele>274.59375</ele>
        <time>2008-10-11T22:45:31Z</time>
      </trkpt>
      <trkpt lat="48.84491500" lon="8.437583000">
        <ele>277.47766</ele>
        <time>2008-10-11T22:45:37Z</time>
      </trkpt>
      <trkpt lat="48.84503700" lon="8.437610000">
        <ele>276.51635</ele>
        <time>2008-10-11T22:45:42Z</time>
      </trkpt>
      <trkpt lat="48.84517100" lon="8.437624000">
        <ele>276.51635</ele>
        <time>2008-10-11T22:45:47Z</time>
      </trkpt>
      <trkpt lat="48.84521200" lon="8.437617000">
        <ele>276.99707</ele>
        <time>2008-10-11T22:45:49Z</time>
      </trkpt>
      <trkpt lat="48.84525100" lon="8.437610000">
        <ele>276.03564</ele>
        <time>2008-10-11T22:45:50Z</time>
      </trkpt>
      <trkpt lat="48.84543400" lon="8.437608000">
        <ele>274.11303</ele>
        <time>2008-10-11T22:45:58Z</time>
      </trkpt>
      <trkpt lat="48.84564100" lon="8.437621000">
        <ele>284.68762</ele>
        <time>2008-10-11T22:46:06Z</time>
      </trkpt>
      <trkpt lat="48.84576100" lon="8.437601000">
        <ele>290.93615</ele>
        <time>2008-10-11T22:46:11Z</time>
      </trkpt>
      <trkpt lat="48.84593400" lon="8.437553000">
        <ele>297.66540</ele>
        <time>2008-10-11T22:46:18Z</time>
      </trkpt>
      <trkpt lat="48.84611600" lon="8.437512000">
        <ele>300.06872</ele>
        <time>2008-10-11T22:46:25Z</time>
      </trkpt>
      <trkpt lat="48.84625000" lon="8.437516000">
        <ele>301.99133</ele>
        <time>2008-10-11T22:46:30Z</time>
      </trkpt>
      <trkpt lat="48.84645400" lon="8.437484000">
        <ele>301.51062</ele>
        <time>2008-10-11T22:46:39Z</time>
      </trkpt>
      <trkpt lat="48.84660700" lon="8.437432000">
        <ele>302.47192</ele>
        <time>2008-10-11T22:46:45Z</time>
      </trkpt>
      <trkpt lat="48.84678500" lon="8.437365000">
        <ele>303.91394</ele>
        <time>2008-10-11T22:46:52Z</time>
      </trkpt>
      <trkpt lat="48.84684700" lon="8.437355000">
        <ele>304.87524</ele>
        <time>2008-10-11T22:46:55Z</time>
      </trkpt>
      <trkpt lat="48.84698000" lon="8.437275000">
        <ele>302.47192</ele>
        <time>2008-10-11T22:47:00Z</time>
      </trkpt>
      <trkpt lat="48.84708800" lon="8.437266000">
        <ele>297.18469</ele>
        <time>2008-10-11T22:47:05Z</time>
      </trkpt>
      <trkpt lat="48.84725300" lon="8.437223000">
        <ele>296.22351</ele>
        <time>2008-10-11T22:47:11Z</time>
      </trkpt>
      <trkpt lat="48.84726300" lon="8.437222000">
        <ele>296.70410</ele>
        <time>2008-10-11T22:47:12Z</time>
      </trkpt>
      <trkpt lat="48.84736400" lon="8.437133000">
        <ele>292.37817</ele>
        <time>2008-10-11T22:47:17Z</time>
      </trkpt>
      <trkpt lat="48.84748700" lon="8.437050000">
        <ele>287.57141</ele>
        <time>2008-10-11T22:47:22Z</time>
      </trkpt>
      <trkpt lat="48.84763500" lon="8.436986000">
        <ele>289.97485</ele>
        <time>2008-10-11T22:47:28Z</time>
      </trkpt>
      <trkpt lat="48.84783700" lon="8.436925000">
        <ele>299.58801</ele>
        <time>2008-10-11T22:47:36Z</time>
      </trkpt>
      <trkpt lat="48.84806200" lon="8.436831000">
        <ele>304.39465</ele>
        <time>2008-10-11T22:47:46Z</time>
      </trkpt>
      <trkpt lat="48.84822800" lon="8.436784000">
        <ele>301.99133</ele>
        <time>2008-10-11T22:47:52Z</time>
      </trkpt>
      <trkpt lat="48.84836400" lon="8.436721000">
        <ele>297.66540</ele>
        <time>2008-10-11T22:47:58Z</time>
      </trkpt>
      <trkpt lat="48.84847700" lon="8.436678000">
        <ele>294.78137</ele>
        <time>2008-10-11T22:48:03Z</time>
      </trkpt>
      <trkpt lat="48.84858600" lon="8.436627000">
        <ele>295.74267</ele>
        <time>2008-10-11T22:48:07Z</time>
      </trkpt>
      <trkpt lat="48.84878000" lon="8.436591000">
        <ele>296.70410</ele>
        <time>2008-10-11T22:48:15Z</time>
      </trkpt>
      <trkpt lat="48.84894000" lon="8.436571000">
        <ele>295.26196</ele>
        <time>2008-10-11T22:48:22Z</time>
      </trkpt>
      <trkpt lat="48.84902600" lon="8.436560000">
        <ele>294.30078</ele>
        <time>2008-10-11T22:48:25Z</time>
      </trkpt>
      <trkpt lat="48.84919000" lon="8.436600000">
        <ele>300.54931</ele>
        <time>2008-10-11T22:48:32Z</time>
      </trkpt>
      <trkpt lat="48.84922200" lon="8.436610000">
        <ele>300.54931</ele>
        <time>2008-10-11T22:48:33Z</time>
      </trkpt>
      <trkpt lat="48.84931800" lon="8.436650000">
        <ele>298.14611</ele>
        <time>2008-10-11T22:48:37Z</time>
      </trkpt>
      <trkpt lat="48.84948300" lon="8.436706000">
        <ele>292.85876</ele>
        <time>2008-10-11T22:48:44Z</time>
      </trkpt>
      <trkpt lat="48.84962800" lon="8.436729000">
        <ele>290.93615</ele>
        <time>2008-10-11T22:48:50Z</time>
      </trkpt>
      <trkpt lat="48.84966100" lon="8.436752000">
        <ele>291.41674</ele>
        <time>2008-10-11T22:48:51Z</time>
      </trkpt>
      <trkpt lat="48.84983300" lon="8.436810000">
        <ele>291.89746</ele>
        <time>2008-10-11T22:48:58Z</time>
      </trkpt>
      <trkpt lat="48.84994900" lon="8.436937000">
        <ele>293.33935</ele>
        <time>2008-10-11T22:49:04Z</time>
      </trkpt>
      <trkpt lat="48.84996200" lon="8.436964000">
        <ele>294.30078</ele>
        <time>2008-10-11T22:49:05Z</time>
      </trkpt>
      <trkpt lat="48.84997800" lon="8.437033000">
        <ele>297.18469</ele>
        <time>2008-10-11T22:49:07Z</time>
      </trkpt>
      <trkpt lat="48.85009700" lon="8.437115000">
        <ele>295.26196</ele>
        <time>2008-10-11T22:49:12Z</time>
      </trkpt>
      <trkpt lat="48.85026600" lon="8.437246000">
        <ele>296.22351</ele>
        <time>2008-10-11T22:49:19Z</time>
      </trkpt>
      <trkpt lat="48.85038400" lon="8.437330000">
        <ele>294.78137</ele>
        <time>2008-10-11T22:49:25Z</time>
      </trkpt>
      <trkpt lat="48.85048200" lon="8.437424000">
        <ele>292.85876</ele>
        <time>2008-10-11T22:49:29Z</time>
      </trkpt>
      <trkpt lat="48.85064900" lon="8.437516000">
        <ele>290.93615</ele>
        <time>2008-10-11T22:49:36Z</time>
      </trkpt>
      <trkpt lat="48.85077900" lon="8.437678000">
        <ele>290.45556</ele>
        <time>2008-10-11T22:49:43Z</time>
      </trkpt>
      <trkpt lat="48.85091400" lon="8.437760000">
        <ele>289.01355</ele>
        <time>2008-10-11T22:49:49Z</time>
      </trkpt>
      <trkpt lat="48.85103800" lon="8.437865000">
        <ele>293.33935</ele>
        <time>2008-10-11T22:49:55Z</time>
      </trkpt>
      <trkpt lat="48.85118000" lon="8.438020000">
        <ele>294.78137</ele>
        <time>2008-10-11T22:50:02Z</time>
      </trkpt>
      <trkpt lat="48.85121000" lon="8.438085000">
        <ele>294.30078</ele>
        <time>2008-10-11T22:50:04Z</time>
      </trkpt>
      <trkpt lat="48.85127800" lon="8.438125000">
        <ele>292.85876</ele>
        <time>2008-10-11T22:50:07Z</time>
      </trkpt>
      <trkpt lat="48.85145900" lon="8.438241000">
        <ele>291.41674</ele>
        <time>2008-10-11T22:50:15Z</time>
      </trkpt>
      <trkpt lat="48.85159000" lon="8.438336000">
        <ele>289.49414</ele>
        <time>2008-10-11T22:50:20Z</time>
      </trkpt>
      <trkpt lat="48.85174000" lon="8.438434000">
        <ele>287.57141</ele>
        <time>2008-10-11T22:50:27Z</time>
      </trkpt>
      <trkpt lat="48.85188900" lon="8.438463000">
        <ele>286.61022</ele>
        <time>2008-10-11T22:50:33Z</time>
      </trkpt>
      <trkpt lat="48.85203000" lon="8.438478000">
        <ele>288.05224</ele>
        <time>2008-10-11T22:50:39Z</time>
      </trkpt>
      <trkpt lat="48.85213900" lon="8.438507000">
        <ele>286.61022</ele>
        <time>2008-10-11T22:50:43Z</time>
      </trkpt>
      <trkpt lat="48.85224700" lon="8.438519000">
        <ele>286.12951</ele>
        <time>2008-10-11T22:50:47Z</time>
      </trkpt>
      <trkpt lat="48.85238600" lon="8.438540000">
        <ele>289.97485</ele>
        <time>2008-10-11T22:50:53Z</time>
      </trkpt>
      <trkpt lat="48.85246600" lon="8.438548000">
        <ele>286.12951</ele>
        <time>2008-10-11T22:50:56Z</time>
      </trkpt>
      <trkpt lat="48.85251500" lon="8.438545000">
        <ele>285.16821</ele>
        <time>2008-10-11T22:50:58Z</time>
      </trkpt>
      <trkpt lat="48.85265500" lon="8.438574000">
        <ele>286.12951</ele>
        <time>2008-10-11T22:51:04Z</time>
      </trkpt>
      <trkpt lat="48.85280800" lon="8.438592000">
        <ele>287.57141</ele>
        <time>2008-10-11T22:51:10Z</time>
      </trkpt>
      <trkpt lat="48.85294500" lon="8.438550000">
        <ele>284.20690</ele>
        <time>2008-10-11T22:51:15Z</time>
      </trkpt>
      <trkpt lat="48.85318400" lon="8.438499000">
        <ele>289.97485</ele>
        <time>2008-10-11T22:51:25Z</time>
      </trkpt>
      <trkpt lat="48.85330600" lon="8.438506000">
        <ele>288.05224</ele>
        <time>2008-10-11T22:51:30Z</time>
      </trkpt>
      <trkpt lat="48.85344500" lon="8.438485000">
        <ele>289.97485</ele>
        <time>2008-10-11T22:51:36Z</time>
      </trkpt>
      <trkpt lat="48.85355700" lon="8.438435000">
        <ele>287.57141</ele>
        <time>2008-10-11T22:51:40Z</time>
      </trkpt>
      <trkpt lat="48.85376300" lon="8.438393000">
        <ele>294.30078</ele>
        <time>2008-10-11T22:51:49Z</time>
      </trkpt>
      <trkpt lat="48.85382100" lon="8.438400000">
        <ele>291.41674</ele>
        <time>2008-10-11T22:51:51Z</time>
      </trkpt>
      <trkpt lat="48.85383200" lon="8.438362000">
        <ele>287.09082</ele>
        <time>2008-10-11T22:51:52Z</time>
      </trkpt>
      <trkpt lat="48.85393300" lon="8.438310000">
        <ele>287.57141</ele>
        <time>2008-10-11T22:51:56Z</time>
      </trkpt>
      <trkpt lat="48.85410900" lon="8.438299000">
        <ele>287.57141</ele>
        <time>2008-10-11T22:52:03Z</time>
      </trkpt>
      <trkpt lat="48.85431600" lon="8.438292000">
        <ele>289.01355</ele>
        <time>2008-10-11T22:52:12Z</time>
      </trkpt>
      <trkpt lat="48.85448400" lon="8.438279000">
        <ele>292.37817</ele>
        <time>2008-10-11T22:52:18Z</time>
      </trkpt>
      <trkpt lat="48.85461800" lon="8.438267000">
        <ele>291.41674</ele>
        <time>2008-10-11T22:52:24Z</time>
      </trkpt>
      <trkpt lat="48.85465200" lon="8.438274000">
        <ele>292.37817</ele>
        <time>2008-10-11T22:52:25Z</time>
      </trkpt>
      <trkpt lat="48.85480500" lon="8.438264000">
        <ele>291.41674</ele>
        <time>2008-10-11T22:52:31Z</time>
      </trkpt>
      <trkpt lat="48.85498900" lon="8.438255000">
        <ele>291.89746</ele>
        <time>2008-10-11T22:52:39Z</time>
      </trkpt>
      <trkpt lat="48.85517100" lon="8.438313000">
        <ele>292.85876</ele>
        <time>2008-10-11T22:52:46Z</time>
      </trkpt>
      <trkpt lat="48.85534600" lon="8.438449000">
        <ele>294.30078</ele>
        <time>2008-10-11T22:52:54Z</time>
      </trkpt>
      <trkpt lat="48.85546600" lon="8.438528000">
        <ele>289.01355</ele>
        <time>2008-10-11T22:52:59Z</time>
      </trkpt>
      <trkpt lat="48.85556100" lon="8.438588000">
        <ele>288.53295</ele>
        <time>2008-10-11T22:53:03Z</time>
      </trkpt>
      <trkpt lat="48.85573700" lon="8.438648000">
        <ele>282.76501</ele>
        <time>2008-10-11T22:53:11Z</time>
      </trkpt>
      <trkpt lat="48.85591400" lon="8.438722000">
        <ele>277.47766</ele>
        <time>2008-10-11T22:53:18Z</time>
      </trkpt>
      <trkpt lat="48.85611000" lon="8.438823000">
        <ele>277.47766</ele>
        <time>2008-10-11T22:53:26Z</time>
      </trkpt>
      <trkpt lat="48.85627600" lon="8.438901000">
        <ele>281.32299</ele>
        <time>2008-10-11T22:53:33Z</time>
      </trkpt>
      <trkpt lat="48.85643000" lon="8.439013000">
        <ele>281.32299</ele>
        <time>2008-10-11T22:53:40Z</time>
      </trkpt>
      <trkpt lat="48.85656200" lon="8.439114000">
        <ele>285.16821</ele>
        <time>2008-10-11T22:53:46Z</time>
      </trkpt>
      <trkpt lat="48.85675400" lon="8.439142000">
        <ele>283.72619</ele>
        <time>2008-10-11T22:53:54Z</time>
      </trkpt>
      <trkpt lat="48.85693400" lon="8.439218000">
        <ele>286.12951</ele>
        <time>2008-10-11T22:54:01Z</time>
      </trkpt>
      <trkpt lat="48.85707000" lon="8.439328000">
        <ele>282.28430</ele>
        <time>2008-10-11T22:54:07Z</time>
      </trkpt>
      <trkpt lat="48.85717700" lon="8.439399000">
        <ele>283.24560</ele>
        <time>2008-10-11T22:54:12Z</time>
      </trkpt>
      <trkpt lat="48.85732600" lon="8.439480000">
        <ele>285.16821</ele>
        <time>2008-10-11T22:54:18Z</time>
      </trkpt>
      <trkpt lat="48.85755800" lon="8.439608000">
        <ele>288.53295</ele>
        <time>2008-10-11T22:54:28Z</time>
      </trkpt>
      <trkpt lat="48.85771100" lon="8.439685000">
        <ele>289.01355</ele>
        <time>2008-10-11T22:54:35Z</time>
      </trkpt>
      <trkpt lat="48.85785800" lon="8.439844000">
        <ele>289.49414</ele>
        <time>2008-10-11T22:54:42Z</time>
      </trkpt>
      <trkpt lat="48.85797100" lon="8.440003000">
        <ele>288.53295</ele>
        <time>2008-10-11T22:54:48Z</time>
      </trkpt>
      <trkpt lat="48.85800300" lon="8.440116000">
        <ele>287.57141</ele>
        <time>2008-10-11T22:54:51Z</time>
      </trkpt>
      <trkpt lat="48.85802600" lon="8.440150000">
        <ele>286.61022</ele>
        <time>2008-10-11T22:54:52Z</time>
      </trkpt>
      <trkpt lat="48.85808000" lon="8.440261000">
        <ele>284.20690</ele>
        <time>2008-10-11T22:54:56Z</time>
      </trkpt>
      <trkpt lat="48.85821200" lon="8.440483000">
        <ele>284.68762</ele>
        <time>2008-10-11T22:55:04Z</time>
      </trkpt>
      <trkpt lat="48.85826400" lon="8.440643000">
        <ele>279.88085</ele>
        <time>2008-10-11T22:55:09Z</time>
      </trkpt>
      <trkpt lat="48.85838300" lon="8.440762000">
        <ele>276.03564</ele>
        <time>2008-10-11T22:55:14Z</time>
      </trkpt>
      <trkpt lat="48.85851300" lon="8.440992000">
        <ele>281.32299</ele>
        <time>2008-10-11T22:55:22Z</time>
      </trkpt>
      <trkpt lat="48.85859500" lon="8.441192000">
        <ele>280.84240</ele>
        <time>2008-10-11T22:55:29Z</time>
      </trkpt>
      <trkpt lat="48.85869500" lon="8.441404000">
        <ele>278.43896</ele>
        <time>2008-10-11T22:55:35Z</time>
      </trkpt>
      <trkpt lat="48.85870900" lon="8.441440000">
        <ele>278.43896</ele>
        <time>2008-10-11T22:55:37Z</time>
      </trkpt>
      <trkpt lat="48.85876400" lon="8.441623000">
        <ele>276.03564</ele>
        <time>2008-10-11T22:55:42Z</time>
      </trkpt>
      <trkpt lat="48.85885900" lon="8.441848000">
        <ele>272.67114</ele>
        <time>2008-10-11T22:55:49Z</time>
      </trkpt>
      <trkpt lat="48.85894700" lon="8.442036000">
        <ele>272.19043</ele>
        <time>2008-10-11T22:55:55Z</time>
      </trkpt>
      <trkpt lat="48.85905100" lon="8.442256000">
        <ele>272.67114</ele>
        <time>2008-10-11T22:56:02Z</time>
      </trkpt>
      <trkpt lat="48.85914300" lon="8.442472000">
        <ele>271.70971</ele>
        <time>2008-10-11T22:56:09Z</time>
      </trkpt>
      <trkpt lat="48.85923900" lon="8.442681000">
        <ele>270.26770</ele>
        <time>2008-10-11T22:56:16Z</time>
      </trkpt>
      <trkpt lat="48.85932800" lon="8.442841000">
        <ele>270.26770</ele>
        <time>2008-10-11T22:56:21Z</time>
      </trkpt>
      <trkpt lat="48.85945400" lon="8.443073000">
        <ele>270.74841</ele>
        <time>2008-10-11T22:56:29Z</time>
      </trkpt>
      <trkpt lat="48.85957200" lon="8.443222000">
        <ele>273.15185</ele>
        <time>2008-10-11T22:56:35Z</time>
      </trkpt>
      <trkpt lat="48.85967900" lon="8.443426000">
        <ele>274.11303</ele>
        <time>2008-10-11T22:56:42Z</time>
      </trkpt>
      <trkpt lat="48.85980900" lon="8.443556000">
        <ele>276.99707</ele>
        <time>2008-10-11T22:56:48Z</time>
      </trkpt>
      <trkpt lat="48.85985400" lon="8.443803000">
        <ele>275.07446</ele>
        <time>2008-10-11T22:56:55Z</time>
      </trkpt>
      <trkpt lat="48.85997300" lon="8.443949000">
        <ele>276.51635</ele>
        <time>2008-10-11T22:57:01Z</time>
      </trkpt>
      <trkpt lat="48.86012200" lon="8.444105000">
        <ele>278.91967</ele>
        <time>2008-10-11T22:57:08Z</time>
      </trkpt>
      <trkpt lat="48.86021000" lon="8.444247000">
        <ele>280.84240</ele>
        <time>2008-10-11T22:57:14Z</time>
      </trkpt>
      <trkpt lat="48.86030500" lon="8.444465000">
        <ele>280.36169</ele>
        <time>2008-10-11T22:57:20Z</time>
      </trkpt>
      <trkpt lat="48.86037500" lon="8.444689000">
        <ele>277.95825</ele>
        <time>2008-10-11T22:57:27Z</time>
      </trkpt>
      <trkpt lat="48.86042900" lon="8.444880000">
        <ele>276.51635</ele>
        <time>2008-10-11T22:57:32Z</time>
      </trkpt>
      <trkpt lat="48.86053700" lon="8.445107000">
        <ele>275.55505</ele>
        <time>2008-10-11T22:57:40Z</time>
      </trkpt>
      <trkpt lat="48.86064500" lon="8.445323000">
        <ele>274.59375</ele>
        <time>2008-10-11T22:57:47Z</time>
      </trkpt>
      <trkpt lat="48.86069900" lon="8.445518000">
        <ele>270.74841</ele>
        <time>2008-10-11T22:57:53Z</time>
      </trkpt>
      <trkpt lat="48.86070600" lon="8.445554000">
        <ele>270.26770</ele>
        <time>2008-10-11T22:57:54Z</time>
      </trkpt>
      <trkpt lat="48.86080500" lon="8.445684000">
        <ele>268.82580</ele>
        <time>2008-10-11T22:57:59Z</time>
      </trkpt>
      <trkpt lat="48.86088800" lon="8.445867000">
        <ele>264.49987</ele>
        <time>2008-10-11T22:58:05Z</time>
      </trkpt>
      <trkpt lat="48.86097700" lon="8.446005000">
        <ele>261.61596</ele>
        <time>2008-10-11T22:58:10Z</time>
      </trkpt>
      <trkpt lat="48.86109800" lon="8.446042000">
        <ele>260.17395</ele>
        <time>2008-10-11T22:58:15Z</time>
      </trkpt>
      <trkpt lat="48.86126100" lon="8.446085000">
        <ele>260.17395</ele>
        <time>2008-10-11T22:58:21Z</time>
      </trkpt>
      <trkpt lat="48.86142300" lon="8.446094000">
        <ele>257.29003</ele>
        <time>2008-10-11T22:58:28Z</time>
      </trkpt>
      <trkpt lat="48.86155400" lon="8.446119000">
        <ele>260.65454</ele>
        <time>2008-10-11T22:58:33Z</time>
      </trkpt>
      <trkpt lat="48.86168400" lon="8.446139000">
        <ele>261.13525</ele>
        <time>2008-10-11T22:58:38Z</time>
      </trkpt>
      <trkpt lat="48.86183200" lon="8.446153000">
        <ele>259.69335</ele>
        <time>2008-10-11T22:58:44Z</time>
      </trkpt>
      <trkpt lat="48.86193500" lon="8.446171000">
        <ele>255.36731</ele>
        <time>2008-10-11T22:58:48Z</time>
      </trkpt>
      <trkpt lat="48.86212000" lon="8.446149000">
        <ele>257.77075</ele>
        <time>2008-10-11T22:58:56Z</time>
      </trkpt>
      <trkpt lat="48.86226800" lon="8.446113000">
        <ele>255.36731</ele>
        <time>2008-10-11T22:59:02Z</time>
      </trkpt>
      <trkpt lat="48.86245000" lon="8.446044000">
        <ele>255.84802</ele>
        <time>2008-10-11T22:59:09Z</time>
      </trkpt>
      <trkpt lat="48.86265600" lon="8.445936000">
        <ele>259.21264</ele>
        <time>2008-10-11T22:59:18Z</time>
      </trkpt>
      <trkpt lat="48.86275600" lon="8.445887000">
        <ele>263.53857</ele>
        <time>2008-10-11T22:59:22Z</time>
      </trkpt>
      <trkpt lat="48.86287400" lon="8.445841000">
        <ele>263.05786</ele>
        <time>2008-10-11T22:59:27Z</time>
      </trkpt>
      <trkpt lat="48.86303300" lon="8.445789000">
        <ele>264.49987</ele>
        <time>2008-10-11T22:59:34Z</time>
      </trkpt>
      <trkpt lat="48.86316200" lon="8.445733000">
        <ele>263.05786</ele>
        <time>2008-10-11T22:59:39Z</time>
      </trkpt>
      <trkpt lat="48.86332100" lon="8.445660000">
        <ele>265.46130</ele>
        <time>2008-10-11T22:59:46Z</time>
      </trkpt>
      <trkpt lat="48.86355000" lon="8.445579000">
        <ele>271.70971</ele>
        <time>2008-10-11T22:59:55Z</time>
      </trkpt>
      <trkpt lat="48.86372300" lon="8.445523000">
        <ele>275.55505</ele>
        <time>2008-10-11T23:00:02Z</time>
      </trkpt>
      <trkpt lat="48.86391200" lon="8.445525000">
        <ele>284.68762</ele>
        <time>2008-10-11T23:00:10Z</time>
      </trkpt>
      <trkpt lat="48.86402800" lon="8.445533000">
        <ele>278.91967</ele>
        <time>2008-10-11T23:00:14Z</time>
      </trkpt>
      <trkpt lat="48.86413900" lon="8.445569000">
        <ele>275.55505</ele>
        <time>2008-10-11T23:00:19Z</time>
      </trkpt>
      <trkpt lat="48.86427000" lon="8.445592000">
        <ele>278.43896</ele>
        <time>2008-10-11T23:00:24Z</time>
      </trkpt>
      <trkpt lat="48.86434200" lon="8.445623000">
        <ele>276.03564</ele>
        <time>2008-10-11T23:00:27Z</time>
      </trkpt>
      <trkpt lat="48.86449400" lon="8.445691000">
        <ele>274.11303</ele>
        <time>2008-10-11T23:00:33Z</time>
      </trkpt>
      <trkpt lat="48.86461900" lon="8.445739000">
        <ele>275.07446</ele>
        <time>2008-10-11T23:00:39Z</time>
      </trkpt>
      <trkpt lat="48.86474300" lon="8.445837000">
        <ele>276.51635</ele>
        <time>2008-10-11T23:00:44Z</time>
      </trkpt>
      <trkpt lat="48.86485600" lon="8.445928000">
        <ele>278.43896</ele>
        <time>2008-10-11T23:00:49Z</time>
      </trkpt>
      <trkpt lat="48.86494100" lon="8.445907000">
        <ele>277.95825</ele>
        <time>2008-10-11T23:00:53Z</time>
      </trkpt>
      <trkpt lat="48.86500500" lon="8.445926000">
        <ele>280.36169</ele>
        <time>2008-10-11T23:00:55Z</time>
      </trkpt>
      <trkpt lat="48.86513900" lon="8.446049000">
        <ele>280.36169</ele>
        <time>2008-10-11T23:01:02Z</time>
      </trkpt>
      <trkpt lat="48.86525500" lon="8.446128000">
        <ele>283.72619</ele>
        <time>2008-10-11T23:01:07Z</time>
      </trkpt>
      <trkpt lat="48.86536600" lon="8.446226000">
        <ele>282.76501</ele>
        <time>2008-10-11T23:01:12Z</time>
      </trkpt>
      <trkpt lat="48.86551500" lon="8.446267000">
        <ele>279.40026</ele>
        <time>2008-10-11T23:01:18Z</time>
      </trkpt>
      <trkpt lat="48.86565800" lon="8.446353000">
        <ele>274.11303</ele>
        <time>2008-10-11T23:01:24Z</time>
      </trkpt>
      <trkpt lat="48.86581500" lon="8.446390000">
        <ele>273.63244</ele>
        <time>2008-10-11T23:01:30Z</time>
      </trkpt>
      <trkpt lat="48.86603500" lon="8.446392000">
        <ele>276.99707</ele>
        <time>2008-10-11T23:01:39Z</time>
      </trkpt>
      <trkpt lat="48.86612900" lon="8.446436000">
        <ele>279.88085</ele>
        <time>2008-10-11T23:01:43Z</time>
      </trkpt>
      <trkpt lat="48.86629600" lon="8.446488000">
        <ele>279.88085</ele>
        <time>2008-10-11T23:01:50Z</time>
      </trkpt>
      <trkpt lat="48.86644100" lon="8.446539000">
        <ele>275.55505</ele>
        <time>2008-10-11T23:01:56Z</time>
      </trkpt>
      <trkpt lat="48.86660900" lon="8.446550000">
        <ele>270.26770</ele>
        <time>2008-10-11T23:02:03Z</time>
      </trkpt>
      <trkpt lat="48.86678200" lon="8.446563000">
        <ele>268.34509</ele>
        <time>2008-10-11T23:02:10Z</time>
      </trkpt>
      <trkpt lat="48.86699800" lon="8.446532000">
        <ele>268.82580</ele>
        <time>2008-10-11T23:02:18Z</time>
      </trkpt>
      <trkpt lat="48.86703000" lon="8.446535000">
        <ele>269.78710</ele>
        <time>2008-10-11T23:02:20Z</time>
      </trkpt>
      <trkpt lat="48.86717300" lon="8.446535000">
        <ele>274.59375</ele>
        <time>2008-10-11T23:02:25Z</time>
      </trkpt>
      <trkpt lat="48.86728200" lon="8.446526000">
        <ele>274.59375</ele>
        <time>2008-10-11T23:02:30Z</time>
      </trkpt>
      <trkpt lat="48.86740500" lon="8.446505000">
        <ele>275.07446</ele>
        <time>2008-10-11T23:02:35Z</time>
      </trkpt>
      <trkpt lat="48.86757700" lon="8.446502000">
        <ele>269.78710</ele>
        <time>2008-10-11T23:02:42Z</time>
      </trkpt>
      <trkpt lat="48.86775000" lon="8.446599000">
        <ele>267.86450</ele>
        <time>2008-10-11T23:02:49Z</time>
      </trkpt>
      <trkpt lat="48.86787400" lon="8.446707000">
        <ele>265.46130</ele>
        <time>2008-10-11T23:02:55Z</time>
      </trkpt>
      <trkpt lat="48.86804200" lon="8.446795000">
        <ele>264.01928</ele>
        <time>2008-10-11T23:03:02Z</time>
      </trkpt>
      <trkpt lat="48.86819800" lon="8.446906000">
        <ele>267.86450</ele>
        <time>2008-10-11T23:03:09Z</time>
      </trkpt>
      <trkpt lat="48.86821300" lon="8.446940000">
        <ele>268.34509</ele>
        <time>2008-10-11T23:03:10Z</time>
      </trkpt>
      <trkpt lat="48.86833900" lon="8.447069000">
        <ele>267.86450</ele>
        <time>2008-10-11T23:03:16Z</time>
      </trkpt>
      <trkpt lat="48.86839300" lon="8.447230000">
        <ele>268.34509</ele>
        <time>2008-10-11T23:03:21Z</time>
      </trkpt>
      <trkpt lat="48.86848400" lon="8.447358000">
        <ele>269.30651</ele>
        <time>2008-10-11T23:03:26Z</time>
      </trkpt>
      <trkpt lat="48.86861100" lon="8.447549000">
        <ele>267.86450</ele>
        <time>2008-10-11T23:03:33Z</time>
      </trkpt>
      <trkpt lat="48.86875800" lon="8.447657000">
        <ele>267.38391</ele>
        <time>2008-10-11T23:03:39Z</time>
      </trkpt>
      <trkpt lat="48.86889900" lon="8.447785000">
        <ele>267.86450</ele>
        <time>2008-10-11T23:03:46Z</time>
      </trkpt>
      <trkpt lat="48.86898400" lon="8.447863000">
        <ele>264.49987</ele>
        <time>2008-10-11T23:03:50Z</time>
      </trkpt>
      <trkpt lat="48.86903800" lon="8.447944000">
        <ele>260.17395</ele>
        <time>2008-10-11T23:03:53Z</time>
      </trkpt>
      <trkpt lat="48.86910300" lon="8.447983000">
        <ele>261.61596</ele>
        <time>2008-10-11T23:03:56Z</time>
      </trkpt>
      <trkpt lat="48.86925800" lon="8.448084000">
        <ele>263.05786</ele>
        <time>2008-10-11T23:04:02Z</time>
      </trkpt>
      <trkpt lat="48.86941700" lon="8.448194000">
        <ele>265.94189</ele>
        <time>2008-10-11T23:04:09Z</time>
      </trkpt>
      <trkpt lat="48.86955500" lon="8.448320000">
        <ele>265.94189</ele>
        <time>2008-10-11T23:04:16Z</time>
      </trkpt>
      <trkpt lat="48.86969200" lon="8.448482000">
        <ele>265.46130</ele>
        <time>2008-10-11T23:04:23Z</time>
      </trkpt>
      <trkpt lat="48.86981800" lon="8.448603000">
        <ele>264.49987</ele>
        <time>2008-10-11T23:04:29Z</time>
      </trkpt>
      <trkpt lat="48.86996900" lon="8.448682000">
        <ele>260.65454</ele>
        <time>2008-10-11T23:04:35Z</time>
      </trkpt>
      <trkpt lat="48.87011300" lon="8.448782000">
        <ele>252.96398</ele>
        <time>2008-10-11T23:04:41Z</time>
      </trkpt>
      <trkpt lat="48.87023300" lon="8.448865000">
        <ele>249.59948</ele>
        <time>2008-10-11T23:04:47Z</time>
      </trkpt>
      <trkpt lat="48.87043500" lon="8.448956000">
        <ele>252.96398</ele>
        <time>2008-10-11T23:04:55Z</time>
      </trkpt>
      <trkpt lat="48.87057300" lon="8.449102000">
        <ele>254.40600</ele>
        <time>2008-10-11T23:05:02Z</time>
      </trkpt>
      <trkpt lat="48.87072700" lon="8.449179000">
        <ele>253.44470</ele>
        <time>2008-10-11T23:05:08Z</time>
      </trkpt>
      <trkpt lat="48.87082400" lon="8.449269000">
        <ele>252.00280</ele>
        <time>2008-10-11T23:05:13Z</time>
      </trkpt>
      <trkpt lat="48.87100600" lon="8.449292000">
        <ele>253.44470</ele>
        <time>2008-10-11T23:05:20Z</time>
      </trkpt>
      <trkpt lat="48.87115300" lon="8.449397000">
        <ele>255.36731</ele>
        <time>2008-10-11T23:05:27Z</time>
      </trkpt>
      <trkpt lat="48.87128500" lon="8.449472000">
        <ele>259.21264</ele>
        <time>2008-10-11T23:05:32Z</time>
      </trkpt>
      <trkpt lat="48.87143700" lon="8.449489000">
        <ele>258.73193</ele>
        <time>2008-10-11T23:05:39Z</time>
      </trkpt>
      <trkpt lat="48.87152900" lon="8.449489000">
        <ele>258.73193</ele>
        <time>2008-10-11T23:05:42Z</time>
      </trkpt>
      <trkpt lat="48.87161600" lon="8.449500000">
        <ele>258.25134</ele>
        <time>2008-10-11T23:05:46Z</time>
      </trkpt>
      <trkpt lat="48.87177800" lon="8.449483000">
        <ele>257.77075</ele>
        <time>2008-10-11T23:05:52Z</time>
      </trkpt>
      <trkpt lat="48.87198900" lon="8.449546000">
        <ele>257.29003</ele>
        <time>2008-10-11T23:06:01Z</time>
      </trkpt>
      <trkpt lat="48.87207200" lon="8.449634000">
        <ele>259.21264</ele>
        <time>2008-10-11T23:06:05Z</time>
      </trkpt>
      <trkpt lat="48.87220300" lon="8.449664000">
        <ele>255.36731</ele>
        <time>2008-10-11T23:06:10Z</time>
      </trkpt>
      <trkpt lat="48.87240700" lon="8.449781000">
        <ele>259.21264</ele>
        <time>2008-10-11T23:06:19Z</time>
      </trkpt>
      <trkpt lat="48.87256500" lon="8.449820000">
        <ele>260.17395</ele>
        <time>2008-10-11T23:06:25Z</time>
      </trkpt>
      <trkpt lat="48.87266700" lon="8.449906000">
        <ele>256.32873</ele>
        <time>2008-10-11T23:06:30Z</time>
      </trkpt>
      <trkpt lat="48.87276300" lon="8.449973000">
        <ele>252.00280</ele>
        <time>2008-10-11T23:06:34Z</time>
      </trkpt>
      <trkpt lat="48.87293800" lon="8.450079000">
        <ele>255.84802</ele>
        <time>2008-10-11T23:06:42Z</time>
      </trkpt>
      <trkpt lat="48.87305200" lon="8.450205000">
        <ele>257.77075</ele>
        <time>2008-10-11T23:06:47Z</time>
      </trkpt>
      <trkpt lat="48.87317900" lon="8.450260000">
        <ele>254.40600</ele>
        <time>2008-10-11T23:06:53Z</time>
      </trkpt>
      <trkpt lat="48.87321300" lon="8.450283000">
        <ele>254.40600</ele>
        <time>2008-10-11T23:06:54Z</time>
      </trkpt>
      <trkpt lat="48.87333200" lon="8.450314000">
        <ele>254.40600</ele>
        <time>2008-10-11T23:06:59Z</time>
      </trkpt>
      <trkpt lat="48.87347200" lon="8.450385000">
        <ele>252.00280</ele>
        <time>2008-10-11T23:07:05Z</time>
      </trkpt>
      <trkpt lat="48.87361600" lon="8.450510000">
        <ele>252.48339</ele>
        <time>2008-10-11T23:07:12Z</time>
      </trkpt>
      <trkpt lat="48.87373200" lon="8.450585000">
        <ele>250.08020</ele>
        <time>2008-10-11T23:07:17Z</time>
      </trkpt>
      <trkpt lat="48.87390000" lon="8.450712000">
        <ele>250.08020</ele>
        <time>2008-10-11T23:07:24Z</time>
      </trkpt>
      <trkpt lat="48.87401700" lon="8.450825000">
        <ele>253.92541</ele>
        <time>2008-10-11T23:07:30Z</time>
      </trkpt>
      <trkpt lat="48.87423300" lon="8.450900000">
        <ele>251.04138</ele>
        <time>2008-10-11T23:07:38Z</time>
      </trkpt>
      <trkpt lat="48.87436400" lon="8.450973000">
        <ele>248.15759</ele>
        <time>2008-10-11T23:07:44Z</time>
      </trkpt>
      <trkpt lat="48.87446400" lon="8.451058000">
        <ele>246.23486</ele>
        <time>2008-10-11T23:07:49Z</time>
      </trkpt>
      <trkpt lat="48.87454100" lon="8.451131000">
        <ele>251.04138</ele>
        <time>2008-10-11T23:07:52Z</time>
      </trkpt>
      <trkpt lat="48.87471700" lon="8.451229000">
        <ele>251.52209</ele>
        <time>2008-10-11T23:08:00Z</time>
      </trkpt>
      <trkpt lat="48.87490100" lon="8.451362000">
        <ele>250.08020</ele>
        <time>2008-10-11T23:08:08Z</time>
      </trkpt>
      <trkpt lat="48.87492000" lon="8.451416000">
        <ele>250.08020</ele>
        <time>2008-10-11T23:08:10Z</time>
      </trkpt>
      <trkpt lat="48.87512100" lon="8.451529000">
        <ele>254.40600</ele>
        <time>2008-10-11T23:08:18Z</time>
      </trkpt>
      <trkpt lat="48.87527000" lon="8.451674000">
        <ele>257.29003</ele>
        <time>2008-10-11T23:08:25Z</time>
      </trkpt>
      <trkpt lat="48.87536500" lon="8.451751000">
        <ele>255.84802</ele>
        <time>2008-10-11T23:08:30Z</time>
      </trkpt>
      <trkpt lat="48.87548500" lon="8.451841000">
        <ele>250.08020</ele>
        <time>2008-10-11T23:08:35Z</time>
      </trkpt>
      <trkpt lat="48.87567900" lon="8.451949000">
        <ele>246.23486</ele>
        <time>2008-10-11T23:08:43Z</time>
      </trkpt>
      <trkpt lat="48.87573200" lon="8.451948000">
        <ele>242.38964</ele>
        <time>2008-10-11T23:08:45Z</time>
      </trkpt>
      <trkpt lat="48.87586500" lon="8.452058000">
        <ele>244.79284</ele>
        <time>2008-10-11T23:08:51Z</time>
      </trkpt>
      <trkpt lat="48.87607200" lon="8.452100000">
        <ele>243.35083</ele>
        <time>2008-10-11T23:09:00Z</time>
      </trkpt>
      <trkpt lat="48.87617300" lon="8.452065000">
        <ele>242.38964</ele>
        <time>2008-10-11T23:09:04Z</time>
      </trkpt>
      <trkpt lat="48.87628200" lon="8.452109000">
        <ele>243.83154</ele>
        <time>2008-10-11T23:09:08Z</time>
      </trkpt>
      <trkpt lat="48.87636400" lon="8.452088000">
        <ele>239.50549</ele>
        <time>2008-10-11T23:09:12Z</time>
      </trkpt>
      <trkpt lat="48.87651400" lon="8.452039000">
        <ele>236.14099</ele>
        <time>2008-10-11T23:09:18Z</time>
      </trkpt>
      <trkpt lat="48.87667000" lon="8.452003000">
        <ele>239.50549</ele>
        <time>2008-10-11T23:09:24Z</time>
      </trkpt>
      <trkpt lat="48.87683800" lon="8.451994000">
        <ele>239.02490</ele>
        <time>2008-10-11T23:09:31Z</time>
      </trkpt>
      <trkpt lat="48.87700000" lon="8.451947000">
        <ele>236.62170</ele>
        <time>2008-10-11T23:09:37Z</time>
      </trkpt>
      <trkpt lat="48.87715900" lon="8.451960000">
        <ele>242.38964</ele>
        <time>2008-10-11T23:09:44Z</time>
      </trkpt>
      <trkpt lat="48.87729600" lon="8.451974000">
        <ele>247.67675</ele>
        <time>2008-10-11T23:09:49Z</time>
      </trkpt>
      <trkpt lat="48.87742100" lon="8.451999000">
        <ele>242.38964</ele>
        <time>2008-10-11T23:09:54Z</time>
      </trkpt>
      <trkpt lat="48.87744300" lon="8.451990000">
        <ele>241.42822</ele>
        <time>2008-10-11T23:09:55Z</time>
      </trkpt>
      <trkpt lat="48.87759000" lon="8.451977000">
        <ele>240.46704</ele>
        <time>2008-10-11T23:10:01Z</time>
      </trkpt>
      <trkpt lat="48.87767400" lon="8.451967000">
        <ele>238.54431</ele>
        <time>2008-10-11T23:10:05Z</time>
      </trkpt>
      <trkpt lat="48.87777100" lon="8.451881000">
        <ele>238.06359</ele>
        <time>2008-10-11T23:10:09Z</time>
      </trkpt>
      <trkpt lat="48.87787600" lon="8.451811000">
        <ele>236.14099</ele>
        <time>2008-10-11T23:10:14Z</time>
      </trkpt>
      <trkpt lat="48.87791400" lon="8.451795000">
        <ele>236.14099</ele>
        <time>2008-10-11T23:10:15Z</time>
      </trkpt>
      <trkpt lat="48.87807500" lon="8.451704000">
        <ele>235.66027</ele>
        <time>2008-10-11T23:10:22Z</time>
      </trkpt>
      <trkpt lat="48.87818100" lon="8.451663000">
        <ele>242.38964</ele>
        <time>2008-10-11T23:10:26Z</time>
      </trkpt>
      <trkpt lat="48.87825800" lon="8.451603000">
        <ele>248.15759</ele>
        <time>2008-10-11T23:10:30Z</time>
      </trkpt>
      <trkpt lat="48.87840600" lon="8.451543000">
        <ele>249.11877</ele>
        <time>2008-10-11T23:10:36Z</time>
      </trkpt>
      <trkpt lat="48.87858100" lon="8.451507000">
        <ele>253.44470</ele>
        <time>2008-10-11T23:10:43Z</time>
      </trkpt>
      <trkpt lat="48.87887900" lon="8.451428000">
        <ele>247.67675</ele>
        <time>2008-10-11T23:10:55Z</time>
      </trkpt>
      <trkpt lat="48.87903900" lon="8.451443000">
        <ele>252.48339</ele>
        <time>2008-10-11T23:11:02Z</time>
      </trkpt>
      <trkpt lat="48.87915700" lon="8.451400000">
        <ele>251.04138</ele>
        <time>2008-10-11T23:11:07Z</time>
      </trkpt>
      <trkpt lat="48.87928800" lon="8.451357000">
        <ele>242.38964</ele>
        <time>2008-10-11T23:11:12Z</time>
      </trkpt>
      <trkpt lat="48.87944400" lon="8.451334000">
        <ele>243.83154</ele>
        <time>2008-10-11T23:11:18Z</time>
      </trkpt>
      <trkpt lat="48.87959000" lon="8.451247000">
        <ele>236.62170</ele>
        <time>2008-10-11T23:11:24Z</time>
      </trkpt>
      <trkpt lat="48.87970000" lon="8.451187000">
        <ele>230.37304</ele>
        <time>2008-10-11T23:11:29Z</time>
      </trkpt>
      <trkpt lat="48.87985300" lon="8.451117000">
        <ele>228.45043</ele>
        <time>2008-10-11T23:11:36Z</time>
      </trkpt>
      <trkpt lat="48.88000900" lon="8.451034000">
        <ele>227.96972</ele>
        <time>2008-10-11T23:11:42Z</time>
      </trkpt>
      <trkpt lat="48.88014200" lon="8.450975000">
        <ele>225.56652</ele>
        <time>2008-10-11T23:11:48Z</time>
      </trkpt>
      <trkpt lat="48.88026300" lon="8.450912000">
        <ele>224.12451</ele>
        <time>2008-10-11T23:11:53Z</time>
      </trkpt>
      <trkpt lat="48.88047800" lon="8.450850000">
        <ele>223.64379</ele>
        <time>2008-10-11T23:12:02Z</time>
      </trkpt>
      <trkpt lat="48.88057900" lon="8.450821000">
        <ele>225.56652</ele>
        <time>2008-10-11T23:12:06Z</time>
      </trkpt>
      <trkpt lat="48.88078400" lon="8.450716000">
        <ele>227.48913</ele>
        <time>2008-10-11T23:12:14Z</time>
      </trkpt>
      <trkpt lat="48.88095700" lon="8.450619000">
        <ele>225.56652</ele>
        <time>2008-10-11T23:12:22Z</time>
      </trkpt>
      <trkpt lat="48.88112200" lon="8.450557000">
        <ele>223.16320</ele>
        <time>2008-10-11T23:12:29Z</time>
      </trkpt>
      <trkpt lat="48.88120800" lon="8.450477000">
        <ele>222.20178</ele>
        <time>2008-10-11T23:12:33Z</time>
      </trkpt>
      <trkpt lat="48.88131300" lon="8.450432000">
        <ele>224.12451</ele>
        <time>2008-10-11T23:12:37Z</time>
      </trkpt>
      <trkpt lat="48.88147200" lon="8.450328000">
        <ele>222.68249</ele>
        <time>2008-10-11T23:12:44Z</time>
      </trkpt>
      <trkpt lat="48.88157600" lon="8.450283000">
        <ele>224.12451</ele>
        <time>2008-10-11T23:12:48Z</time>
      </trkpt>
      <trkpt lat="48.88166500" lon="8.450246000">
        <ele>226.04711</ele>
        <time>2008-10-11T23:12:52Z</time>
      </trkpt>
      <trkpt lat="48.88173300" lon="8.450224000">
        <ele>227.48913</ele>
        <time>2008-10-11T23:12:55Z</time>
      </trkpt>
      <trkpt lat="48.88191400" lon="8.450140000">
        <ele>228.45043</ele>
        <time>2008-10-11T23:13:02Z</time>
      </trkpt>
      <trkpt lat="48.88207500" lon="8.450073000">
        <ele>230.37304</ele>
        <time>2008-10-11T23:13:09Z</time>
      </trkpt>
      <trkpt lat="48.88222400" lon="8.449978000">
        <ele>226.52783</ele>
        <time>2008-10-11T23:13:15Z</time>
      </trkpt>
      <trkpt lat="48.88239200" lon="8.449892000">
        <ele>230.37304</ele>
        <time>2008-10-11T23:13:22Z</time>
      </trkpt>
      <trkpt lat="48.88251400" lon="8.449795000">
        <ele>227.00854</ele>
        <time>2008-10-11T23:13:28Z</time>
      </trkpt>
      <trkpt lat="48.88265000" lon="8.449645000">
        <ele>224.60522</ele>
        <time>2008-10-11T23:13:35Z</time>
      </trkpt>
      <trkpt lat="48.88276600" lon="8.449563000">
        <ele>224.60522</ele>
        <time>2008-10-11T23:13:40Z</time>
      </trkpt>
      <trkpt lat="48.88289200" lon="8.449496000">
        <ele>222.68249</ele>
        <time>2008-10-11T23:13:45Z</time>
      </trkpt>
      <trkpt lat="48.88301000" lon="8.449457000">
        <ele>223.16320</ele>
        <time>2008-10-11T23:13:50Z</time>
      </trkpt>
      <trkpt lat="48.88313200" lon="8.449413000">
        <ele>222.20178</ele>
        <time>2008-10-11T23:13:55Z</time>
      </trkpt>
      <trkpt lat="48.88323500" lon="8.449374000">
        <ele>225.08593</ele>
        <time>2008-10-11T23:13:59Z</time>
      </trkpt>
      <trkpt lat="48.88336600" lon="8.449269000">
        <ele>226.52783</ele>
        <time>2008-10-11T23:14:05Z</time>
      </trkpt>
      <trkpt lat="48.88350500" lon="8.449166000">
        <ele>226.52783</ele>
        <time>2008-10-11T23:14:11Z</time>
      </trkpt>
      <trkpt lat="48.88361900" lon="8.449068000">
        <ele>227.48913</ele>
        <time>2008-10-11T23:14:17Z</time>
      </trkpt>
      <trkpt lat="48.88378400" lon="8.448953000">
        <ele>219.79858</ele>
        <time>2008-10-11T23:14:24Z</time>
      </trkpt>
      <trkpt lat="48.88392800" lon="8.448847000">
        <ele>216.91467</ele>
        <time>2008-10-11T23:14:30Z</time>
      </trkpt>
      <trkpt lat="48.88398600" lon="8.448783000">
        <ele>224.12451</ele>
        <time>2008-10-11T23:14:33Z</time>
      </trkpt>
      <trkpt lat="48.88413700" lon="8.448646000">
        <ele>222.68249</ele>
        <time>2008-10-11T23:14:40Z</time>
      </trkpt>
      <trkpt lat="48.88425700" lon="8.448607000">
        <ele>227.96972</ele>
        <time>2008-10-11T23:14:45Z</time>
      </trkpt>
      <trkpt lat="48.88436700" lon="8.448584000">
        <ele>231.81494</ele>
        <time>2008-10-11T23:14:50Z</time>
      </trkpt>
      <trkpt lat="48.88455200" lon="8.448575000">
        <ele>238.54431</ele>
        <time>2008-10-11T23:14:57Z</time>
      </trkpt>
      <trkpt lat="48.88470100" lon="8.448528000">
        <ele>238.54431</ele>
        <time>2008-10-11T23:15:03Z</time>
      </trkpt>
      <trkpt lat="48.88487900" lon="8.448526000">
        <ele>239.98620</ele>
        <time>2008-10-11T23:15:10Z</time>
      </trkpt>
      <trkpt lat="48.88500000" lon="8.448464000">
        <ele>238.06359</ele>
        <time>2008-10-11T23:15:15Z</time>
      </trkpt>
      <trkpt lat="48.88518200" lon="8.448434000">
        <ele>238.06359</ele>
        <time>2008-10-11T23:15:23Z</time>
      </trkpt>
      <trkpt lat="48.88533300" lon="8.448394000">
        <ele>241.42822</ele>
        <time>2008-10-11T23:15:29Z</time>
      </trkpt>
      <trkpt lat="48.88547200" lon="8.448420000">
        <ele>233.25708</ele>
        <time>2008-10-11T23:15:34Z</time>
      </trkpt>
      <trkpt lat="48.88561400" lon="8.448341000">
        <ele>231.81494</ele>
        <time>2008-10-11T23:15:40Z</time>
      </trkpt>
      <trkpt lat="48.88572100" lon="8.448273000">
        <ele>229.89233</ele>
        <time>2008-10-11T23:15:45Z</time>
      </trkpt>
      <trkpt lat="48.88592100" lon="8.448215000">
        <ele>231.33435</ele>
        <time>2008-10-11T23:15:53Z</time>
      </trkpt>
      <trkpt lat="48.88597000" lon="8.448205000">
        <ele>230.37304</ele>
        <time>2008-10-11T23:15:55Z</time>
      </trkpt>
      <trkpt lat="48.88605400" lon="8.448195000">
        <ele>228.93115</ele>
        <time>2008-10-11T23:15:59Z</time>
      </trkpt>
      <trkpt lat="48.88620800" lon="8.448172000">
        <ele>227.96972</ele>
        <time>2008-10-11T23:16:05Z</time>
      </trkpt>
      <trkpt lat="48.88637500" lon="8.448133000">
        <ele>233.73767</ele>
        <time>2008-10-11T23:16:12Z</time>
      </trkpt>
      <trkpt lat="48.88650000" lon="8.448097000">
        <ele>230.85376</ele>
        <time>2008-10-11T23:16:17Z</time>
      </trkpt>
      <trkpt lat="48.88667100" lon="8.448054000">
        <ele>228.45043</ele>
        <time>2008-10-11T23:16:24Z</time>
      </trkpt>
      <trkpt lat="48.88680800" lon="8.448004000">
        <ele>224.60522</ele>
        <time>2008-10-11T23:16:29Z</time>
      </trkpt>
      <trkpt lat="48.88697400" lon="8.447942000">
        <ele>222.20178</ele>
        <time>2008-10-11T23:16:36Z</time>
      </trkpt>
      <trkpt lat="48.88715900" lon="8.447866000">
        <ele>217.39538</ele>
        <time>2008-10-11T23:16:44Z</time>
      </trkpt>
      <trkpt lat="48.88730300" lon="8.447806000">
        <ele>215.47265</ele>
        <time>2008-10-11T23:16:50Z</time>
      </trkpt>
      <trkpt lat="48.88743100" lon="8.447746000">
        <ele>218.35656</ele>
        <time>2008-10-11T23:16:55Z</time>
      </trkpt>
      <trkpt lat="48.88757700" lon="8.447690000">
        <ele>222.68249</ele>
        <time>2008-10-11T23:17:01Z</time>
      </trkpt>
      <trkpt lat="48.88773100" lon="8.447615000">
        <ele>223.64379</ele>
        <time>2008-10-11T23:17:08Z</time>
      </trkpt>
      <trkpt lat="48.88790200" lon="8.447511000">
        <ele>225.56652</ele>
        <time>2008-10-11T23:17:15Z</time>
      </trkpt>
      <trkpt lat="48.88806000" lon="8.447382000">
        <ele>222.68249</ele>
        <time>2008-10-11T23:17:22Z</time>
      </trkpt>
      <trkpt lat="48.88818700" lon="8.447267000">
        <ele>219.31799</ele>
        <time>2008-10-11T23:17:28Z</time>
      </trkpt>
      <trkpt lat="48.88828400" lon="8.447097000">
        <ele>216.91467</ele>
        <time>2008-10-11T23:17:34Z</time>
      </trkpt>
      <trkpt lat="48.88832000" lon="8.446898000">
        <ele>217.39538</ele>
        <time>2008-10-11T23:17:39Z</time>
      </trkpt>
      <trkpt lat="48.88837600" lon="8.446686000">
        <ele>223.64379</ele>
        <time>2008-10-11T23:17:45Z</time>
      </trkpt>
      <trkpt lat="48.88849000" lon="8.446568000">
        <ele>222.20178</ele>
        <time>2008-10-11T23:17:51Z</time>
      </trkpt>
      <trkpt lat="48.88865600" lon="8.446522000">
        <ele>222.20178</ele>
        <time>2008-10-11T23:17:58Z</time>
      </trkpt>
      <trkpt lat="48.88884800" lon="8.446504000">
        <ele>216.91467</ele>
        <time>2008-10-11T23:18:05Z</time>
      </trkpt>
      <trkpt lat="48.88905600" lon="8.446502000">
        <ele>216.43396</ele>
        <time>2008-10-11T23:18:14Z</time>
      </trkpt>
      <trkpt lat="48.88922000" lon="8.446502000">
        <ele>216.91467</ele>
        <time>2008-10-11T23:18:20Z</time>
      </trkpt>
      <trkpt lat="48.88935800" lon="8.446503000">
        <ele>217.39538</ele>
        <time>2008-10-11T23:18:26Z</time>
      </trkpt>
      <trkpt lat="48.88948800" lon="8.446507000">
        <ele>219.79858</ele>
        <time>2008-10-11T23:18:31Z</time>
      </trkpt>
      <trkpt lat="48.88960900" lon="8.446527000">
        <ele>226.52783</ele>
        <time>2008-10-11T23:18:36Z</time>
      </trkpt>
      <trkpt lat="48.88971700" lon="8.446696000">
        <ele>227.96972</ele>
        <time>2008-10-11T23:18:42Z</time>
      </trkpt>
      <trkpt lat="48.88978700" lon="8.446902000">
        <ele>231.33435</ele>
        <time>2008-10-11T23:18:48Z</time>
      </trkpt>
      <trkpt lat="48.88985200" lon="8.447071000">
        <ele>230.37304</ele>
        <time>2008-10-11T23:18:53Z</time>
      </trkpt>
      <trkpt lat="48.88986500" lon="8.447108000">
        <ele>228.93115</ele>
        <time>2008-10-11T23:18:54Z</time>
      </trkpt>
      <trkpt lat="48.88993400" lon="8.447327000">
        <ele>226.52783</ele>
        <time>2008-10-11T23:19:01Z</time>
      </trkpt>
      <trkpt lat="48.88998600" lon="8.447513000">
        <ele>223.16320</ele>
        <time>2008-10-11T23:19:06Z</time>
      </trkpt>
      <trkpt lat="48.89003900" lon="8.447691000">
        <ele>223.16320</ele>
        <time>2008-10-11T23:19:11Z</time>
      </trkpt>
      <trkpt lat="48.89010900" lon="8.447870000">
        <ele>226.04711</ele>
        <time>2008-10-11T23:19:17Z</time>
      </trkpt>
      <trkpt lat="48.89016700" lon="8.448043000">
        <ele>226.52783</ele>
        <time>2008-10-11T23:19:22Z</time>
      </trkpt>
      <trkpt lat="48.89021400" lon="8.448174000">
        <ele>225.08593</ele>
        <time>2008-10-11T23:19:26Z</time>
      </trkpt>
      <trkpt lat="48.89027800" lon="8.448366000">
        <ele>225.56652</ele>
        <time>2008-10-11T23:19:31Z</time>
      </trkpt>
      <trkpt lat="48.89037900" lon="8.448617000">
        <ele>223.16320</ele>
        <time>2008-10-11T23:19:39Z</time>
      </trkpt>
      <trkpt lat="48.89048500" lon="8.448819000">
        <ele>225.56652</ele>
        <time>2008-10-11T23:19:46Z</time>
      </trkpt>
      <trkpt lat="48.89058500" lon="8.449000000">
        <ele>227.48913</ele>
        <time>2008-10-11T23:19:52Z</time>
      </trkpt>
      <trkpt lat="48.89068000" lon="8.449139000">
        <ele>227.00854</ele>
        <time>2008-10-11T23:19:58Z</time>
      </trkpt>
      <trkpt lat="48.89082800" lon="8.449242000">
        <ele>223.64379</ele>
        <time>2008-10-11T23:20:04Z</time>
      </trkpt>
      <trkpt lat="48.89098400" lon="8.449287000">
        <ele>225.08593</ele>
        <time>2008-10-11T23:20:10Z</time>
      </trkpt>
      <trkpt lat="48.89111800" lon="8.449319000">
        <ele>226.04711</ele>
        <time>2008-10-11T23:20:16Z</time>
      </trkpt>
      <trkpt lat="48.89121600" lon="8.449337000">
        <ele>224.12451</ele>
        <time>2008-10-11T23:20:20Z</time>
      </trkpt>
      <trkpt lat="48.89137100" lon="8.449319000">
        <ele>220.27917</ele>
        <time>2008-10-11T23:20:26Z</time>
      </trkpt>
      <trkpt lat="48.89152000" lon="8.449270000">
        <ele>214.51123</ele>
        <time>2008-10-11T23:20:32Z</time>
      </trkpt>
      <trkpt lat="48.89164700" lon="8.449192000">
        <ele>213.55004</ele>
        <time>2008-10-11T23:20:38Z</time>
      </trkpt>
      <trkpt lat="48.89173800" lon="8.449119000">
        <ele>214.51123</ele>
        <time>2008-10-11T23:20:42Z</time>
      </trkpt>
      <trkpt lat="48.89184700" lon="8.448973000">
        <ele>208.26281</ele>
        <time>2008-10-11T23:20:48Z</time>
      </trkpt>
      <trkpt lat="48.89195600" lon="8.448810000">
        <ele>206.34008</ele>
        <time>2008-10-11T23:20:54Z</time>
      </trkpt>
      <trkpt lat="48.89207900" lon="8.448705000">
        <ele>206.82067</ele>
        <time>2008-10-11T23:20:59Z</time>
      </trkpt>
      <trkpt lat="48.89220700" lon="8.448662000">
        <ele>207.30139</ele>
        <time>2008-10-11T23:21:05Z</time>
      </trkpt>
      <trkpt lat="48.89224100" lon="8.448664000">
        <ele>210.18542</ele>
        <time>2008-10-11T23:21:06Z</time>
      </trkpt>
      <trkpt lat="48.89237000" lon="8.448640000">
        <ele>209.70483</ele>
        <time>2008-10-11T23:21:11Z</time>
      </trkpt>
      <trkpt lat="48.89254600" lon="8.448561000">
        <ele>209.22412</ele>
        <time>2008-10-11T23:21:18Z</time>
      </trkpt>
      <trkpt lat="48.89269500" lon="8.448505000">
        <ele>211.62744</ele>
        <time>2008-10-11T23:21:25Z</time>
      </trkpt>
      <trkpt lat="48.89282300" lon="8.448441000">
        <ele>211.14672</ele>
        <time>2008-10-11T23:21:30Z</time>
      </trkpt>
      <trkpt lat="48.89293800" lon="8.448412000">
        <ele>213.55004</ele>
        <time>2008-10-11T23:21:35Z</time>
      </trkpt>
      <trkpt lat="48.89309300" lon="8.448351000">
        <ele>216.91467</ele>
        <time>2008-10-11T23:21:41Z</time>
      </trkpt>
      <trkpt lat="48.89320700" lon="8.448310000">
        <ele>218.83728</ele>
        <time>2008-10-11T23:21:46Z</time>
      </trkpt>
      <trkpt lat="48.89332400" lon="8.448268000">
        <ele>222.20178</ele>
        <time>2008-10-11T23:21:51Z</time>
      </trkpt>
      <trkpt lat="48.89340900" lon="8.448231000">
        <ele>221.72119</ele>
        <time>2008-10-11T23:21:54Z</time>
      </trkpt>
      <trkpt lat="48.89345900" lon="8.448221000">
        <ele>222.68249</ele>
        <time>2008-10-11T23:21:56Z</time>
      </trkpt>
      <trkpt lat="48.89362800" lon="8.448137000">
        <ele>226.52783</ele>
        <time>2008-10-11T23:22:03Z</time>
      </trkpt>
      <trkpt lat="48.89373300" lon="8.448096000">
        <ele>227.48913</ele>
        <time>2008-10-11T23:22:08Z</time>
      </trkpt>
      <trkpt lat="48.89384900" lon="8.448022000">
        <ele>226.52783</ele>
        <time>2008-10-11T23:22:13Z</time>
      </trkpt>
      <trkpt lat="48.89395500" lon="8.447952000">
        <ele>228.45043</ele>
        <time>2008-10-11T23:22:17Z</time>
      </trkpt>
      <trkpt lat="48.89406600" lon="8.447874000">
        <ele>225.08593</ele>
        <time>2008-10-11T23:22:22Z</time>
      </trkpt>
      <trkpt lat="48.89418800" lon="8.447787000">
        <ele>219.79858</ele>
        <time>2008-10-11T23:22:28Z</time>
      </trkpt>
      <trkpt lat="48.89429200" lon="8.447716000">
        <ele>217.87597</ele>
        <time>2008-10-11T23:22:32Z</time>
      </trkpt>
      <trkpt lat="48.89442300" lon="8.447674000">
        <ele>214.99194</ele>
        <time>2008-10-11T23:22:37Z</time>
      </trkpt>
      <trkpt lat="48.89456000" lon="8.447626000">
        <ele>216.91467</ele>
        <time>2008-10-11T23:22:43Z</time>
      </trkpt>
      <trkpt lat="48.89470800" lon="8.447571000">
        <ele>217.87597</ele>
        <time>2008-10-11T23:22:49Z</time>
      </trkpt>
      <trkpt lat="48.89481600" lon="8.447511000">
        <ele>217.39538</ele>
        <time>2008-10-11T23:22:54Z</time>
      </trkpt>
      <trkpt lat="48.89494800" lon="8.447467000">
        <ele>214.03064</ele>
        <time>2008-10-11T23:22:59Z</time>
      </trkpt>
      <trkpt lat="48.89509800" lon="8.447414000">
        <ele>214.99194</ele>
        <time>2008-10-11T23:23:05Z</time>
      </trkpt>
      <trkpt lat="48.89526400" lon="8.447358000">
        <ele>216.91467</ele>
        <time>2008-10-11T23:23:12Z</time>
      </trkpt>
      <trkpt lat="48.89546400" lon="8.447311000">
        <ele>216.91467</ele>
        <time>2008-10-11T23:23:20Z</time>
      </trkpt>
      <trkpt lat="48.89558200" lon="8.447300000">
        <ele>222.20178</ele>
        <time>2008-10-11T23:23:25Z</time>
      </trkpt>
      <trkpt lat="48.89574000" lon="8.447264000">
        <ele>223.64379</ele>
        <time>2008-10-11T23:23:31Z</time>
      </trkpt>
      <trkpt lat="48.89589800" lon="8.447255000">
        <ele>223.64379</ele>
        <time>2008-10-11T23:23:38Z</time>
      </trkpt>
      <trkpt lat="48.89610700" lon="8.447303000">
        <ele>222.68249</ele>
        <time>2008-10-11T23:23:46Z</time>
      </trkpt>
      <trkpt lat="48.89625500" lon="8.447356000">
        <ele>226.52783</ele>
        <time>2008-10-11T23:23:52Z</time>
      </trkpt>
      <trkpt lat="48.89643000" lon="8.447364000">
        <ele>227.96972</ele>
        <time>2008-10-11T23:23:59Z</time>
      </trkpt>
      <trkpt lat="48.89651900" lon="8.447356000">
        <ele>228.93115</ele>
        <time>2008-10-11T23:24:03Z</time>
      </trkpt>
      <trkpt lat="48.89665900" lon="8.447333000">
        <ele>230.85376</ele>
        <time>2008-10-11T23:24:08Z</time>
      </trkpt>
      <trkpt lat="48.89678700" lon="8.447347000">
        <ele>229.89233</ele>
        <time>2008-10-11T23:24:14Z</time>
      </trkpt>
      <trkpt lat="48.89693900" lon="8.447365000">
        <ele>224.12451</ele>
        <time>2008-10-11T23:24:20Z</time>
      </trkpt>
      <trkpt lat="48.89709500" lon="8.447413000">
        <ele>226.04711</ele>
        <time>2008-10-11T23:24:26Z</time>
      </trkpt>
      <trkpt lat="48.89719000" lon="8.447514000">
        <ele>231.33435</ele>
        <time>2008-10-11T23:24:31Z</time>
      </trkpt>
      <trkpt lat="48.89733400" lon="8.447636000">
        <ele>227.96972</ele>
        <time>2008-10-11T23:24:37Z</time>
      </trkpt>
      <trkpt lat="48.89745400" lon="8.447748000">
        <ele>224.12451</ele>
        <time>2008-10-11T23:24:43Z</time>
      </trkpt>
      <trkpt lat="48.89756800" lon="8.447839000">
        <ele>223.64379</ele>
        <time>2008-10-11T23:24:48Z</time>
      </trkpt>
      <trkpt lat="48.89769700" lon="8.447956000">
        <ele>224.60522</ele>
        <time>2008-10-11T23:24:54Z</time>
      </trkpt>
      <trkpt lat="48.89772500" lon="8.447981000">
        <ele>224.12451</ele>
        <time>2008-10-11T23:24:55Z</time>
      </trkpt>
      <trkpt lat="48.89783500" lon="8.448067000">
        <ele>218.83728</ele>
        <time>2008-10-11T23:25:00Z</time>
      </trkpt>
      <trkpt lat="48.89800600" lon="8.448188000">
        <ele>216.91467</ele>
        <time>2008-10-11T23:25:08Z</time>
      </trkpt>
      <trkpt lat="48.89813900" lon="8.448304000">
        <ele>215.47265</ele>
        <time>2008-10-11T23:25:14Z</time>
      </trkpt>
      <trkpt lat="48.89824500" lon="8.448438000">
        <ele>214.51123</ele>
        <time>2008-10-11T23:25:20Z</time>
      </trkpt>
      <trkpt lat="48.89835100" lon="8.448534000">
        <ele>219.31799</ele>
        <time>2008-10-11T23:25:25Z</time>
      </trkpt>
      <trkpt lat="48.89847300" lon="8.448652000">
        <ele>224.12451</ele>
        <time>2008-10-11T23:25:30Z</time>
      </trkpt>
      <trkpt lat="48.89861900" lon="8.448777000">
        <ele>220.75988</ele>
        <time>2008-10-11T23:25:37Z</time>
      </trkpt>
      <trkpt lat="48.89878000" lon="8.448904000">
        <ele>218.35656</ele>
        <time>2008-10-11T23:25:44Z</time>
      </trkpt>
      <trkpt lat="48.89891700" lon="8.448991000">
        <ele>216.43396</ele>
        <time>2008-10-11T23:25:50Z</time>
      </trkpt>
      <trkpt lat="48.89906200" lon="8.449064000">
        <ele>211.62744</ele>
        <time>2008-10-11T23:25:56Z</time>
      </trkpt>
      <trkpt lat="48.89924200" lon="8.449116000">
        <ele>209.22412</ele>
        <time>2008-10-11T23:26:04Z</time>
      </trkpt>
      <trkpt lat="48.89941200" lon="8.449136000">
        <ele>210.66601</ele>
        <time>2008-10-11T23:26:10Z</time>
      </trkpt>
      <trkpt lat="48.89954600" lon="8.449143000">
        <ele>209.22412</ele>
        <time>2008-10-11T23:26:16Z</time>
      </trkpt>
      <trkpt lat="48.89968900" lon="8.449203000">
        <ele>211.14672</ele>
        <time>2008-10-11T23:26:22Z</time>
      </trkpt>
      <trkpt lat="48.89988200" lon="8.449271000">
        <ele>213.06933</ele>
        <time>2008-10-11T23:26:30Z</time>
      </trkpt>
      <trkpt lat="48.90006900" lon="8.449335000">
        <ele>215.95324</ele>
        <time>2008-10-11T23:26:37Z</time>
      </trkpt>
      <trkpt lat="48.90021200" lon="8.449456000">
        <ele>220.27917</ele>
        <time>2008-10-11T23:26:44Z</time>
      </trkpt>
      <trkpt lat="48.90030500" lon="8.449629000">
        <ele>223.64379</ele>
        <time>2008-10-11T23:26:50Z</time>
      </trkpt>
      <trkpt lat="48.90032300" lon="8.449895000">
        <ele>214.51123</ele>
        <time>2008-10-11T23:26:57Z</time>
      </trkpt>
      <trkpt lat="48.90041400" lon="8.450099000">
        <ele>215.47265</ele>
        <time>2008-10-11T23:27:03Z</time>
      </trkpt>
      <trkpt lat="48.90055800" lon="8.450242000">
        <ele>208.74340</ele>
        <time>2008-10-11T23:27:10Z</time>
      </trkpt>
      <trkpt lat="48.90059800" lon="8.450294000">
        <ele>209.22412</ele>
        <time>2008-10-11T23:27:12Z</time>
      </trkpt>
      <trkpt lat="48.90070800" lon="8.450437000">
        <ele>208.26281</ele>
        <time>2008-10-11T23:27:18Z</time>
      </trkpt>
      <trkpt lat="48.90086200" lon="8.450557000">
        <ele>209.70483</ele>
        <time>2008-10-11T23:27:25Z</time>
      </trkpt>
      <trkpt lat="48.90097200" lon="8.450637000">
        <ele>211.62744</ele>
        <time>2008-10-11T23:27:30Z</time>
      </trkpt>
      <trkpt lat="48.90110300" lon="8.450663000">
        <ele>212.10803</ele>
        <time>2008-10-11T23:27:35Z</time>
      </trkpt>
      <trkpt lat="48.90130500" lon="8.450736000">
        <ele>213.55004</ele>
        <time>2008-10-11T23:27:44Z</time>
      </trkpt>
      <trkpt lat="48.90138600" lon="8.450776000">
        <ele>212.10803</ele>
        <time>2008-10-11T23:27:47Z</time>
      </trkpt>
      <trkpt lat="48.90148100" lon="8.450868000">
        <ele>212.10803</ele>
        <time>2008-10-11T23:27:51Z</time>
      </trkpt>
      <trkpt lat="48.90155700" lon="8.450931000">
        <ele>213.06933</ele>
        <time>2008-10-11T23:27:55Z</time>
      </trkpt>
      <trkpt lat="48.90161200" lon="8.450983000">
        <ele>212.10803</ele>
        <time>2008-10-11T23:27:58Z</time>
      </trkpt>
      <trkpt lat="48.90176700" lon="8.451065000">
        <ele>210.18542</ele>
        <time>2008-10-11T23:28:04Z</time>
      </trkpt>
      <trkpt lat="48.90191600" lon="8.451222000">
        <ele>213.06933</ele>
        <time>2008-10-11T23:28:11Z</time>
      </trkpt>
      <trkpt lat="48.90198500" lon="8.451305000">
        <ele>207.30139</ele>
        <time>2008-10-11T23:28:15Z</time>
      </trkpt>
      <trkpt lat="48.90210600" lon="8.451514000">
        <ele>202.97546</ele>
        <time>2008-10-11T23:28:22Z</time>
      </trkpt>
      <trkpt lat="48.90218300" lon="8.451649000">
        <ele>201.53356</ele>
        <time>2008-10-11T23:28:27Z</time>
      </trkpt>
      <trkpt lat="48.90220500" lon="8.451684000">
        <ele>200.09167</ele>
        <time>2008-10-11T23:28:28Z</time>
      </trkpt>
      <trkpt lat="48.90234100" lon="8.451898000">
        <ele>199.61084</ele>
        <time>2008-10-11T23:28:36Z</time>
      </trkpt>
      <trkpt lat="48.90242100" lon="8.452013000">
        <ele>196.72692</ele>
        <time>2008-10-11T23:28:40Z</time>
      </trkpt>
      <trkpt lat="48.90243400" lon="8.452043000">
        <ele>195.76562</ele>
        <time>2008-10-11T23:28:41Z</time>
      </trkpt>
      <trkpt lat="48.90253700" lon="8.452199000">
        <ele>191.92028</ele>
        <time>2008-10-11T23:28:47Z</time>
      </trkpt>
      <trkpt lat="48.90263600" lon="8.452344000">
        <ele>191.92028</ele>
        <time>2008-10-11T23:28:53Z</time>
      </trkpt>
      <trkpt lat="48.90266500" lon="8.452372000">
        <ele>192.88171</ele>
        <time>2008-10-11T23:28:54Z</time>
      </trkpt>
      <trkpt lat="48.90282500" lon="8.452481000">
        <ele>194.32373</ele>
        <time>2008-10-11T23:29:01Z</time>
      </trkpt>
      <trkpt lat="48.90295500" lon="8.452555000">
        <ele>196.72692</ele>
        <time>2008-10-11T23:29:07Z</time>
      </trkpt>
      <trkpt lat="48.90314700" lon="8.452668000">
        <ele>197.68823</ele>
        <time>2008-10-11T23:29:15Z</time>
      </trkpt>
      <trkpt lat="48.90329000" lon="8.452770000">
        <ele>198.64953</ele>
        <time>2008-10-11T23:29:21Z</time>
      </trkpt>
      <trkpt lat="48.90340700" lon="8.452834000">
        <ele>201.53356</ele>
        <time>2008-10-11T23:29:26Z</time>
      </trkpt>
      <trkpt lat="48.90356100" lon="8.452890000">
        <ele>205.85949</ele>
        <time>2008-10-11T23:29:32Z</time>
      </trkpt>
      <trkpt lat="48.90371800" lon="8.452934000">
        <ele>208.26281</ele>
        <time>2008-10-11T23:29:39Z</time>
      </trkpt>
      <trkpt lat="48.90393600" lon="8.453003000">
        <ele>210.66601</ele>
        <time>2008-10-11T23:29:48Z</time>
      </trkpt>
      <trkpt lat="48.90408600" lon="8.453040000">
        <ele>206.34008</ele>
        <time>2008-10-11T23:29:54Z</time>
      </trkpt>
      <trkpt lat="48.90427000" lon="8.453053000">
        <ele>205.85949</ele>
        <time>2008-10-11T23:30:01Z</time>
      </trkpt>
      <trkpt lat="48.90445500" lon="8.453077000">
        <ele>208.74340</ele>
        <time>2008-10-11T23:30:09Z</time>
      </trkpt>
      <trkpt lat="48.90459700" lon="8.453088000">
        <ele>207.78210</ele>
        <time>2008-10-11T23:30:14Z</time>
      </trkpt>
      <trkpt lat="48.90476600" lon="8.453083000">
        <ele>207.78210</ele>
        <time>2008-10-11T23:30:21Z</time>
      </trkpt>
      <trkpt lat="48.90489000" lon="8.453083000">
        <ele>205.85949</ele>
        <time>2008-10-11T23:30:26Z</time>
      </trkpt>
      <trkpt lat="48.90508300" lon="8.453057000">
        <ele>204.41748</ele>
        <time>2008-10-11T23:30:34Z</time>
      </trkpt>
      <trkpt lat="48.90525300" lon="8.453029000">
        <ele>202.97546</ele>
        <time>2008-10-11T23:30:41Z</time>
      </trkpt>
      <trkpt lat="48.90538900" lon="8.452992000">
        <ele>203.45617</ele>
        <time>2008-10-11T23:30:46Z</time>
      </trkpt>
      <trkpt lat="48.90554900" lon="8.452964000">
        <ele>203.93689</ele>
        <time>2008-10-11T23:30:53Z</time>
      </trkpt>
      <trkpt lat="48.90560400" lon="8.452947000">
        <ele>202.49487</ele>
        <time>2008-10-11T23:30:55Z</time>
      </trkpt>
      <trkpt lat="48.90569800" lon="8.452937000">
        <ele>200.57226</ele>
        <time>2008-10-11T23:30:59Z</time>
      </trkpt>
      <trkpt lat="48.90578000" lon="8.452925000">
        <ele>200.57226</ele>
        <time>2008-10-11T23:31:02Z</time>
      </trkpt>
      <trkpt lat="48.90591100" lon="8.452905000">
        <ele>200.09167</ele>
        <time>2008-10-11T23:31:07Z</time>
      </trkpt>
      <trkpt lat="48.90604000" lon="8.452876000">
        <ele>200.57226</ele>
        <time>2008-10-11T23:31:12Z</time>
      </trkpt>
      <trkpt lat="48.90618100" lon="8.452821000">
        <ele>203.45617</ele>
        <time>2008-10-11T23:31:18Z</time>
      </trkpt>
      <trkpt lat="48.90631700" lon="8.452741000">
        <ele>198.64953</ele>
        <time>2008-10-11T23:31:24Z</time>
      </trkpt>
      <trkpt lat="48.90647100" lon="8.452717000">
        <ele>194.32373</ele>
        <time>2008-10-11T23:31:30Z</time>
      </trkpt>
      <trkpt lat="48.90660100" lon="8.452660000">
        <ele>194.80432</ele>
        <time>2008-10-11T23:31:36Z</time>
      </trkpt>
      <trkpt lat="48.90678200" lon="8.452559000">
        <ele>194.32373</ele>
        <time>2008-10-11T23:31:43Z</time>
      </trkpt>
      <trkpt lat="48.90699300" lon="8.452457000">
        <ele>194.32373</ele>
        <time>2008-10-11T23:31:52Z</time>
      </trkpt>
      <trkpt lat="48.90719100" lon="8.452398000">
        <ele>199.13012</ele>
        <time>2008-10-11T23:32:00Z</time>
      </trkpt>
      <trkpt lat="48.90732600" lon="8.452337000">
        <ele>197.68823</ele>
        <time>2008-10-11T23:32:06Z</time>
      </trkpt>
      <trkpt lat="48.90752000" lon="8.452280000">
        <ele>196.72692</ele>
        <time>2008-10-11T23:32:14Z</time>
      </trkpt>
      <trkpt lat="48.90766200" lon="8.452205000">
        <ele>197.20752</ele>
        <time>2008-10-11T23:32:20Z</time>
      </trkpt>
      <trkpt lat="48.90779500" lon="8.452151000">
        <ele>198.64953</ele>
        <time>2008-10-11T23:32:25Z</time>
      </trkpt>
      <trkpt lat="48.90794800" lon="8.452069000">
        <ele>196.72692</ele>
        <time>2008-10-11T23:32:32Z</time>
      </trkpt>
      <trkpt lat="48.90809100" lon="8.451969000">
        <ele>199.61084</ele>
        <time>2008-10-11T23:32:38Z</time>
      </trkpt>
      <trkpt lat="48.90825200" lon="8.451845000">
        <ele>192.40112</ele>
        <time>2008-10-11T23:32:46Z</time>
      </trkpt>
      <trkpt lat="48.90841600" lon="8.451771000">
        <ele>191.43957</ele>
        <time>2008-10-11T23:32:52Z</time>
      </trkpt>
      <trkpt lat="48.90855600" lon="8.451691000">
        <ele>189.99768</ele>
        <time>2008-10-11T23:32:58Z</time>
      </trkpt>
      <trkpt lat="48.90867600" lon="8.451588000">
        <ele>193.36230</ele>
        <time>2008-10-11T23:33:04Z</time>
      </trkpt>
      <trkpt lat="48.90880500" lon="8.451542000">
        <ele>200.57226</ele>
        <time>2008-10-11T23:33:09Z</time>
      </trkpt>
      <trkpt lat="48.90894600" lon="8.451479000">
        <ele>198.64953</ele>
        <time>2008-10-11T23:33:15Z</time>
      </trkpt>
      <trkpt lat="48.90914100" lon="8.451416000">
        <ele>199.61084</ele>
        <time>2008-10-11T23:33:23Z</time>
      </trkpt>
      <trkpt lat="48.90933200" lon="8.451370000">
        <ele>195.28491</ele>
        <time>2008-10-11T23:33:31Z</time>
      </trkpt>
      <trkpt lat="48.90949800" lon="8.451323000">
        <ele>199.61084</ele>
        <time>2008-10-11T23:33:38Z</time>
      </trkpt>
      <trkpt lat="48.90968100" lon="8.451317000">
        <ele>199.61084</ele>
        <time>2008-10-11T23:33:45Z</time>
      </trkpt>
      <trkpt lat="48.90988400" lon="8.451305000">
        <ele>200.57226</ele>
        <time>2008-10-11T23:33:53Z</time>
      </trkpt>
      <trkpt lat="48.90992000" lon="8.451295000">
        <ele>201.05285</ele>
        <time>2008-10-11T23:33:54Z</time>
      </trkpt>
      <trkpt lat="48.91005500" lon="8.451295000">
        <ele>201.53356</ele>
        <time>2008-10-11T23:34:00Z</time>
      </trkpt>
      <trkpt lat="48.91021400" lon="8.451339000">
        <ele>199.61084</ele>
        <time>2008-10-11T23:34:06Z</time>
      </trkpt>
      <trkpt lat="48.91034500" lon="8.451445000">
        <ele>199.13012</ele>
        <time>2008-10-11T23:34:12Z</time>
      </trkpt>
      <trkpt lat="48.91054200" lon="8.451524000">
        <ele>202.49487</ele>
        <time>2008-10-11T23:34:20Z</time>
      </trkpt>
      <trkpt lat="48.91075400" lon="8.451546000">
        <ele>200.57226</ele>
        <time>2008-10-11T23:34:29Z</time>
      </trkpt>
      <trkpt lat="48.91090000" lon="8.451587000">
        <ele>196.24633</ele>
        <time>2008-10-11T23:34:35Z</time>
      </trkpt>
      <trkpt lat="48.91097900" lon="8.451639000">
        <ele>197.20752</ele>
        <time>2008-10-11T23:34:38Z</time>
      </trkpt>
      <trkpt lat="48.91115400" lon="8.451796000">
        <ele>194.80432</ele>
        <time>2008-10-11T23:34:46Z</time>
      </trkpt>
      <trkpt lat="48.91139100" lon="8.451993000">
        <ele>195.28491</ele>
        <time>2008-10-11T23:34:57Z</time>
      </trkpt>
      <trkpt lat="48.91152100" lon="8.452080000">
        <ele>199.13012</ele>
        <time>2008-10-11T23:35:03Z</time>
      </trkpt>
      <trkpt lat="48.91165500" lon="8.452186000">
        <ele>199.61084</ele>
        <time>2008-10-11T23:35:09Z</time>
      </trkpt>
      <trkpt lat="48.91179900" lon="8.452337000">
        <ele>200.09167</ele>
        <time>2008-10-11T23:35:16Z</time>
      </trkpt>
      <trkpt lat="48.91196600" lon="8.452473000">
        <ele>203.45617</ele>
        <time>2008-10-11T23:35:24Z</time>
      </trkpt>
      <trkpt lat="48.91209600" lon="8.452590000">
        <ele>202.49487</ele>
        <time>2008-10-11T23:35:30Z</time>
      </trkpt>
      <trkpt lat="48.91229800" lon="8.452776000">
        <ele>199.61084</ele>
        <time>2008-10-11T23:35:39Z</time>
      </trkpt>
      <trkpt lat="48.91244600" lon="8.452934000">
        <ele>200.09167</ele>
        <time>2008-10-11T23:35:46Z</time>
      </trkpt>
      <trkpt lat="48.91259000" lon="8.453071000">
        <ele>199.13012</ele>
        <time>2008-10-11T23:35:53Z</time>
      </trkpt>
      <trkpt lat="48.91269500" lon="8.453166000">
        <ele>200.57226</ele>
        <time>2008-10-11T23:35:58Z</time>
      </trkpt>
      <trkpt lat="48.91283100" lon="8.453228000">
        <ele>202.49487</ele>
        <time>2008-10-11T23:36:04Z</time>
      </trkpt>
      <trkpt lat="48.91304200" lon="8.453189000">
        <ele>197.20752</ele>
        <time>2008-10-11T23:36:12Z</time>
      </trkpt>
      <trkpt lat="48.91325900" lon="8.453149000">
        <ele>201.05285</ele>
        <time>2008-10-11T23:36:21Z</time>
      </trkpt>
      <trkpt lat="48.91342300" lon="8.453111000">
        <ele>204.41748</ele>
        <time>2008-10-11T23:36:28Z</time>
      </trkpt>
      <trkpt lat="48.91357400" lon="8.453086000">
        <ele>203.45617</ele>
        <time>2008-10-11T23:36:34Z</time>
      </trkpt>
      <trkpt lat="48.91378900" lon="8.453099000">
        <ele>206.82067</ele>
        <time>2008-10-11T23:36:42Z</time>
      </trkpt>
      <trkpt lat="48.91389800" lon="8.453056000">
        <ele>206.82067</ele>
        <time>2008-10-11T23:36:47Z</time>
      </trkpt>
      <trkpt lat="48.91408100" lon="8.453030000">
        <ele>203.45617</ele>
        <time>2008-10-11T23:36:54Z</time>
      </trkpt>
      <trkpt lat="48.91411400" lon="8.453040000">
        <ele>203.45617</ele>
        <time>2008-10-11T23:36:55Z</time>
      </trkpt>
      <trkpt lat="48.91421400" lon="8.453043000">
        <ele>201.05285</ele>
        <time>2008-10-11T23:36:59Z</time>
      </trkpt>
      <trkpt lat="48.91437700" lon="8.453035000">
        <ele>200.09167</ele>
        <time>2008-10-11T23:37:06Z</time>
      </trkpt>
      <trkpt lat="48.91454100" lon="8.453042000">
        <ele>196.24633</ele>
        <time>2008-10-11T23:37:13Z</time>
      </trkpt>
      <trkpt lat="48.91472600" lon="8.453056000">
        <ele>198.16894</ele>
        <time>2008-10-11T23:37:20Z</time>
      </trkpt>
      <trkpt lat="48.91489600" lon="8.453047000">
        <ele>199.61084</ele>
        <time>2008-10-11T23:37:27Z</time>
      </trkpt>
      <trkpt lat="48.91501400" lon="8.453015000">
        <ele>198.64953</ele>
        <time>2008-10-11T23:37:32Z</time>
      </trkpt>
      <trkpt lat="48.91503400" lon="8.452977000">
        <ele>195.28491</ele>
        <time>2008-10-11T23:37:33Z</time>
      </trkpt>
      <trkpt lat="48.91502600" lon="8.452972000">
        <ele>194.80432</ele>
        <time>2008-10-11T23:37:33Z</time>
      </trkpt>
      <trkpt lat="48.91497100" lon="8.452868000">
        <ele>192.88171</ele>
        <time>2008-10-11T23:37:37Z</time>
      </trkpt>
      <trkpt lat="48.91493700" lon="8.452811000">
        <ele>194.80432</ele>
        <time>2008-10-11T23:37:39Z</time>
      </trkpt>
      <trkpt lat="48.91486600" lon="8.452790000">
        <ele>188.55578</ele>
        <time>2008-10-11T23:37:42Z</time>
      </trkpt>
      <trkpt lat="48.91492500" lon="8.452817000">
        <ele>187.59436</ele>
        <time>2008-10-11T23:37:44Z</time>
      </trkpt>
      <trkpt lat="48.91499800" lon="8.452843000">
        <ele>189.51696</ele>
        <time>2008-10-11T23:37:47Z</time>
      </trkpt>
      <trkpt lat="48.91503800" lon="8.452942000">
        <ele>193.36230</ele>
        <time>2008-10-11T23:37:50Z</time>
      </trkpt>
      <trkpt lat="48.91510400" lon="8.452969000">
        <ele>189.99768</ele>
        <time>2008-10-11T23:37:53Z</time>
      </trkpt>
      <trkpt lat="48.91511300" lon="8.452981000">
        <ele>189.51696</ele>
        <time>2008-10-11T23:37:53Z</time>
      </trkpt>
      <trkpt lat="48.91514200" lon="8.453026000">
        <ele>189.51696</ele>
        <time>2008-10-11T23:37:55Z</time>
      </trkpt>
      <trkpt lat="48.91512800" lon="8.453022000">
        <ele>192.88171</ele>
        <time>2008-10-11T23:37:56Z</time>
      </trkpt>
      <trkpt lat="48.91514900" lon="8.452943000">
        <ele>188.55578</ele>
        <time>2008-10-11T23:37:58Z</time>
      </trkpt>
      <trkpt lat="48.91521600" lon="8.452940000">
        <ele>189.51696</ele>
        <time>2008-10-11T23:38:01Z</time>
      </trkpt>
      <trkpt lat="48.91537200" lon="8.452980000">
        <ele>188.55578</ele>
        <time>2008-10-11T23:38:07Z</time>
      </trkpt>
      <trkpt lat="48.91542600" lon="8.452992000">
        <ele>188.07507</ele>
        <time>2008-10-11T23:38:09Z</time>
      </trkpt>
      <trkpt lat="48.91549200" lon="8.452994000">
        <ele>187.59436</ele>
        <time>2008-10-11T23:38:12Z</time>
      </trkpt>
      <trkpt lat="48.91562000" lon="8.452976000">
        <ele>187.11377</ele>
        <time>2008-10-11T23:38:17Z</time>
      </trkpt>
      <trkpt lat="48.91569300" lon="8.452914000">
        <ele>183.74902</ele>
        <time>2008-10-11T23:38:20Z</time>
      </trkpt>
      <trkpt lat="48.91572300" lon="8.452886000">
        <ele>183.26843</ele>
        <time>2008-10-11T23:38:22Z</time>
      </trkpt>
      <trkpt lat="48.91595400" lon="8.452866000">
        <ele>192.88171</ele>
        <time>2008-10-11T23:38:31Z</time>
      </trkpt>
      <trkpt lat="48.91608200" lon="8.452845000">
        <ele>198.16894</ele>
        <time>2008-10-11T23:38:36Z</time>
      </trkpt>
      <trkpt lat="48.91620600" lon="8.452806000">
        <ele>204.41748</ele>
        <time>2008-10-11T23:38:41Z</time>
      </trkpt>
      <trkpt lat="48.91634800" lon="8.452757000">
        <ele>207.78210</ele>
        <time>2008-10-11T23:38:47Z</time>
      </trkpt>
      <trkpt lat="48.91646700" lon="8.452696000">
        <ele>207.30139</ele>
        <time>2008-10-11T23:38:52Z</time>
      </trkpt>
      <trkpt lat="48.91666200" lon="8.452574000">
        <ele>211.62744</ele>
        <time>2008-10-11T23:39:00Z</time>
      </trkpt>
      <trkpt lat="48.91683200" lon="8.452512000">
        <ele>212.10803</ele>
        <time>2008-10-11T23:39:07Z</time>
      </trkpt>
      <trkpt lat="48.91696100" lon="8.452362000">
        <ele>209.22412</ele>
        <time>2008-10-11T23:39:14Z</time>
      </trkpt>
      <trkpt lat="48.91714000" lon="8.452324000">
        <ele>211.14672</ele>
        <time>2008-10-11T23:39:21Z</time>
      </trkpt>
      <trkpt lat="48.91728300" lon="8.452237000">
        <ele>204.89807</ele>
        <time>2008-10-11T23:39:27Z</time>
      </trkpt>
      <trkpt lat="48.91748700" lon="8.452192000">
        <ele>200.57226</ele>
        <time>2008-10-11T23:39:36Z</time>
      </trkpt>
      <trkpt lat="48.91763600" lon="8.452173000">
        <ele>202.97546</ele>
        <time>2008-10-11T23:39:42Z</time>
      </trkpt>
      <trkpt lat="48.91778900" lon="8.452163000">
        <ele>205.37878</ele>
        <time>2008-10-11T23:39:48Z</time>
      </trkpt>
      <trkpt lat="48.91792500" lon="8.452155000">
        <ele>202.01428</ele>
        <time>2008-10-11T23:39:53Z</time>
      </trkpt>
      <trkpt lat="48.91810900" lon="8.452182000">
        <ele>202.49487</ele>
        <time>2008-10-11T23:40:01Z</time>
      </trkpt>
      <trkpt lat="48.91813700" lon="8.452188000">
        <ele>202.49487</ele>
        <time>2008-10-11T23:40:02Z</time>
      </trkpt>
      <trkpt lat="48.91831500" lon="8.452261000">
        <ele>202.01428</ele>
        <time>2008-10-11T23:40:09Z</time>
      </trkpt>
      <trkpt lat="48.91845100" lon="8.452340000">
        <ele>201.05285</ele>
        <time>2008-10-11T23:40:15Z</time>
      </trkpt>
      <trkpt lat="48.91864900" lon="8.452446000">
        <ele>202.49487</ele>
        <time>2008-10-11T23:40:23Z</time>
      </trkpt>
      <trkpt lat="48.91876500" lon="8.452518000">
        <ele>202.97546</ele>
        <time>2008-10-11T23:40:28Z</time>
      </trkpt>
      <trkpt lat="48.91890100" lon="8.452574000">
        <ele>203.45617</ele>
        <time>2008-10-11T23:40:34Z</time>
      </trkpt>
      <trkpt lat="48.91903000" lon="8.452589000">
        <ele>200.09167</ele>
        <time>2008-10-11T23:40:39Z</time>
      </trkpt>
      <trkpt lat="48.91917100" lon="8.452623000">
        <ele>198.64953</ele>
        <time>2008-10-11T23:40:45Z</time>
      </trkpt>
      <trkpt lat="48.91934300" lon="8.452600000">
        <ele>200.57226</ele>
        <time>2008-10-11T23:40:52Z</time>
      </trkpt>
      <trkpt lat="48.91949300" lon="8.452509000">
        <ele>196.72692</ele>
        <time>2008-10-11T23:40:58Z</time>
      </trkpt>
      <trkpt lat="48.91959900" lon="8.452353000">
        <ele>189.99768</ele>
        <time>2008-10-11T23:41:04Z</time>
      </trkpt>
      <trkpt lat="48.91967400" lon="8.452212000">
        <ele>183.26843</ele>
        <time>2008-10-11T23:41:09Z</time>
      </trkpt>
      <trkpt lat="48.91976400" lon="8.452025000">
        <ele>174.13586</ele>
        <time>2008-10-11T23:41:15Z</time>
      </trkpt>
      <trkpt lat="48.91987100" lon="8.451853000">
        <ele>162.60009</ele>
        <time>2008-10-11T23:41:21Z</time>
      </trkpt>
      <trkpt lat="48.91993800" lon="8.451680000">
        <ele>155.39025</ele>
        <time>2008-10-11T23:41:26Z</time>
      </trkpt>
      <trkpt lat="48.92004200" lon="8.451588000">
        <ele>151.54492</ele>
        <time>2008-10-11T23:41:31Z</time>
      </trkpt>
      <trkpt lat="48.92018200" lon="8.451457000">
        <ele>144.81579</ele>
        <time>2008-10-11T23:41:38Z</time>
      </trkpt>
      <trkpt lat="48.92033000" lon="8.451326000">
        <ele>146.25781</ele>
        <time>2008-10-11T23:41:45Z</time>
      </trkpt>
      <trkpt lat="48.92050000" lon="8.451221000">
        <ele>149.62231</ele>
        <time>2008-10-11T23:41:52Z</time>
      </trkpt>
      <trkpt lat="48.92064900" lon="8.451106000">
        <ele>150.10302</ele>
        <time>2008-10-11T23:41:59Z</time>
      </trkpt>
      <trkpt lat="48.92076400" lon="8.451012000">
        <ele>148.66101</ele>
        <time>2008-10-11T23:42:04Z</time>
      </trkpt>
      <trkpt lat="48.92093700" lon="8.450881000">
        <ele>148.18042</ele>
        <time>2008-10-11T23:42:12Z</time>
      </trkpt>
      <trkpt lat="48.92110400" lon="8.450757000">
        <ele>142.41247</ele>
        <time>2008-10-11T23:42:19Z</time>
      </trkpt>
      <trkpt lat="48.92128300" lon="8.450636000">
        <ele>140.00915</ele>
        <time>2008-10-11T23:42:27Z</time>
      </trkpt>
      <trkpt lat="48.92140100" lon="8.450548000">
        <ele>139.52844</ele>
        <time>2008-10-11T23:42:32Z</time>
      </trkpt>
      <trkpt lat="48.92154700" lon="8.450427000">
        <ele>144.33520</ele>
        <time>2008-10-11T23:42:39Z</time>
      </trkpt>
      <trkpt lat="48.92159100" lon="8.450380000">
        <ele>145.29638</ele>
        <time>2008-10-11T23:42:41Z</time>
      </trkpt>
      <trkpt lat="48.92167200" lon="8.450305000">
        <ele>147.21899</ele>
        <time>2008-10-11T23:42:45Z</time>
      </trkpt>
      <trkpt lat="48.92179400" lon="8.450209000">
        <ele>146.25781</ele>
        <time>2008-10-11T23:42:50Z</time>
      </trkpt>
      <trkpt lat="48.92193100" lon="8.450149000">
        <ele>151.06420</ele>
        <time>2008-10-11T23:42:56Z</time>
      </trkpt>
      <trkpt lat="48.92202500" lon="8.450124000">
        <ele>154.90954</ele>
        <time>2008-10-11T23:43:00Z</time>
      </trkpt>
      <trkpt lat="48.92208700" lon="8.450102000">
        <ele>156.35156</ele>
        <time>2008-10-11T23:43:02Z</time>
      </trkpt>
      <trkpt lat="48.92221800" lon="8.450046000">
        <ele>158.75476</ele>
        <time>2008-10-11T23:43:08Z</time>
      </trkpt>
      <trkpt lat="48.92239000" lon="8.449977000">
        <ele>161.63891</ele>
        <time>2008-10-11T23:43:15Z</time>
      </trkpt>
      <trkpt lat="48.92252900" lon="8.449911000">
        <ele>163.56152</ele>
        <time>2008-10-11T23:43:21Z</time>
      </trkpt>
      <trkpt lat="48.92266700" lon="8.449843000">
        <ele>165.96472</ele>
        <time>2008-10-11T23:43:27Z</time>
      </trkpt>
      <trkpt lat="48.92283800" lon="8.449754000">
        <ele>167.88732</ele>
        <time>2008-10-11T23:43:34Z</time>
      </trkpt>
      <trkpt lat="48.92303100" lon="8.449654000">
        <ele>166.44531</ele>
        <time>2008-10-11T23:43:42Z</time>
      </trkpt>
      <trkpt lat="48.92318300" lon="8.449571000">
        <ele>168.36804</ele>
        <time>2008-10-11T23:43:48Z</time>
      </trkpt>
      <trkpt lat="48.92328800" lon="8.449525000">
        <ele>168.36804</ele>
        <time>2008-10-11T23:43:53Z</time>
      </trkpt>
      <trkpt lat="48.92340400" lon="8.449404000">
        <ele>174.13586</ele>
        <time>2008-10-11T23:43:58Z</time>
      </trkpt>
      <trkpt lat="48.92354100" lon="8.449298000">
        <ele>175.57788</ele>
        <time>2008-10-11T23:44:05Z</time>
      </trkpt>
      <trkpt lat="48.92366700" lon="8.449188000">
        <ele>175.09729</ele>
        <time>2008-10-11T23:44:10Z</time>
      </trkpt>
      <trkpt lat="48.92379800" lon="8.449103000">
        <ele>177.98120</ele>
        <time>2008-10-11T23:44:16Z</time>
      </trkpt>
      <trkpt lat="48.92387900" lon="8.449013000">
        <ele>174.61657</ele>
        <time>2008-10-11T23:44:20Z</time>
      </trkpt>
      <trkpt lat="48.92402800" lon="8.448903000">
        <ele>174.61657</ele>
        <time>2008-10-11T23:44:27Z</time>
      </trkpt>
      <trkpt lat="48.92413800" lon="8.448851000">
        <ele>171.73266</ele>
        <time>2008-10-11T23:44:31Z</time>
      </trkpt>
      <trkpt lat="48.92426800" lon="8.448733000">
        <ele>170.77136</ele>
        <time>2008-10-11T23:44:37Z</time>
      </trkpt>
      <trkpt lat="48.92442200" lon="8.448614000">
        <ele>171.25207</ele>
        <time>2008-10-11T23:44:44Z</time>
      </trkpt>
      <trkpt lat="48.92456300" lon="8.448541000">
        <ele>175.57788</ele>
        <time>2008-10-11T23:44:50Z</time>
      </trkpt>
      <trkpt lat="48.92468200" lon="8.448451000">
        <ele>173.17468</ele>
        <time>2008-10-11T23:44:56Z</time>
      </trkpt>
      <trkpt lat="48.92477300" lon="8.448367000">
        <ele>170.29064</ele>
        <time>2008-10-11T23:45:00Z</time>
      </trkpt>
      <trkpt lat="48.92489900" lon="8.448318000">
        <ele>170.77136</ele>
        <time>2008-10-11T23:45:05Z</time>
      </trkpt>
      <trkpt lat="48.92503700" lon="8.448239000">
        <ele>171.73266</ele>
        <time>2008-10-11T23:45:11Z</time>
      </trkpt>
      <trkpt lat="48.92518900" lon="8.448120000">
        <ele>169.32946</ele>
        <time>2008-10-11T23:45:18Z</time>
      </trkpt>
      <trkpt lat="48.92531100" lon="8.448028000">
        <ele>165.96472</ele>
        <time>2008-10-11T23:45:23Z</time>
      </trkpt>
      <trkpt lat="48.92542900" lon="8.447934000">
        <ele>165.48413</ele>
        <time>2008-10-11T23:45:29Z</time>
      </trkpt>
      <trkpt lat="48.92554200" lon="8.447848000">
        <ele>166.44531</ele>
        <time>2008-10-11T23:45:34Z</time>
      </trkpt>
      <trkpt lat="48.92567600" lon="8.447786000">
        <ele>167.40673</ele>
        <time>2008-10-11T23:45:39Z</time>
      </trkpt>
      <trkpt lat="48.92584400" lon="8.447658000">
        <ele>169.32946</ele>
        <time>2008-10-11T23:45:47Z</time>
      </trkpt>
      <trkpt lat="48.92599700" lon="8.447560000">
        <ele>167.88732</ele>
        <time>2008-10-11T23:45:53Z</time>
      </trkpt>
      <trkpt lat="48.92617100" lon="8.447503000">
        <ele>187.11377</ele>
        <time>2008-10-11T23:46:01Z</time>
      </trkpt>
      <trkpt lat="48.92619000" lon="8.447492000">
        <ele>186.15246</ele>
        <time>2008-10-11T23:46:01Z</time>
      </trkpt>
      <trkpt lat="48.92627500" lon="8.447376000">
        <ele>190.95898</ele>
        <time>2008-10-11T23:46:06Z</time>
      </trkpt>
      <trkpt lat="48.92647000" lon="8.447213000">
        <ele>191.92028</ele>
        <time>2008-10-11T23:46:15Z</time>
      </trkpt>
      <trkpt lat="48.92658600" lon="8.447073000">
        <ele>189.51696</ele>
        <time>2008-10-11T23:46:21Z</time>
      </trkpt>
      <trkpt lat="48.92671900" lon="8.446940000">
        <ele>183.26843</ele>
        <time>2008-10-11T23:46:27Z</time>
      </trkpt>
      <trkpt lat="48.92683600" lon="8.446803000">
        <ele>177.50061</ele>
        <time>2008-10-11T23:46:33Z</time>
      </trkpt>
      <trkpt lat="48.92694000" lon="8.446687000">
        <ele>176.05859</ele>
        <time>2008-10-11T23:46:38Z</time>
      </trkpt>
      <trkpt lat="48.92695100" lon="8.446662000">
        <ele>179.42321</ele>
        <time>2008-10-11T23:46:39Z</time>
      </trkpt>
      <trkpt lat="48.92708700" lon="8.446512000">
        <ele>185.19116</ele>
        <time>2008-10-11T23:46:46Z</time>
      </trkpt>
      <trkpt lat="48.92718700" lon="8.446385000">
        <ele>177.98120</ele>
        <time>2008-10-11T23:46:51Z</time>
      </trkpt>
      <trkpt lat="48.92726700" lon="8.446277000">
        <ele>186.15246</ele>
        <time>2008-10-11T23:46:55Z</time>
      </trkpt>
      <trkpt lat="48.92750200" lon="8.446107000">
        <ele>177.98120</ele>
        <time>2008-10-11T23:47:06Z</time>
      </trkpt>
      <trkpt lat="48.92763900" lon="8.446033000">
        <ele>176.05859</ele>
        <time>2008-10-11T23:47:11Z</time>
      </trkpt>
      <trkpt lat="48.92776000" lon="8.445980000">
        <ele>178.94262</ele>
        <time>2008-10-11T23:47:17Z</time>
      </trkpt>
      <trkpt lat="48.92786000" lon="8.445931000">
        <ele>186.63317</ele>
        <time>2008-10-11T23:47:21Z</time>
      </trkpt>
      <trkpt lat="48.92798600" lon="8.445858000">
        <ele>182.30712</ele>
        <time>2008-10-11T23:47:26Z</time>
      </trkpt>
      <trkpt lat="48.92810700" lon="8.445809000">
        <ele>181.82641</ele>
        <time>2008-10-11T23:47:31Z</time>
      </trkpt>
      <trkpt lat="48.92827000" lon="8.445738000">
        <ele>179.42321</ele>
        <time>2008-10-11T23:47:38Z</time>
      </trkpt>
      <trkpt lat="48.92841400" lon="8.445700000">
        <ele>175.57788</ele>
        <time>2008-10-11T23:47:44Z</time>
      </trkpt>
      <trkpt lat="48.92851900" lon="8.445664000">
        <ele>176.05859</ele>
        <time>2008-10-11T23:47:48Z</time>
      </trkpt>
      <trkpt lat="48.92864300" lon="8.445598000">
        <ele>176.05859</ele>
        <time>2008-10-11T23:47:53Z</time>
      </trkpt>
      <trkpt lat="48.92882500" lon="8.445526000">
        <ele>176.53930</ele>
        <time>2008-10-11T23:48:01Z</time>
      </trkpt>
      <trkpt lat="48.92898800" lon="8.445457000">
        <ele>174.13586</ele>
        <time>2008-10-11T23:48:08Z</time>
      </trkpt>
      <trkpt lat="48.92915500" lon="8.445340000">
        <ele>176.05859</ele>
        <time>2008-10-11T23:48:15Z</time>
      </trkpt>
      <trkpt lat="48.92927600" lon="8.445250000">
        <ele>179.90380</ele>
        <time>2008-10-11T23:48:20Z</time>
      </trkpt>
      <trkpt lat="48.92940600" lon="8.445149000">
        <ele>174.61657</ele>
        <time>2008-10-11T23:48:26Z</time>
      </trkpt>
      <trkpt lat="48.92953600" lon="8.445053000">
        <ele>170.77136</ele>
        <time>2008-10-11T23:48:32Z</time>
      </trkpt>
      <trkpt lat="48.92963000" lon="8.444978000">
        <ele>165.48413</ele>
        <time>2008-10-11T23:48:36Z</time>
      </trkpt>
      <trkpt lat="48.92977100" lon="8.444867000">
        <ele>164.04211</ele>
        <time>2008-10-11T23:48:43Z</time>
      </trkpt>
      <trkpt lat="48.92989600" lon="8.444754000">
        <ele>164.04211</ele>
        <time>2008-10-11T23:48:48Z</time>
      </trkpt>
      <trkpt lat="48.93008000" lon="8.444642000">
        <ele>159.71618</ele>
        <time>2008-10-11T23:48:56Z</time>
      </trkpt>
      <trkpt lat="48.93019300" lon="8.444599000">
        <ele>158.75476</ele>
        <time>2008-10-11T23:49:01Z</time>
      </trkpt>
      <trkpt lat="48.93022400" lon="8.444594000">
        <ele>156.83215</ele>
        <time>2008-10-11T23:49:02Z</time>
      </trkpt>
      <trkpt lat="48.93037000" lon="8.444557000">
        <ele>155.87097</ele>
        <time>2008-10-11T23:49:08Z</time>
      </trkpt>
      <trkpt lat="48.93053800" lon="8.444501000">
        <ele>154.42895</ele>
        <time>2008-10-11T23:49:15Z</time>
      </trkpt>
      <trkpt lat="48.93068600" lon="8.444413000">
        <ele>154.42895</ele>
        <time>2008-10-11T23:49:21Z</time>
      </trkpt>
      <trkpt lat="48.93082800" lon="8.444327000">
        <ele>153.94836</ele>
        <time>2008-10-11T23:49:28Z</time>
      </trkpt>
      <trkpt lat="48.93093700" lon="8.444250000">
        <ele>153.94836</ele>
        <time>2008-10-11T23:49:32Z</time>
      </trkpt>
      <trkpt lat="48.93108800" lon="8.444135000">
        <ele>153.94836</ele>
        <time>2008-10-11T23:49:39Z</time>
      </trkpt>
      <trkpt lat="48.93123600" lon="8.444029000">
        <ele>153.46765</ele>
        <time>2008-10-11T23:49:46Z</time>
      </trkpt>
      <trkpt lat="48.93135700" lon="8.443929000">
        <ele>154.90954</ele>
        <time>2008-10-11T23:49:51Z</time>
      </trkpt>
      <trkpt lat="48.93148400" lon="8.443761000">
        <ele>167.88732</ele>
        <time>2008-10-11T23:49:58Z</time>
      </trkpt>
      <trkpt lat="48.93161400" lon="8.443621000">
        <ele>166.92602</ele>
        <time>2008-10-11T23:50:04Z</time>
      </trkpt>
      <trkpt lat="48.93172700" lon="8.443492000">
        <ele>165.00341</ele>
        <time>2008-10-11T23:50:10Z</time>
      </trkpt>
      <trkpt lat="48.93182300" lon="8.443371000">
        <ele>161.63891</ele>
        <time>2008-10-11T23:50:15Z</time>
      </trkpt>
      <trkpt lat="48.93195400" lon="8.443202000">
        <ele>156.35156</ele>
        <time>2008-10-11T23:50:22Z</time>
      </trkpt>
      <trkpt lat="48.93204700" lon="8.443022000">
        <ele>155.87097</ele>
        <time>2008-10-11T23:50:28Z</time>
      </trkpt>
      <trkpt lat="48.93214300" lon="8.442915000">
        <ele>156.35156</ele>
        <time>2008-10-11T23:50:33Z</time>
      </trkpt>
      <trkpt lat="48.93224900" lon="8.442782000">
        <ele>158.27417</ele>
        <time>2008-10-11T23:50:38Z</time>
      </trkpt>
      <trkpt lat="48.93238300" lon="8.442632000">
        <ele>160.67749</ele>
        <time>2008-10-11T23:50:45Z</time>
      </trkpt>
      <trkpt lat="48.93248700" lon="8.442484000">
        <ele>161.15820</ele>
        <time>2008-10-11T23:50:50Z</time>
      </trkpt>
      <trkpt lat="48.93257900" lon="8.442341000">
        <ele>161.63891</ele>
        <time>2008-10-11T23:50:56Z</time>
      </trkpt>
      <trkpt lat="48.93265300" lon="8.442163000">
        <ele>160.67749</ele>
        <time>2008-10-11T23:51:01Z</time>
      </trkpt>
      <trkpt lat="48.93272200" lon="8.441937000">
        <ele>161.15820</ele>
        <time>2008-10-11T23:51:08Z</time>
      </trkpt>
      <trkpt lat="48.93279400" lon="8.441672000">
        <ele>163.56152</ele>
        <time>2008-10-11T23:51:15Z</time>
      </trkpt>
      <trkpt lat="48.93284200" lon="8.441478000">
        <ele>162.11950</ele>
        <time>2008-10-11T23:51:21Z</time>
      </trkpt>
      <trkpt lat="48.93288400" lon="8.441250000">
        <ele>161.63891</ele>
        <time>2008-10-11T23:51:27Z</time>
      </trkpt>
      <trkpt lat="48.93295000" lon="8.441014000">
        <ele>160.19689</ele>
        <time>2008-10-11T23:51:34Z</time>
      </trkpt>
      <trkpt lat="48.93299800" lon="8.440800000">
        <ele>157.79357</ele>
        <time>2008-10-11T23:51:40Z</time>
      </trkpt>
      <trkpt lat="48.93304900" lon="8.440602000">
        <ele>154.42895</ele>
        <time>2008-10-11T23:51:45Z</time>
      </trkpt>
      <trkpt lat="48.93312600" lon="8.440340000">
        <ele>149.62231</ele>
        <time>2008-10-11T23:51:53Z</time>
      </trkpt>
      <trkpt lat="48.93318700" lon="8.440098000">
        <ele>145.77710</ele>
        <time>2008-10-11T23:52:00Z</time>
      </trkpt>
      <trkpt lat="48.93319800" lon="8.440053000">
        <ele>143.85437</ele>
        <time>2008-10-11T23:52:01Z</time>
      </trkpt>
      <trkpt lat="48.93323300" lon="8.439850000">
        <ele>142.41247</ele>
        <time>2008-10-11T23:52:06Z</time>
      </trkpt>
      <trkpt lat="48.93326300" lon="8.439591000">
        <ele>141.45105</ele>
        <time>2008-10-11T23:52:13Z</time>
      </trkpt>
      <trkpt lat="48.93328500" lon="8.439334000">
        <ele>141.93176</ele>
        <time>2008-10-11T23:52:20Z</time>
      </trkpt>
      <trkpt lat="48.93329300" lon="8.439072000">
        <ele>142.89306</ele>
        <time>2008-10-11T23:52:27Z</time>
      </trkpt>
      <trkpt lat="48.93332400" lon="8.438853000">
        <ele>145.29638</ele>
        <time>2008-10-11T23:52:33Z</time>
      </trkpt>
      <trkpt lat="48.93334200" lon="8.438588000">
        <ele>155.39025</ele>
        <time>2008-10-11T23:52:40Z</time>
      </trkpt>
      <trkpt lat="48.93336200" lon="8.438321000">
        <ele>158.75476</ele>
        <time>2008-10-11T23:52:47Z</time>
      </trkpt>
      <trkpt lat="48.93337700" lon="8.438082000">
        <ele>159.23547</ele>
        <time>2008-10-11T23:52:53Z</time>
      </trkpt>
      <trkpt lat="48.93339800" lon="8.437825000">
        <ele>158.75476</ele>
        <time>2008-10-11T23:53:00Z</time>
      </trkpt>
      <trkpt lat="48.93342200" lon="8.437512000">
        <ele>159.23547</ele>
        <time>2008-10-11T23:53:08Z</time>
      </trkpt>
      <trkpt lat="48.93343000" lon="8.437265000">
        <ele>158.75476</ele>
        <time>2008-10-11T23:53:15Z</time>
      </trkpt>
      <trkpt lat="48.93342300" lon="8.437048000">
        <ele>158.75476</ele>
        <time>2008-10-11T23:53:21Z</time>
      </trkpt>
      <trkpt lat="48.93342700" lon="8.436797000">
        <ele>158.27417</ele>
        <time>2008-10-11T23:53:27Z</time>
      </trkpt>
      <trkpt lat="48.93343000" lon="8.436539000">
        <ele>158.27417</ele>
        <time>2008-10-11T23:53:34Z</time>
      </trkpt>
      <trkpt lat="48.93343300" lon="8.436251000">
        <ele>158.75476</ele>
        <time>2008-10-11T23:53:42Z</time>
      </trkpt>
      <trkpt lat="48.93343800" lon="8.435982000">
        <ele>156.35156</ele>
        <time>2008-10-11T23:53:49Z</time>
      </trkpt>
      <trkpt lat="48.93345500" lon="8.435761000">
        <ele>155.39025</ele>
        <time>2008-10-11T23:53:55Z</time>
      </trkpt>
      <trkpt lat="48.93346800" lon="8.435535000">
        <ele>154.42895</ele>
        <time>2008-10-11T23:54:01Z</time>
      </trkpt>
      <trkpt lat="48.93348200" lon="8.435309000">
        <ele>153.94836</ele>
        <time>2008-10-11T23:54:07Z</time>
      </trkpt>
      <trkpt lat="48.93350100" lon="8.435030000">
        <ele>158.27417</ele>
        <time>2008-10-11T23:54:14Z</time>
      </trkpt>
      <trkpt lat="48.93352700" lon="8.434772000">
        <ele>165.96472</ele>
        <time>2008-10-11T23:54:21Z</time>
      </trkpt>
      <trkpt lat="48.93354500" lon="8.434555000">
        <ele>170.29064</ele>
        <time>2008-10-11T23:54:27Z</time>
      </trkpt>
      <trkpt lat="48.93356800" lon="8.434332000">
        <ele>175.09729</ele>
        <time>2008-10-11T23:54:32Z</time>
      </trkpt>
      <trkpt lat="48.93357100" lon="8.434105000">
        <ele>184.22985</ele>
        <time>2008-10-11T23:54:38Z</time>
      </trkpt>
      <trkpt lat="48.93359000" lon="8.433887000">
        <ele>191.92028</ele>
        <time>2008-10-11T23:54:44Z</time>
      </trkpt>
      <trkpt lat="48.93361500" lon="8.433749000">
        <ele>193.36230</ele>
        <time>2008-10-11T23:54:48Z</time>
      </trkpt>
      <trkpt lat="48.93369100" lon="8.433560000">
        <ele>194.80432</ele>
        <time>2008-10-11T23:54:54Z</time>
      </trkpt>
      <trkpt lat="48.93371000" lon="8.433467000">
        <ele>196.72692</ele>
        <time>2008-10-11T23:54:56Z</time>
      </trkpt>
      <trkpt lat="48.93374500" lon="8.433331000">
        <ele>201.53356</ele>
        <time>2008-10-11T23:55:00Z</time>
      </trkpt>
      <trkpt lat="48.93379300" lon="8.433210000">
        <ele>205.37878</ele>
        <time>2008-10-11T23:55:04Z</time>
      </trkpt>
      <trkpt lat="48.93391400" lon="8.432961000">
        <ele>206.82067</ele>
        <time>2008-10-11T23:55:12Z</time>
      </trkpt>
      <trkpt lat="48.93398400" lon="8.432810000">
        <ele>207.78210</ele>
        <time>2008-10-11T23:55:17Z</time>
      </trkpt>
      <trkpt lat="48.93404400" lon="8.432719000">
        <ele>208.26281</ele>
        <time>2008-10-11T23:55:20Z</time>
      </trkpt>
      <trkpt lat="48.93410400" lon="8.432450000">
        <ele>197.68823</ele>
        <time>2008-10-11T23:55:28Z</time>
      </trkpt>
      <trkpt lat="48.93421500" lon="8.432191000">
        <ele>177.98120</ele>
        <time>2008-10-11T23:55:36Z</time>
      </trkpt>
      <trkpt lat="48.93426100" lon="8.432073000">
        <ele>171.25207</ele>
        <time>2008-10-11T23:55:40Z</time>
      </trkpt>
      <trkpt lat="48.93430100" lon="8.431849000">
        <ele>154.90954</ele>
        <time>2008-10-11T23:55:46Z</time>
      </trkpt>
      <trkpt lat="48.93433600" lon="8.431634000">
        <ele>143.37365</ele>
        <time>2008-10-11T23:55:51Z</time>
      </trkpt>
      <trkpt lat="48.93435500" lon="8.431430000">
        <ele>135.20251</ele>
        <time>2008-10-11T23:55:57Z</time>
      </trkpt>
      <trkpt lat="48.93439700" lon="8.431232000">
        <ele>131.35730</ele>
        <time>2008-10-11T23:56:02Z</time>
      </trkpt>
      <trkpt lat="48.93442500" lon="8.431062000">
        <ele>131.35730</ele>
        <time>2008-10-11T23:56:07Z</time>
      </trkpt>
      <trkpt lat="48.93442900" lon="8.430924000">
        <ele>132.31860</ele>
        <time>2008-10-11T23:56:11Z</time>
      </trkpt>
      <trkpt lat="48.93440800" lon="8.430593000">
        <ele>135.68310</ele>
        <time>2008-10-11T23:56:19Z</time>
      </trkpt>
      <trkpt lat="48.93437800" lon="8.430334000">
        <ele>142.89306</ele>
        <time>2008-10-11T23:56:26Z</time>
      </trkpt>
      <trkpt lat="48.93443500" lon="8.430147000">
        <ele>141.93176</ele>
        <time>2008-10-11T23:56:32Z</time>
      </trkpt>
      <trkpt lat="48.93448400" lon="8.429855000">
        <ele>140.00915</ele>
        <time>2008-10-11T23:56:40Z</time>
      </trkpt>
      <trkpt lat="48.93449400" lon="8.429579000">
        <ele>139.52844</ele>
        <time>2008-10-11T23:56:47Z</time>
      </trkpt>
      <trkpt lat="48.93450200" lon="8.429492000">
        <ele>139.52844</ele>
        <time>2008-10-11T23:56:49Z</time>
      </trkpt>
      <trkpt lat="48.93451600" lon="8.429208000">
        <ele>140.00915</ele>
        <time>2008-10-11T23:56:57Z</time>
      </trkpt>
      <trkpt lat="48.93450600" lon="8.428974000">
        <ele>142.41247</ele>
        <time>2008-10-11T23:57:03Z</time>
      </trkpt>
      <trkpt lat="48.93445700" lon="8.428632000">
        <ele>156.83215</ele>
        <time>2008-10-11T23:57:12Z</time>
      </trkpt>
      <trkpt lat="48.93445000" lon="8.428350000">
        <ele>162.60009</ele>
        <time>2008-10-11T23:57:19Z</time>
      </trkpt>
      <trkpt lat="48.93444200" lon="8.428152000">
        <ele>161.15820</ele>
        <time>2008-10-11T23:57:25Z</time>
      </trkpt>
      <trkpt lat="48.93443800" lon="8.427940000">
        <ele>158.27417</ele>
        <time>2008-10-11T23:57:30Z</time>
      </trkpt>
      <trkpt lat="48.93444400" lon="8.427688000">
        <ele>156.35156</ele>
        <time>2008-10-11T23:57:37Z</time>
      </trkpt>
      <trkpt lat="48.93444800" lon="8.427478000">
        <ele>152.50634</ele>
        <time>2008-10-11T23:57:42Z</time>
      </trkpt>
      <trkpt lat="48.93445000" lon="8.427240000">
        <ele>148.18042</ele>
        <time>2008-10-11T23:57:49Z</time>
      </trkpt>
      <trkpt lat="48.93442400" lon="8.426967000">
        <ele>148.18042</ele>
        <time>2008-10-11T23:57:56Z</time>
      </trkpt>
      <trkpt lat="48.93439000" lon="8.426800000">
        <ele>148.18042</ele>
        <time>2008-10-11T23:58:01Z</time>
      </trkpt>
      <trkpt lat="48.93438200" lon="8.426760000">
        <ele>148.66101</ele>
        <time>2008-10-11T23:58:02Z</time>
      </trkpt>
      <trkpt lat="48.93434200" lon="8.426560000">
        <ele>149.14160</ele>
        <time>2008-10-11T23:58:07Z</time>
      </trkpt>
      <trkpt lat="48.93428700" lon="8.426273000">
        <ele>149.14160</ele>
        <time>2008-10-11T23:58:15Z</time>
      </trkpt>
      <trkpt lat="48.93423300" lon="8.426004000">
        <ele>148.66101</ele>
        <time>2008-10-11T23:58:22Z</time>
      </trkpt>
      <trkpt lat="48.93418100" lon="8.425752000">
        <ele>147.69970</ele>
        <time>2008-10-11T23:58:29Z</time>
      </trkpt>
      <trkpt lat="48.93414900" lon="8.425547000">
        <ele>147.69970</ele>
        <time>2008-10-11T23:58:35Z</time>
      </trkpt>
      <trkpt lat="48.93410200" lon="8.425262000">
        <ele>148.66101</ele>
        <time>2008-10-11T23:58:43Z</time>
      </trkpt>
      <trkpt lat="48.93408300" lon="8.425046000">
        <ele>150.10302</ele>
        <time>2008-10-11T23:58:48Z</time>
      </trkpt>
      <trkpt lat="48.93407800" lon="8.424791000">
        <ele>149.62231</ele>
        <time>2008-10-11T23:58:55Z</time>
      </trkpt>
      <trkpt lat="48.93408600" lon="8.424562000">
        <ele>146.73840</ele>
        <time>2008-10-11T23:59:01Z</time>
      </trkpt>
      <trkpt lat="48.93410700" lon="8.424362000">
        <ele>144.81579</ele>
        <time>2008-10-11T23:59:06Z</time>
      </trkpt>
      <trkpt lat="48.93410000" lon="8.424107000">
        <ele>141.93176</ele>
        <time>2008-10-11T23:59:13Z</time>
      </trkpt>
      <trkpt lat="48.93410900" lon="8.423892000">
        <ele>140.00915</ele>
        <time>2008-10-11T23:59:19Z</time>
      </trkpt>
      <trkpt lat="48.93412200" lon="8.423680000">
        <ele>138.08654</ele>
        <time>2008-10-11T23:59:24Z</time>
      </trkpt>
      <trkpt lat="48.93415000" lon="8.423395000">
        <ele>135.68310</ele>
        <time>2008-10-11T23:59:32Z</time>
      </trkpt>
      <trkpt lat="48.93416100" lon="8.423153000">
        <ele>141.45105</ele>
        <time>2008-10-11T23:59:38Z</time>
      </trkpt>
      <trkpt lat="48.93415500" lon="8.423150000">
        <ele>142.41247</ele>
        <time>2008-10-11T23:59:39Z</time>
      </trkpt>
      <trkpt lat="48.93404700" lon="8.423086000">
        <ele>147.21899</ele>
        <time>2008-10-11T23:59:43Z</time>
      </trkpt>
      <trkpt lat="48.93400500" lon="8.423004000">
        <ele>148.66101</ele>
        <time>2008-10-11T23:59:46Z</time>
      </trkpt>
      <trkpt lat="48.93394500" lon="8.422781000">
        <ele>148.66101</ele>
        <time>2008-10-11T23:59:52Z</time>
      </trkpt>
      <trkpt lat="48.93388800" lon="8.422581000">
        <ele>149.14160</ele>
        <time>2008-10-11T23:59:58Z</time>
      </trkpt>
      <trkpt lat="48.93384800" lon="8.422434000">
        <ele>150.10302</ele>
        <time>2008-10-12T00:00:02Z</time>
      </trkpt>
      <trkpt lat="48.93384900" lon="8.422183000">
        <ele>151.06420</ele>
        <time>2008-10-12T00:00:09Z</time>
      </trkpt>
      <trkpt lat="48.93390300" lon="8.421920000">
        <ele>149.62231</ele>
        <time>2008-10-12T00:00:16Z</time>
      </trkpt>
      <trkpt lat="48.93394400" lon="8.421667000">
        <ele>147.69970</ele>
        <time>2008-10-12T00:00:23Z</time>
      </trkpt>
      <trkpt lat="48.93398700" lon="8.421423000">
        <ele>147.69970</ele>
        <time>2008-10-12T00:00:30Z</time>
      </trkpt>
      <trkpt lat="48.93404200" lon="8.421183000">
        <ele>146.73840</ele>
        <time>2008-10-12T00:00:36Z</time>
      </trkpt>
      <trkpt lat="48.93412100" lon="8.420948000">
        <ele>148.18042</ele>
        <time>2008-10-12T00:00:43Z</time>
      </trkpt>
      <trkpt lat="48.93419400" lon="8.420767000">
        <ele>150.58361</ele>
        <time>2008-10-12T00:00:49Z</time>
      </trkpt>
      <trkpt lat="48.93429600" lon="8.420513000">
        <ele>153.46765</ele>
        <time>2008-10-12T00:00:57Z</time>
      </trkpt>
      <trkpt lat="48.93435900" lon="8.420388000">
        <ele>153.94836</ele>
        <time>2008-10-12T00:01:01Z</time>
      </trkpt>
      <trkpt lat="48.93438300" lon="8.420318000">
        <ele>154.90954</ele>
        <time>2008-10-12T00:01:03Z</time>
      </trkpt>
      <trkpt lat="48.93446400" lon="8.420128000">
        <ele>154.42895</ele>
        <time>2008-10-12T00:01:09Z</time>
      </trkpt>
      <trkpt lat="48.93457500" lon="8.419970000">
        <ele>152.02575</ele>
        <time>2008-10-12T00:01:15Z</time>
      </trkpt>
      <trkpt lat="48.93472000" lon="8.419862000">
        <ele>154.90954</ele>
        <time>2008-10-12T00:01:21Z</time>
      </trkpt>
      <trkpt lat="48.93485600" lon="8.419770000">
        <ele>152.98693</ele>
        <time>2008-10-12T00:01:27Z</time>
      </trkpt>
      <trkpt lat="48.93498900" lon="8.419613000">
        <ele>151.06420</ele>
        <time>2008-10-12T00:01:34Z</time>
      </trkpt>
      <trkpt lat="48.93510800" lon="8.419411000">
        <ele>152.02575</ele>
        <time>2008-10-12T00:01:41Z</time>
      </trkpt>
      <trkpt lat="48.93522100" lon="8.419267000">
        <ele>149.62231</ele>
        <time>2008-10-12T00:01:47Z</time>
      </trkpt>
      <trkpt lat="48.93534200" lon="8.419087000">
        <ele>148.18042</ele>
        <time>2008-10-12T00:01:54Z</time>
      </trkpt>
      <trkpt lat="48.93544500" lon="8.418928000">
        <ele>146.25781</ele>
        <time>2008-10-12T00:02:00Z</time>
      </trkpt>
      <trkpt lat="48.93550000" lon="8.418718000">
        <ele>146.25781</ele>
        <time>2008-10-12T00:02:06Z</time>
      </trkpt>
      <trkpt lat="48.93558100" lon="8.418531000">
        <ele>148.18042</ele>
        <time>2008-10-12T00:02:12Z</time>
      </trkpt>
      <trkpt lat="48.93559000" lon="8.418376000">
        <ele>148.66101</ele>
        <time>2008-10-12T00:02:16Z</time>
      </trkpt>
      <trkpt lat="48.93560700" lon="8.418230000">
        <ele>145.77710</ele>
        <time>2008-10-12T00:02:19Z</time>
      </trkpt>
      <trkpt lat="48.93569500" lon="8.418064000">
        <ele>143.37365</ele>
        <time>2008-10-12T00:02:25Z</time>
      </trkpt>
      <trkpt lat="48.93579900" lon="8.417892000">
        <ele>143.85437</ele>
        <time>2008-10-12T00:02:31Z</time>
      </trkpt>
      <trkpt lat="48.93594000" lon="8.417720000">
        <ele>142.41247</ele>
        <time>2008-10-12T00:02:38Z</time>
      </trkpt>
      <trkpt lat="48.93605100" lon="8.417576000">
        <ele>143.37365</ele>
        <time>2008-10-12T00:02:44Z</time>
      </trkpt>
      <trkpt lat="48.93613700" lon="8.417464000">
        <ele>141.45105</ele>
        <time>2008-10-12T00:02:49Z</time>
      </trkpt>
    </trkseg>
  </trk>
</gpx>

